<?xml version="1.0" encoding="UTF-8" standalone="no" ?>
<gpx xmlns="http://www.topografix.com/GPX/1/1" xmlns:xsi="http://www.w3.org/2001/XMLSchema-instance" xsi:schemaLocation="http://www.topografix.com/GPX/1/1 http://www.topografix.com/GPX/1/1/gpx.xsd" version="1.1" creator="VisuGPX - https://www.visugpx.com">
  <metadata>
    <name>Sous le mont Vallon</name>
  </metadata>
  <trk>
    <name><![CDATA[2021-01-01 11-05]]></name>
    <trkseg>
      <trkpt lat="45.37344" lon="6.57866">
        <ele>1700.8</ele>
        <time>2021-01-01T10:08:21Z</time>
      </trkpt>
      <trkpt lat="45.37344" lon="6.57867">
        <ele>1701.4</ele>
        <time>2021-01-01T10:08:41Z</time>
      </trkpt>
      <trkpt lat="45.37343" lon="6.57869">
        <ele>1701.8</ele>
        <time>2021-01-01T10:08:51Z</time>
      </trkpt>
      <trkpt lat="45.3734" lon="6.57872">
        <ele>1701</ele>
        <time>2021-01-01T10:08:56Z</time>
      </trkpt>
      <trkpt lat="45.37335" lon="6.57876">
        <ele>1702</ele>
        <time>2021-01-01T10:09:01Z</time>
      </trkpt>
      <trkpt lat="45.3733" lon="6.57883">
        <ele>1703.4</ele>
        <time>2021-01-01T10:09:06Z</time>
      </trkpt>
      <trkpt lat="45.37323" lon="6.5789">
        <ele>1703.6</ele>
        <time>2021-01-01T10:09:11Z</time>
      </trkpt>
      <trkpt lat="45.37319" lon="6.57891">
        <ele>1702.6</ele>
        <time>2021-01-01T10:09:16Z</time>
      </trkpt>
      <trkpt lat="45.37315" lon="6.57891">
        <ele>1702.4</ele>
        <time>2021-01-01T10:09:21Z</time>
      </trkpt>
      <trkpt lat="45.37314" lon="6.57892">
        <ele>1700.6</ele>
        <time>2021-01-01T10:09:31Z</time>
      </trkpt>
      <trkpt lat="45.37311" lon="6.57894">
        <ele>1703</ele>
        <time>2021-01-01T10:09:36Z</time>
      </trkpt>
      <trkpt lat="45.37311" lon="6.57895">
        <ele>1701.8</ele>
        <time>2021-01-01T10:09:41Z</time>
      </trkpt>
      <trkpt lat="45.37308" lon="6.57899">
        <ele>1702</ele>
        <time>2021-01-01T10:09:46Z</time>
      </trkpt>
      <trkpt lat="45.37305" lon="6.57904">
        <ele>1699.6</ele>
        <time>2021-01-01T10:09:51Z</time>
      </trkpt>
      <trkpt lat="45.37301" lon="6.57909">
        <ele>1701.8</ele>
        <time>2021-01-01T10:09:56Z</time>
      </trkpt>
      <trkpt lat="45.37296" lon="6.57917">
        <ele>1700.4</ele>
        <time>2021-01-01T10:10:01Z</time>
      </trkpt>
      <trkpt lat="45.37295" lon="6.57935">
        <ele>1698.2</ele>
        <time>2021-01-01T10:10:06Z</time>
      </trkpt>
      <trkpt lat="45.37297" lon="6.57955">
        <ele>1700.2</ele>
        <time>2021-01-01T10:10:11Z</time>
      </trkpt>
      <trkpt lat="45.37291" lon="6.57967">
        <ele>1695.4</ele>
        <time>2021-01-01T10:10:16Z</time>
      </trkpt>
      <trkpt lat="45.37289" lon="6.57984">
        <ele>1695.2</ele>
        <time>2021-01-01T10:10:21Z</time>
      </trkpt>
      <trkpt lat="45.37289" lon="6.58">
        <ele>1693</ele>
        <time>2021-01-01T10:10:26Z</time>
      </trkpt>
      <trkpt lat="45.37288" lon="6.58003">
        <ele>1693</ele>
        <time>2021-01-01T10:10:31Z</time>
      </trkpt>
      <trkpt lat="45.37288" lon="6.58003">
        <ele>1693.2</ele>
        <time>2021-01-01T10:10:41Z</time>
      </trkpt>
      <trkpt lat="45.37286" lon="6.58006">
        <ele>1694.2</ele>
        <time>2021-01-01T10:10:46Z</time>
      </trkpt>
      <trkpt lat="45.37282" lon="6.58013">
        <ele>1693</ele>
        <time>2021-01-01T10:10:51Z</time>
      </trkpt>
      <trkpt lat="45.37277" lon="6.5802">
        <ele>1691.8</ele>
        <time>2021-01-01T10:10:56Z</time>
      </trkpt>
      <trkpt lat="45.37274" lon="6.58028">
        <ele>1691.8</ele>
        <time>2021-01-01T10:11:01Z</time>
      </trkpt>
      <trkpt lat="45.37269" lon="6.58034">
        <ele>1690.6</ele>
        <time>2021-01-01T10:11:06Z</time>
      </trkpt>
      <trkpt lat="45.37265" lon="6.58039">
        <ele>1691.8</ele>
        <time>2021-01-01T10:11:11Z</time>
      </trkpt>
      <trkpt lat="45.37266" lon="6.58039">
        <ele>1691.8</ele>
        <time>2021-01-01T10:11:16Z</time>
      </trkpt>
      <trkpt lat="45.37266" lon="6.58041">
        <ele>1691.6</ele>
        <time>2021-01-01T10:11:21Z</time>
      </trkpt>
      <trkpt lat="45.37261" lon="6.58046">
        <ele>1693</ele>
        <time>2021-01-01T10:11:26Z</time>
      </trkpt>
      <trkpt lat="45.37256" lon="6.5805">
        <ele>1694</ele>
        <time>2021-01-01T10:11:31Z</time>
      </trkpt>
      <trkpt lat="45.37249" lon="6.58053">
        <ele>1695</ele>
        <time>2021-01-01T10:11:36Z</time>
      </trkpt>
      <trkpt lat="45.37241" lon="6.58056">
        <ele>1691.8</ele>
        <time>2021-01-01T10:11:42Z</time>
      </trkpt>
      <trkpt lat="45.37236" lon="6.58056">
        <ele>1695.2</ele>
        <time>2021-01-01T10:13:27Z</time>
      </trkpt>
      <trkpt lat="45.37236" lon="6.58056">
        <ele>1695.2</ele>
        <time>2021-01-01T10:14:07Z</time>
      </trkpt>
      <trkpt lat="45.37233" lon="6.58055">
        <ele>1694.4</ele>
        <time>2021-01-01T10:14:12Z</time>
      </trkpt>
      <trkpt lat="45.37227" lon="6.58055">
        <ele>1693.6</ele>
        <time>2021-01-01T10:14:17Z</time>
      </trkpt>
      <trkpt lat="45.37221" lon="6.58057">
        <ele>1696.2</ele>
        <time>2021-01-01T10:14:22Z</time>
      </trkpt>
      <trkpt lat="45.37215" lon="6.58059">
        <ele>1696.8</ele>
        <time>2021-01-01T10:14:27Z</time>
      </trkpt>
      <trkpt lat="45.37207" lon="6.58062">
        <ele>1695.6</ele>
        <time>2021-01-01T10:14:32Z</time>
      </trkpt>
      <trkpt lat="45.37201" lon="6.58064">
        <ele>1694</ele>
        <time>2021-01-01T10:14:37Z</time>
      </trkpt>
      <trkpt lat="45.37194" lon="6.58065">
        <ele>1695.4</ele>
        <time>2021-01-01T10:14:42Z</time>
      </trkpt>
      <trkpt lat="45.37187" lon="6.58068">
        <ele>1692</ele>
        <time>2021-01-01T10:14:47Z</time>
      </trkpt>
      <trkpt lat="45.3718" lon="6.5807">
        <ele>1693</ele>
        <time>2021-01-01T10:14:52Z</time>
      </trkpt>
      <trkpt lat="45.37173" lon="6.58072">
        <ele>1692.4</ele>
        <time>2021-01-01T10:14:57Z</time>
      </trkpt>
      <trkpt lat="45.37166" lon="6.58074">
        <ele>1691.4</ele>
        <time>2021-01-01T10:15:02Z</time>
      </trkpt>
      <trkpt lat="45.37159" lon="6.58077">
        <ele>1692.4</ele>
        <time>2021-01-01T10:15:07Z</time>
      </trkpt>
      <trkpt lat="45.37153" lon="6.58079">
        <ele>1692.6</ele>
        <time>2021-01-01T10:15:12Z</time>
      </trkpt>
      <trkpt lat="45.37146" lon="6.58081">
        <ele>1691.8</ele>
        <time>2021-01-01T10:15:17Z</time>
      </trkpt>
      <trkpt lat="45.37139" lon="6.58083">
        <ele>1692.6</ele>
        <time>2021-01-01T10:15:22Z</time>
      </trkpt>
      <trkpt lat="45.37132" lon="6.58085">
        <ele>1692.2</ele>
        <time>2021-01-01T10:15:27Z</time>
      </trkpt>
      <trkpt lat="45.37126" lon="6.58089">
        <ele>1694.2</ele>
        <time>2021-01-01T10:15:32Z</time>
      </trkpt>
      <trkpt lat="45.3712" lon="6.58092">
        <ele>1694</ele>
        <time>2021-01-01T10:15:37Z</time>
      </trkpt>
      <trkpt lat="45.37114" lon="6.58094">
        <ele>1690.6</ele>
        <time>2021-01-01T10:15:42Z</time>
      </trkpt>
      <trkpt lat="45.37107" lon="6.58096">
        <ele>1695.4</ele>
        <time>2021-01-01T10:15:47Z</time>
      </trkpt>
      <trkpt lat="45.37101" lon="6.58098">
        <ele>1695.4</ele>
        <time>2021-01-01T10:15:52Z</time>
      </trkpt>
      <trkpt lat="45.37095" lon="6.581">
        <ele>1694.2</ele>
        <time>2021-01-01T10:15:57Z</time>
      </trkpt>
      <trkpt lat="45.3709" lon="6.58102">
        <ele>1696.2</ele>
        <time>2021-01-01T10:16:02Z</time>
      </trkpt>
      <trkpt lat="45.37085" lon="6.58105">
        <ele>1695.6</ele>
        <time>2021-01-01T10:16:07Z</time>
      </trkpt>
      <trkpt lat="45.3708" lon="6.58108">
        <ele>1694.6</ele>
        <time>2021-01-01T10:16:12Z</time>
      </trkpt>
      <trkpt lat="45.37076" lon="6.5811">
        <ele>1695.2</ele>
        <time>2021-01-01T10:16:17Z</time>
      </trkpt>
      <trkpt lat="45.37072" lon="6.58113">
        <ele>1694.8</ele>
        <time>2021-01-01T10:16:22Z</time>
      </trkpt>
      <trkpt lat="45.37068" lon="6.58116">
        <ele>1695.6</ele>
        <time>2021-01-01T10:16:27Z</time>
      </trkpt>
      <trkpt lat="45.37064" lon="6.58118">
        <ele>1698.6</ele>
        <time>2021-01-01T10:16:32Z</time>
      </trkpt>
      <trkpt lat="45.3706" lon="6.58121">
        <ele>1695.4</ele>
        <time>2021-01-01T10:16:37Z</time>
      </trkpt>
      <trkpt lat="45.37057" lon="6.58123">
        <ele>1698.2</ele>
        <time>2021-01-01T10:16:42Z</time>
      </trkpt>
      <trkpt lat="45.37052" lon="6.58127">
        <ele>1699</ele>
        <time>2021-01-01T10:16:47Z</time>
      </trkpt>
      <trkpt lat="45.37049" lon="6.5813">
        <ele>1698.2</ele>
        <time>2021-01-01T10:16:52Z</time>
      </trkpt>
      <trkpt lat="45.37045" lon="6.58135">
        <ele>1698.8</ele>
        <time>2021-01-01T10:16:57Z</time>
      </trkpt>
      <trkpt lat="45.37042" lon="6.58139">
        <ele>1700.6</ele>
        <time>2021-01-01T10:17:02Z</time>
      </trkpt>
      <trkpt lat="45.37039" lon="6.58144">
        <ele>1700.6</ele>
        <time>2021-01-01T10:17:07Z</time>
      </trkpt>
      <trkpt lat="45.37035" lon="6.58149">
        <ele>1699.8</ele>
        <time>2021-01-01T10:17:12Z</time>
      </trkpt>
      <trkpt lat="45.37032" lon="6.58153">
        <ele>1701.4</ele>
        <time>2021-01-01T10:17:17Z</time>
      </trkpt>
      <trkpt lat="45.37029" lon="6.58156">
        <ele>1702.2</ele>
        <time>2021-01-01T10:17:22Z</time>
      </trkpt>
      <trkpt lat="45.37026" lon="6.58157">
        <ele>1699.4</ele>
        <time>2021-01-01T10:17:27Z</time>
      </trkpt>
      <trkpt lat="45.37022" lon="6.58157">
        <ele>1704.4</ele>
        <time>2021-01-01T10:17:32Z</time>
      </trkpt>
      <trkpt lat="45.37018" lon="6.58157">
        <ele>1702.4</ele>
        <time>2021-01-01T10:17:37Z</time>
      </trkpt>
      <trkpt lat="45.37015" lon="6.58156">
        <ele>1704</ele>
        <time>2021-01-01T10:17:42Z</time>
      </trkpt>
      <trkpt lat="45.37012" lon="6.58154">
        <ele>1704.8</ele>
        <time>2021-01-01T10:17:47Z</time>
      </trkpt>
      <trkpt lat="45.37009" lon="6.58153">
        <ele>1707.2</ele>
        <time>2021-01-01T10:17:52Z</time>
      </trkpt>
      <trkpt lat="45.37006" lon="6.58151">
        <ele>1707</ele>
        <time>2021-01-01T10:17:57Z</time>
      </trkpt>
      <trkpt lat="45.37005" lon="6.5815">
        <ele>1704.4</ele>
        <time>2021-01-01T10:18:02Z</time>
      </trkpt>
      <trkpt lat="45.37004" lon="6.58149">
        <ele>1705.2</ele>
        <time>2021-01-01T10:18:07Z</time>
      </trkpt>
      <trkpt lat="45.37002" lon="6.58147">
        <ele>1703</ele>
        <time>2021-01-01T10:18:12Z</time>
      </trkpt>
      <trkpt lat="45.37001" lon="6.58146">
        <ele>1702.6</ele>
        <time>2021-01-01T10:18:17Z</time>
      </trkpt>
      <trkpt lat="45.36998" lon="6.58144">
        <ele>1705</ele>
        <time>2021-01-01T10:18:22Z</time>
      </trkpt>
      <trkpt lat="45.36995" lon="6.58143">
        <ele>1704</ele>
        <time>2021-01-01T10:18:27Z</time>
      </trkpt>
      <trkpt lat="45.36992" lon="6.58141">
        <ele>1706.6</ele>
        <time>2021-01-01T10:18:32Z</time>
      </trkpt>
      <trkpt lat="45.36989" lon="6.5814">
        <ele>1708.2</ele>
        <time>2021-01-01T10:18:37Z</time>
      </trkpt>
      <trkpt lat="45.36986" lon="6.58138">
        <ele>1712</ele>
        <time>2021-01-01T10:18:42Z</time>
      </trkpt>
      <trkpt lat="45.36982" lon="6.58137">
        <ele>1711.4</ele>
        <time>2021-01-01T10:18:47Z</time>
      </trkpt>
      <trkpt lat="45.36977" lon="6.58136">
        <ele>1712.4</ele>
        <time>2021-01-01T10:18:52Z</time>
      </trkpt>
      <trkpt lat="45.36973" lon="6.58135">
        <ele>1710.8</ele>
        <time>2021-01-01T10:18:57Z</time>
      </trkpt>
      <trkpt lat="45.36969" lon="6.58134">
        <ele>1715.4</ele>
        <time>2021-01-01T10:19:02Z</time>
      </trkpt>
      <trkpt lat="45.36965" lon="6.58133">
        <ele>1711.6</ele>
        <time>2021-01-01T10:19:07Z</time>
      </trkpt>
      <trkpt lat="45.36962" lon="6.58132">
        <ele>1714.2</ele>
        <time>2021-01-01T10:19:12Z</time>
      </trkpt>
      <trkpt lat="45.36959" lon="6.58131">
        <ele>1714.2</ele>
        <time>2021-01-01T10:19:17Z</time>
      </trkpt>
      <trkpt lat="45.36956" lon="6.58131">
        <ele>1714</ele>
        <time>2021-01-01T10:19:22Z</time>
      </trkpt>
      <trkpt lat="45.36953" lon="6.5813">
        <ele>1716.4</ele>
        <time>2021-01-01T10:19:27Z</time>
      </trkpt>
      <trkpt lat="45.36949" lon="6.58129">
        <ele>1715.2</ele>
        <time>2021-01-01T10:19:32Z</time>
      </trkpt>
      <trkpt lat="45.36945" lon="6.58128">
        <ele>1714.2</ele>
        <time>2021-01-01T10:19:37Z</time>
      </trkpt>
      <trkpt lat="45.36943" lon="6.58128">
        <ele>1718.4</ele>
        <time>2021-01-01T10:19:42Z</time>
      </trkpt>
      <trkpt lat="45.3694" lon="6.58127">
        <ele>1715.8</ele>
        <time>2021-01-01T10:19:47Z</time>
      </trkpt>
      <trkpt lat="45.36938" lon="6.58127">
        <ele>1717.6</ele>
        <time>2021-01-01T10:19:52Z</time>
      </trkpt>
      <trkpt lat="45.36935" lon="6.58127">
        <ele>1717.2</ele>
        <time>2021-01-01T10:19:57Z</time>
      </trkpt>
      <trkpt lat="45.36933" lon="6.58126">
        <ele>1720.4</ele>
        <time>2021-01-01T10:20:02Z</time>
      </trkpt>
      <trkpt lat="45.3693" lon="6.58125">
        <ele>1720</ele>
        <time>2021-01-01T10:20:07Z</time>
      </trkpt>
      <trkpt lat="45.36929" lon="6.58125">
        <ele>1718.8</ele>
        <time>2021-01-01T10:20:12Z</time>
      </trkpt>
      <trkpt lat="45.36925" lon="6.58124">
        <ele>1726</ele>
        <time>2021-01-01T10:20:17Z</time>
      </trkpt>
      <trkpt lat="45.36921" lon="6.58123">
        <ele>1724.8</ele>
        <time>2021-01-01T10:20:22Z</time>
      </trkpt>
      <trkpt lat="45.36918" lon="6.58121">
        <ele>1724</ele>
        <time>2021-01-01T10:20:27Z</time>
      </trkpt>
      <trkpt lat="45.36915" lon="6.5812">
        <ele>1725.8</ele>
        <time>2021-01-01T10:20:32Z</time>
      </trkpt>
      <trkpt lat="45.36912" lon="6.58118">
        <ele>1725.4</ele>
        <time>2021-01-01T10:20:37Z</time>
      </trkpt>
      <trkpt lat="45.3691" lon="6.58117">
        <ele>1726.2</ele>
        <time>2021-01-01T10:20:42Z</time>
      </trkpt>
      <trkpt lat="45.3691" lon="6.58117">
        <ele>1726.2</ele>
        <time>2021-01-01T10:20:47Z</time>
      </trkpt>
      <trkpt lat="45.36906" lon="6.58116">
        <ele>1727.6</ele>
        <time>2021-01-01T10:20:52Z</time>
      </trkpt>
      <trkpt lat="45.36902" lon="6.58114">
        <ele>1724.4</ele>
        <time>2021-01-01T10:20:57Z</time>
      </trkpt>
      <trkpt lat="45.36898" lon="6.58114">
        <ele>1728.2</ele>
        <time>2021-01-01T10:21:02Z</time>
      </trkpt>
      <trkpt lat="45.36894" lon="6.58114">
        <ele>1729.8</ele>
        <time>2021-01-01T10:21:07Z</time>
      </trkpt>
      <trkpt lat="45.3689" lon="6.58115">
        <ele>1729</ele>
        <time>2021-01-01T10:21:12Z</time>
      </trkpt>
      <trkpt lat="45.36886" lon="6.58115">
        <ele>1728.6</ele>
        <time>2021-01-01T10:21:17Z</time>
      </trkpt>
      <trkpt lat="45.36882" lon="6.58116">
        <ele>1727.6</ele>
        <time>2021-01-01T10:21:22Z</time>
      </trkpt>
      <trkpt lat="45.36878" lon="6.58117">
        <ele>1728.4</ele>
        <time>2021-01-01T10:21:27Z</time>
      </trkpt>
      <trkpt lat="45.36874" lon="6.58118">
        <ele>1732.6</ele>
        <time>2021-01-01T10:21:32Z</time>
      </trkpt>
      <trkpt lat="45.3687" lon="6.58119">
        <ele>1733.6</ele>
        <time>2021-01-01T10:21:37Z</time>
      </trkpt>
      <trkpt lat="45.36866" lon="6.5812">
        <ele>1733</ele>
        <time>2021-01-01T10:21:42Z</time>
      </trkpt>
      <trkpt lat="45.36862" lon="6.58122">
        <ele>1732</ele>
        <time>2021-01-01T10:21:47Z</time>
      </trkpt>
      <trkpt lat="45.36859" lon="6.58122">
        <ele>1733.8</ele>
        <time>2021-01-01T10:21:52Z</time>
      </trkpt>
      <trkpt lat="45.36855" lon="6.58123">
        <ele>1733.4</ele>
        <time>2021-01-01T10:21:57Z</time>
      </trkpt>
      <trkpt lat="45.36851" lon="6.58125">
        <ele>1736.2</ele>
        <time>2021-01-01T10:22:02Z</time>
      </trkpt>
      <trkpt lat="45.36846" lon="6.58126">
        <ele>1736.2</ele>
        <time>2021-01-01T10:22:07Z</time>
      </trkpt>
      <trkpt lat="45.36843" lon="6.58127">
        <ele>1736</ele>
        <time>2021-01-01T10:22:12Z</time>
      </trkpt>
      <trkpt lat="45.36839" lon="6.58128">
        <ele>1739.4</ele>
        <time>2021-01-01T10:22:17Z</time>
      </trkpt>
      <trkpt lat="45.36835" lon="6.58129">
        <ele>1742.4</ele>
        <time>2021-01-01T10:22:22Z</time>
      </trkpt>
      <trkpt lat="45.36831" lon="6.5813">
        <ele>1739.6</ele>
        <time>2021-01-01T10:22:27Z</time>
      </trkpt>
      <trkpt lat="45.36828" lon="6.5813">
        <ele>1742.4</ele>
        <time>2021-01-01T10:22:32Z</time>
      </trkpt>
      <trkpt lat="45.36824" lon="6.5813">
        <ele>1744</ele>
        <time>2021-01-01T10:22:37Z</time>
      </trkpt>
      <trkpt lat="45.3682" lon="6.5813">
        <ele>1742.6</ele>
        <time>2021-01-01T10:22:42Z</time>
      </trkpt>
      <trkpt lat="45.36816" lon="6.58131">
        <ele>1740.8</ele>
        <time>2021-01-01T10:22:47Z</time>
      </trkpt>
      <trkpt lat="45.36812" lon="6.58131">
        <ele>1743.2</ele>
        <time>2021-01-01T10:22:52Z</time>
      </trkpt>
      <trkpt lat="45.36809" lon="6.58131">
        <ele>1744</ele>
        <time>2021-01-01T10:22:57Z</time>
      </trkpt>
      <trkpt lat="45.36806" lon="6.58131">
        <ele>1746.4</ele>
        <time>2021-01-01T10:23:02Z</time>
      </trkpt>
      <trkpt lat="45.36803" lon="6.58133">
        <ele>1745.6</ele>
        <time>2021-01-01T10:23:07Z</time>
      </trkpt>
      <trkpt lat="45.368" lon="6.58134">
        <ele>1745.4</ele>
        <time>2021-01-01T10:23:12Z</time>
      </trkpt>
      <trkpt lat="45.36796" lon="6.58136">
        <ele>1745.8</ele>
        <time>2021-01-01T10:23:17Z</time>
      </trkpt>
      <trkpt lat="45.36793" lon="6.58139">
        <ele>1749</ele>
        <time>2021-01-01T10:23:22Z</time>
      </trkpt>
      <trkpt lat="45.3679" lon="6.5814">
        <ele>1749.6</ele>
        <time>2021-01-01T10:23:27Z</time>
      </trkpt>
      <trkpt lat="45.36787" lon="6.58142">
        <ele>1749.6</ele>
        <time>2021-01-01T10:23:32Z</time>
      </trkpt>
      <trkpt lat="45.36784" lon="6.58143">
        <ele>1749</ele>
        <time>2021-01-01T10:23:37Z</time>
      </trkpt>
      <trkpt lat="45.36782" lon="6.58144">
        <ele>1750.4</ele>
        <time>2021-01-01T10:23:42Z</time>
      </trkpt>
      <trkpt lat="45.3678" lon="6.58146">
        <ele>1754.4</ele>
        <time>2021-01-01T10:23:47Z</time>
      </trkpt>
      <trkpt lat="45.36776" lon="6.58147">
        <ele>1755.4</ele>
        <time>2021-01-01T10:23:52Z</time>
      </trkpt>
      <trkpt lat="45.36773" lon="6.58148">
        <ele>1758.2</ele>
        <time>2021-01-01T10:23:57Z</time>
      </trkpt>
      <trkpt lat="45.36769" lon="6.58149">
        <ele>1761</ele>
        <time>2021-01-01T10:24:02Z</time>
      </trkpt>
      <trkpt lat="45.36765" lon="6.58149">
        <ele>1759.2</ele>
        <time>2021-01-01T10:24:07Z</time>
      </trkpt>
      <trkpt lat="45.36761" lon="6.58149">
        <ele>1759.8</ele>
        <time>2021-01-01T10:24:12Z</time>
      </trkpt>
      <trkpt lat="45.36758" lon="6.58149">
        <ele>1758.2</ele>
        <time>2021-01-01T10:24:17Z</time>
      </trkpt>
      <trkpt lat="45.36755" lon="6.58146">
        <ele>1763.6</ele>
        <time>2021-01-01T10:24:22Z</time>
      </trkpt>
      <trkpt lat="45.36751" lon="6.58143">
        <ele>1762.4</ele>
        <time>2021-01-01T10:24:27Z</time>
      </trkpt>
      <trkpt lat="45.36747" lon="6.58141">
        <ele>1759.8</ele>
        <time>2021-01-01T10:24:32Z</time>
      </trkpt>
      <trkpt lat="45.36743" lon="6.58138">
        <ele>1763.2</ele>
        <time>2021-01-01T10:24:37Z</time>
      </trkpt>
      <trkpt lat="45.36739" lon="6.58136">
        <ele>1761.2</ele>
        <time>2021-01-01T10:24:42Z</time>
      </trkpt>
      <trkpt lat="45.36736" lon="6.58136">
        <ele>1762</ele>
        <time>2021-01-01T10:24:47Z</time>
      </trkpt>
      <trkpt lat="45.36733" lon="6.58136">
        <ele>1762.4</ele>
        <time>2021-01-01T10:24:52Z</time>
      </trkpt>
      <trkpt lat="45.3673" lon="6.58137">
        <ele>1764</ele>
        <time>2021-01-01T10:24:57Z</time>
      </trkpt>
      <trkpt lat="45.36727" lon="6.58139">
        <ele>1764.4</ele>
        <time>2021-01-01T10:25:02Z</time>
      </trkpt>
      <trkpt lat="45.36724" lon="6.58141">
        <ele>1765.4</ele>
        <time>2021-01-01T10:25:07Z</time>
      </trkpt>
      <trkpt lat="45.36722" lon="6.58143">
        <ele>1764.6</ele>
        <time>2021-01-01T10:25:12Z</time>
      </trkpt>
      <trkpt lat="45.36716" lon="6.58144">
        <ele>1762.6</ele>
        <time>2021-01-01T10:28:22Z</time>
      </trkpt>
      <trkpt lat="45.36711" lon="6.58147">
        <ele>1762.4</ele>
        <time>2021-01-01T10:28:27Z</time>
      </trkpt>
      <trkpt lat="45.36706" lon="6.58152">
        <ele>1765.2</ele>
        <time>2021-01-01T10:28:32Z</time>
      </trkpt>
      <trkpt lat="45.367" lon="6.58154">
        <ele>1766.2</ele>
        <time>2021-01-01T10:28:37Z</time>
      </trkpt>
      <trkpt lat="45.36694" lon="6.58156">
        <ele>1762.6</ele>
        <time>2021-01-01T10:28:42Z</time>
      </trkpt>
      <trkpt lat="45.36688" lon="6.58156">
        <ele>1763.4</ele>
        <time>2021-01-01T10:28:47Z</time>
      </trkpt>
      <trkpt lat="45.36681" lon="6.58156">
        <ele>1765.2</ele>
        <time>2021-01-01T10:28:52Z</time>
      </trkpt>
      <trkpt lat="45.36675" lon="6.58157">
        <ele>1762.8</ele>
        <time>2021-01-01T10:28:57Z</time>
      </trkpt>
      <trkpt lat="45.36667" lon="6.58158">
        <ele>1764.2</ele>
        <time>2021-01-01T10:29:02Z</time>
      </trkpt>
      <trkpt lat="45.36659" lon="6.58161">
        <ele>1761.6</ele>
        <time>2021-01-01T10:29:07Z</time>
      </trkpt>
      <trkpt lat="45.36651" lon="6.58165">
        <ele>1761.2</ele>
        <time>2021-01-01T10:29:12Z</time>
      </trkpt>
      <trkpt lat="45.36645" lon="6.58169">
        <ele>1761.8</ele>
        <time>2021-01-01T10:29:17Z</time>
      </trkpt>
      <trkpt lat="45.36639" lon="6.58174">
        <ele>1762.6</ele>
        <time>2021-01-01T10:29:22Z</time>
      </trkpt>
      <trkpt lat="45.36634" lon="6.5818">
        <ele>1761.2</ele>
        <time>2021-01-01T10:29:27Z</time>
      </trkpt>
      <trkpt lat="45.3663" lon="6.58185">
        <ele>1763.8</ele>
        <time>2021-01-01T10:29:32Z</time>
      </trkpt>
      <trkpt lat="45.36627" lon="6.58189">
        <ele>1764.8</ele>
        <time>2021-01-01T10:29:37Z</time>
      </trkpt>
      <trkpt lat="45.36622" lon="6.58193">
        <ele>1763.8</ele>
        <time>2021-01-01T10:29:42Z</time>
      </trkpt>
      <trkpt lat="45.36617" lon="6.58198">
        <ele>1764.2</ele>
        <time>2021-01-01T10:29:47Z</time>
      </trkpt>
      <trkpt lat="45.36613" lon="6.58202">
        <ele>1763.4</ele>
        <time>2021-01-01T10:29:52Z</time>
      </trkpt>
      <trkpt lat="45.36608" lon="6.58206">
        <ele>1763</ele>
        <time>2021-01-01T10:29:57Z</time>
      </trkpt>
      <trkpt lat="45.36603" lon="6.58212">
        <ele>1765.2</ele>
        <time>2021-01-01T10:30:02Z</time>
      </trkpt>
      <trkpt lat="45.36598" lon="6.58218">
        <ele>1767.8</ele>
        <time>2021-01-01T10:30:07Z</time>
      </trkpt>
      <trkpt lat="45.36594" lon="6.58223">
        <ele>1766.2</ele>
        <time>2021-01-01T10:30:12Z</time>
      </trkpt>
      <trkpt lat="45.3659" lon="6.58227">
        <ele>1769.6</ele>
        <time>2021-01-01T10:30:17Z</time>
      </trkpt>
      <trkpt lat="45.36587" lon="6.58231">
        <ele>1765.4</ele>
        <time>2021-01-01T10:30:22Z</time>
      </trkpt>
      <trkpt lat="45.36582" lon="6.58234">
        <ele>1769.4</ele>
        <time>2021-01-01T10:30:27Z</time>
      </trkpt>
      <trkpt lat="45.36577" lon="6.58239">
        <ele>1768.4</ele>
        <time>2021-01-01T10:30:32Z</time>
      </trkpt>
      <trkpt lat="45.36572" lon="6.58244">
        <ele>1770.6</ele>
        <time>2021-01-01T10:30:37Z</time>
      </trkpt>
      <trkpt lat="45.36567" lon="6.58247">
        <ele>1769.8</ele>
        <time>2021-01-01T10:30:42Z</time>
      </trkpt>
      <trkpt lat="45.36562" lon="6.58252">
        <ele>1769.2</ele>
        <time>2021-01-01T10:30:47Z</time>
      </trkpt>
      <trkpt lat="45.36557" lon="6.58257">
        <ele>1771.6</ele>
        <time>2021-01-01T10:30:52Z</time>
      </trkpt>
      <trkpt lat="45.36553" lon="6.58263">
        <ele>1773</ele>
        <time>2021-01-01T10:30:57Z</time>
      </trkpt>
      <trkpt lat="45.36548" lon="6.58268">
        <ele>1773</ele>
        <time>2021-01-01T10:31:02Z</time>
      </trkpt>
      <trkpt lat="45.36544" lon="6.58274">
        <ele>1772.4</ele>
        <time>2021-01-01T10:31:07Z</time>
      </trkpt>
      <trkpt lat="45.36539" lon="6.58278">
        <ele>1773.2</ele>
        <time>2021-01-01T10:31:12Z</time>
      </trkpt>
      <trkpt lat="45.36534" lon="6.58283">
        <ele>1775</ele>
        <time>2021-01-01T10:31:17Z</time>
      </trkpt>
      <trkpt lat="45.36528" lon="6.58287">
        <ele>1773.4</ele>
        <time>2021-01-01T10:31:22Z</time>
      </trkpt>
      <trkpt lat="45.36522" lon="6.58291">
        <ele>1774.6</ele>
        <time>2021-01-01T10:31:27Z</time>
      </trkpt>
      <trkpt lat="45.36515" lon="6.58294">
        <ele>1773</ele>
        <time>2021-01-01T10:31:32Z</time>
      </trkpt>
      <trkpt lat="45.36509" lon="6.58296">
        <ele>1774</ele>
        <time>2021-01-01T10:31:37Z</time>
      </trkpt>
      <trkpt lat="45.36502" lon="6.58296">
        <ele>1775.4</ele>
        <time>2021-01-01T10:31:42Z</time>
      </trkpt>
      <trkpt lat="45.36496" lon="6.58297">
        <ele>1773.2</ele>
        <time>2021-01-01T10:31:47Z</time>
      </trkpt>
      <trkpt lat="45.36491" lon="6.58297">
        <ele>1773.6</ele>
        <time>2021-01-01T10:31:52Z</time>
      </trkpt>
      <trkpt lat="45.36485" lon="6.58296">
        <ele>1774.8</ele>
        <time>2021-01-01T10:31:57Z</time>
      </trkpt>
      <trkpt lat="45.36479" lon="6.58297">
        <ele>1774</ele>
        <time>2021-01-01T10:32:02Z</time>
      </trkpt>
      <trkpt lat="45.36474" lon="6.58297">
        <ele>1775</ele>
        <time>2021-01-01T10:32:07Z</time>
      </trkpt>
      <trkpt lat="45.36468" lon="6.58296">
        <ele>1775.8</ele>
        <time>2021-01-01T10:32:12Z</time>
      </trkpt>
      <trkpt lat="45.36462" lon="6.58295">
        <ele>1775.8</ele>
        <time>2021-01-01T10:32:17Z</time>
      </trkpt>
      <trkpt lat="45.36456" lon="6.58295">
        <ele>1776.4</ele>
        <time>2021-01-01T10:32:22Z</time>
      </trkpt>
      <trkpt lat="45.36451" lon="6.58295">
        <ele>1772.4</ele>
        <time>2021-01-01T10:32:27Z</time>
      </trkpt>
      <trkpt lat="45.36446" lon="6.58296">
        <ele>1776.2</ele>
        <time>2021-01-01T10:32:32Z</time>
      </trkpt>
      <trkpt lat="45.3644" lon="6.58297">
        <ele>1776.8</ele>
        <time>2021-01-01T10:32:37Z</time>
      </trkpt>
      <trkpt lat="45.36435" lon="6.58299">
        <ele>1775.4</ele>
        <time>2021-01-01T10:32:42Z</time>
      </trkpt>
      <trkpt lat="45.36429" lon="6.58299">
        <ele>1776.4</ele>
        <time>2021-01-01T10:32:47Z</time>
      </trkpt>
      <trkpt lat="45.36423" lon="6.583">
        <ele>1776.4</ele>
        <time>2021-01-01T10:32:52Z</time>
      </trkpt>
      <trkpt lat="45.36417" lon="6.58301">
        <ele>1776</ele>
        <time>2021-01-01T10:32:57Z</time>
      </trkpt>
      <trkpt lat="45.36411" lon="6.58302">
        <ele>1774.6</ele>
        <time>2021-01-01T10:33:02Z</time>
      </trkpt>
      <trkpt lat="45.36406" lon="6.58303">
        <ele>1777.2</ele>
        <time>2021-01-01T10:33:07Z</time>
      </trkpt>
      <trkpt lat="45.364" lon="6.58302">
        <ele>1773.8</ele>
        <time>2021-01-01T10:33:12Z</time>
      </trkpt>
      <trkpt lat="45.36395" lon="6.58301">
        <ele>1777.4</ele>
        <time>2021-01-01T10:33:17Z</time>
      </trkpt>
      <trkpt lat="45.3639" lon="6.58297">
        <ele>1777.6</ele>
        <time>2021-01-01T10:33:22Z</time>
      </trkpt>
      <trkpt lat="45.36385" lon="6.58294">
        <ele>1776</ele>
        <time>2021-01-01T10:33:27Z</time>
      </trkpt>
      <trkpt lat="45.36379" lon="6.5829">
        <ele>1779</ele>
        <time>2021-01-01T10:33:32Z</time>
      </trkpt>
      <trkpt lat="45.36374" lon="6.58287">
        <ele>1774.6</ele>
        <time>2021-01-01T10:33:37Z</time>
      </trkpt>
      <trkpt lat="45.36369" lon="6.58284">
        <ele>1777</ele>
        <time>2021-01-01T10:33:42Z</time>
      </trkpt>
      <trkpt lat="45.36363" lon="6.58281">
        <ele>1779</ele>
        <time>2021-01-01T10:33:47Z</time>
      </trkpt>
      <trkpt lat="45.36359" lon="6.58277">
        <ele>1776.8</ele>
        <time>2021-01-01T10:33:52Z</time>
      </trkpt>
      <trkpt lat="45.36353" lon="6.58273">
        <ele>1778.2</ele>
        <time>2021-01-01T10:33:57Z</time>
      </trkpt>
      <trkpt lat="45.36348" lon="6.58269">
        <ele>1775.8</ele>
        <time>2021-01-01T10:34:02Z</time>
      </trkpt>
      <trkpt lat="45.36343" lon="6.58265">
        <ele>1779.8</ele>
        <time>2021-01-01T10:34:07Z</time>
      </trkpt>
      <trkpt lat="45.36339" lon="6.58262">
        <ele>1779.4</ele>
        <time>2021-01-01T10:34:12Z</time>
      </trkpt>
      <trkpt lat="45.36334" lon="6.58259">
        <ele>1782.4</ele>
        <time>2021-01-01T10:34:17Z</time>
      </trkpt>
      <trkpt lat="45.36329" lon="6.58258">
        <ele>1778</ele>
        <time>2021-01-01T10:34:22Z</time>
      </trkpt>
      <trkpt lat="45.36323" lon="6.58259">
        <ele>1781</ele>
        <time>2021-01-01T10:34:27Z</time>
      </trkpt>
      <trkpt lat="45.36317" lon="6.58262">
        <ele>1779.6</ele>
        <time>2021-01-01T10:34:32Z</time>
      </trkpt>
      <trkpt lat="45.36312" lon="6.58265">
        <ele>1783</ele>
        <time>2021-01-01T10:34:37Z</time>
      </trkpt>
      <trkpt lat="45.36306" lon="6.58269">
        <ele>1780.6</ele>
        <time>2021-01-01T10:34:42Z</time>
      </trkpt>
      <trkpt lat="45.36301" lon="6.58271">
        <ele>1784</ele>
        <time>2021-01-01T10:34:47Z</time>
      </trkpt>
      <trkpt lat="45.36295" lon="6.58273">
        <ele>1788</ele>
        <time>2021-01-01T10:34:52Z</time>
      </trkpt>
      <trkpt lat="45.3629" lon="6.58273">
        <ele>1783.8</ele>
        <time>2021-01-01T10:34:57Z</time>
      </trkpt>
      <trkpt lat="45.36285" lon="6.58273">
        <ele>1783.8</ele>
        <time>2021-01-01T10:35:02Z</time>
      </trkpt>
      <trkpt lat="45.36279" lon="6.58274">
        <ele>1785.6</ele>
        <time>2021-01-01T10:35:07Z</time>
      </trkpt>
      <trkpt lat="45.36274" lon="6.58274">
        <ele>1787.8</ele>
        <time>2021-01-01T10:35:12Z</time>
      </trkpt>
      <trkpt lat="45.36268" lon="6.58275">
        <ele>1786.6</ele>
        <time>2021-01-01T10:35:17Z</time>
      </trkpt>
      <trkpt lat="45.36263" lon="6.58275">
        <ele>1787.6</ele>
        <time>2021-01-01T10:35:22Z</time>
      </trkpt>
      <trkpt lat="45.36258" lon="6.58276">
        <ele>1785</ele>
        <time>2021-01-01T10:35:27Z</time>
      </trkpt>
      <trkpt lat="45.36254" lon="6.58277">
        <ele>1788.2</ele>
        <time>2021-01-01T10:35:32Z</time>
      </trkpt>
      <trkpt lat="45.36249" lon="6.58278">
        <ele>1789.2</ele>
        <time>2021-01-01T10:35:37Z</time>
      </trkpt>
      <trkpt lat="45.36245" lon="6.5828">
        <ele>1788.4</ele>
        <time>2021-01-01T10:35:42Z</time>
      </trkpt>
      <trkpt lat="45.3624" lon="6.58283">
        <ele>1787.6</ele>
        <time>2021-01-01T10:35:47Z</time>
      </trkpt>
      <trkpt lat="45.36236" lon="6.58287">
        <ele>1790.4</ele>
        <time>2021-01-01T10:35:52Z</time>
      </trkpt>
      <trkpt lat="45.36232" lon="6.5829">
        <ele>1789.2</ele>
        <time>2021-01-01T10:35:57Z</time>
      </trkpt>
      <trkpt lat="45.36227" lon="6.58293">
        <ele>1789</ele>
        <time>2021-01-01T10:36:02Z</time>
      </trkpt>
      <trkpt lat="45.36223" lon="6.58296">
        <ele>1788.4</ele>
        <time>2021-01-01T10:36:07Z</time>
      </trkpt>
      <trkpt lat="45.36218" lon="6.583">
        <ele>1791.4</ele>
        <time>2021-01-01T10:36:12Z</time>
      </trkpt>
      <trkpt lat="45.36214" lon="6.58302">
        <ele>1788.4</ele>
        <time>2021-01-01T10:36:17Z</time>
      </trkpt>
      <trkpt lat="45.36209" lon="6.58304">
        <ele>1790.2</ele>
        <time>2021-01-01T10:36:22Z</time>
      </trkpt>
      <trkpt lat="45.36204" lon="6.58306">
        <ele>1791.4</ele>
        <time>2021-01-01T10:36:27Z</time>
      </trkpt>
      <trkpt lat="45.36199" lon="6.58311">
        <ele>1789.8</ele>
        <time>2021-01-01T10:36:32Z</time>
      </trkpt>
      <trkpt lat="45.36194" lon="6.58315">
        <ele>1793.6</ele>
        <time>2021-01-01T10:36:37Z</time>
      </trkpt>
      <trkpt lat="45.36189" lon="6.5832">
        <ele>1794.2</ele>
        <time>2021-01-01T10:36:42Z</time>
      </trkpt>
      <trkpt lat="45.36185" lon="6.58324">
        <ele>1789</ele>
        <time>2021-01-01T10:36:47Z</time>
      </trkpt>
      <trkpt lat="45.36181" lon="6.58329">
        <ele>1792.6</ele>
        <time>2021-01-01T10:36:52Z</time>
      </trkpt>
      <trkpt lat="45.36176" lon="6.58333">
        <ele>1792</ele>
        <time>2021-01-01T10:36:57Z</time>
      </trkpt>
      <trkpt lat="45.36171" lon="6.58337">
        <ele>1793.4</ele>
        <time>2021-01-01T10:37:02Z</time>
      </trkpt>
      <trkpt lat="45.36167" lon="6.58341">
        <ele>1794.6</ele>
        <time>2021-01-01T10:37:07Z</time>
      </trkpt>
      <trkpt lat="45.36161" lon="6.58346">
        <ele>1796.6</ele>
        <time>2021-01-01T10:37:12Z</time>
      </trkpt>
      <trkpt lat="45.36157" lon="6.58349">
        <ele>1797</ele>
        <time>2021-01-01T10:37:17Z</time>
      </trkpt>
      <trkpt lat="45.36152" lon="6.58352">
        <ele>1795.6</ele>
        <time>2021-01-01T10:37:22Z</time>
      </trkpt>
      <trkpt lat="45.36147" lon="6.58356">
        <ele>1795.2</ele>
        <time>2021-01-01T10:37:27Z</time>
      </trkpt>
      <trkpt lat="45.36142" lon="6.58359">
        <ele>1795</ele>
        <time>2021-01-01T10:37:32Z</time>
      </trkpt>
      <trkpt lat="45.36137" lon="6.58361">
        <ele>1797.2</ele>
        <time>2021-01-01T10:37:37Z</time>
      </trkpt>
      <trkpt lat="45.36132" lon="6.58364">
        <ele>1797.2</ele>
        <time>2021-01-01T10:37:42Z</time>
      </trkpt>
      <trkpt lat="45.36127" lon="6.58367">
        <ele>1798</ele>
        <time>2021-01-01T10:37:47Z</time>
      </trkpt>
      <trkpt lat="45.36122" lon="6.58369">
        <ele>1797</ele>
        <time>2021-01-01T10:37:52Z</time>
      </trkpt>
      <trkpt lat="45.36117" lon="6.58371">
        <ele>1796.4</ele>
        <time>2021-01-01T10:37:57Z</time>
      </trkpt>
      <trkpt lat="45.36113" lon="6.58375">
        <ele>1797.6</ele>
        <time>2021-01-01T10:38:02Z</time>
      </trkpt>
      <trkpt lat="45.36108" lon="6.58378">
        <ele>1797.4</ele>
        <time>2021-01-01T10:38:07Z</time>
      </trkpt>
      <trkpt lat="45.36104" lon="6.58381">
        <ele>1799.8</ele>
        <time>2021-01-01T10:38:12Z</time>
      </trkpt>
      <trkpt lat="45.361" lon="6.58386">
        <ele>1798.8</ele>
        <time>2021-01-01T10:38:17Z</time>
      </trkpt>
      <trkpt lat="45.36097" lon="6.58391">
        <ele>1798</ele>
        <time>2021-01-01T10:38:22Z</time>
      </trkpt>
      <trkpt lat="45.36094" lon="6.58397">
        <ele>1799.4</ele>
        <time>2021-01-01T10:38:27Z</time>
      </trkpt>
      <trkpt lat="45.36092" lon="6.58403">
        <ele>1799.6</ele>
        <time>2021-01-01T10:38:32Z</time>
      </trkpt>
      <trkpt lat="45.36089" lon="6.58409">
        <ele>1800.8</ele>
        <time>2021-01-01T10:38:37Z</time>
      </trkpt>
      <trkpt lat="45.36086" lon="6.58415">
        <ele>1799.6</ele>
        <time>2021-01-01T10:38:42Z</time>
      </trkpt>
      <trkpt lat="45.36084" lon="6.58421">
        <ele>1798.4</ele>
        <time>2021-01-01T10:38:47Z</time>
      </trkpt>
      <trkpt lat="45.36082" lon="6.58427">
        <ele>1801.4</ele>
        <time>2021-01-01T10:38:52Z</time>
      </trkpt>
      <trkpt lat="45.36079" lon="6.58431">
        <ele>1800</ele>
        <time>2021-01-01T10:38:57Z</time>
      </trkpt>
      <trkpt lat="45.36076" lon="6.58436">
        <ele>1797.6</ele>
        <time>2021-01-01T10:39:02Z</time>
      </trkpt>
      <trkpt lat="45.36072" lon="6.58441">
        <ele>1798.2</ele>
        <time>2021-01-01T10:39:07Z</time>
      </trkpt>
      <trkpt lat="45.36069" lon="6.58446">
        <ele>1798.4</ele>
        <time>2021-01-01T10:39:12Z</time>
      </trkpt>
      <trkpt lat="45.36065" lon="6.58451">
        <ele>1798.6</ele>
        <time>2021-01-01T10:39:17Z</time>
      </trkpt>
      <trkpt lat="45.36061" lon="6.58456">
        <ele>1798.8</ele>
        <time>2021-01-01T10:39:22Z</time>
      </trkpt>
      <trkpt lat="45.36058" lon="6.58461">
        <ele>1798.6</ele>
        <time>2021-01-01T10:39:27Z</time>
      </trkpt>
      <trkpt lat="45.36054" lon="6.58467">
        <ele>1800.8</ele>
        <time>2021-01-01T10:39:32Z</time>
      </trkpt>
      <trkpt lat="45.36051" lon="6.58473">
        <ele>1796.2</ele>
        <time>2021-01-01T10:39:37Z</time>
      </trkpt>
      <trkpt lat="45.36046" lon="6.58478">
        <ele>1799.6</ele>
        <time>2021-01-01T10:39:42Z</time>
      </trkpt>
      <trkpt lat="45.36042" lon="6.58483">
        <ele>1798.8</ele>
        <time>2021-01-01T10:39:47Z</time>
      </trkpt>
      <trkpt lat="45.36038" lon="6.58488">
        <ele>1799.6</ele>
        <time>2021-01-01T10:39:52Z</time>
      </trkpt>
      <trkpt lat="45.36033" lon="6.58493">
        <ele>1799.8</ele>
        <time>2021-01-01T10:39:57Z</time>
      </trkpt>
      <trkpt lat="45.36028" lon="6.58496">
        <ele>1798.8</ele>
        <time>2021-01-01T10:40:02Z</time>
      </trkpt>
      <trkpt lat="45.36023" lon="6.58498">
        <ele>1799.8</ele>
        <time>2021-01-01T10:40:07Z</time>
      </trkpt>
      <trkpt lat="45.36018" lon="6.58499">
        <ele>1799.6</ele>
        <time>2021-01-01T10:40:12Z</time>
      </trkpt>
      <trkpt lat="45.36013" lon="6.58501">
        <ele>1802.4</ele>
        <time>2021-01-01T10:40:17Z</time>
      </trkpt>
      <trkpt lat="45.36008" lon="6.58501">
        <ele>1799.2</ele>
        <time>2021-01-01T10:40:22Z</time>
      </trkpt>
      <trkpt lat="45.36002" lon="6.58502">
        <ele>1799.6</ele>
        <time>2021-01-01T10:40:27Z</time>
      </trkpt>
      <trkpt lat="45.35997" lon="6.58503">
        <ele>1800.4</ele>
        <time>2021-01-01T10:40:32Z</time>
      </trkpt>
      <trkpt lat="45.35991" lon="6.58504">
        <ele>1802.6</ele>
        <time>2021-01-01T10:40:37Z</time>
      </trkpt>
      <trkpt lat="45.35986" lon="6.58506">
        <ele>1800.2</ele>
        <time>2021-01-01T10:40:42Z</time>
      </trkpt>
      <trkpt lat="45.35981" lon="6.58507">
        <ele>1802.2</ele>
        <time>2021-01-01T10:40:47Z</time>
      </trkpt>
      <trkpt lat="45.35975" lon="6.58509">
        <ele>1803.4</ele>
        <time>2021-01-01T10:40:52Z</time>
      </trkpt>
      <trkpt lat="45.35969" lon="6.5851">
        <ele>1800.4</ele>
        <time>2021-01-01T10:40:57Z</time>
      </trkpt>
      <trkpt lat="45.35964" lon="6.58512">
        <ele>1801</ele>
        <time>2021-01-01T10:41:02Z</time>
      </trkpt>
      <trkpt lat="45.35958" lon="6.58515">
        <ele>1801</ele>
        <time>2021-01-01T10:41:07Z</time>
      </trkpt>
      <trkpt lat="45.35953" lon="6.58516">
        <ele>1799.8</ele>
        <time>2021-01-01T10:41:12Z</time>
      </trkpt>
      <trkpt lat="45.35949" lon="6.58517">
        <ele>1802.8</ele>
        <time>2021-01-01T10:41:17Z</time>
      </trkpt>
      <trkpt lat="45.35944" lon="6.58518">
        <ele>1801.8</ele>
        <time>2021-01-01T10:41:22Z</time>
      </trkpt>
      <trkpt lat="45.3594" lon="6.5852">
        <ele>1802.4</ele>
        <time>2021-01-01T10:41:27Z</time>
      </trkpt>
      <trkpt lat="45.35935" lon="6.58521">
        <ele>1805.4</ele>
        <time>2021-01-01T10:41:32Z</time>
      </trkpt>
      <trkpt lat="45.35931" lon="6.58523">
        <ele>1805.8</ele>
        <time>2021-01-01T10:41:37Z</time>
      </trkpt>
      <trkpt lat="45.35926" lon="6.58525">
        <ele>1805</ele>
        <time>2021-01-01T10:41:42Z</time>
      </trkpt>
      <trkpt lat="45.35921" lon="6.58528">
        <ele>1806.2</ele>
        <time>2021-01-01T10:41:47Z</time>
      </trkpt>
      <trkpt lat="45.35917" lon="6.58531">
        <ele>1806.4</ele>
        <time>2021-01-01T10:41:52Z</time>
      </trkpt>
      <trkpt lat="45.35913" lon="6.58534">
        <ele>1804.8</ele>
        <time>2021-01-01T10:41:57Z</time>
      </trkpt>
      <trkpt lat="45.35909" lon="6.58539">
        <ele>1809</ele>
        <time>2021-01-01T10:42:02Z</time>
      </trkpt>
      <trkpt lat="45.35905" lon="6.58543">
        <ele>1808.8</ele>
        <time>2021-01-01T10:42:07Z</time>
      </trkpt>
      <trkpt lat="45.359" lon="6.58546">
        <ele>1808.4</ele>
        <time>2021-01-01T10:42:12Z</time>
      </trkpt>
      <trkpt lat="45.35896" lon="6.58549">
        <ele>1808.6</ele>
        <time>2021-01-01T10:42:17Z</time>
      </trkpt>
      <trkpt lat="45.35892" lon="6.58551">
        <ele>1810.4</ele>
        <time>2021-01-01T10:42:22Z</time>
      </trkpt>
      <trkpt lat="45.35888" lon="6.58555">
        <ele>1811</ele>
        <time>2021-01-01T10:42:27Z</time>
      </trkpt>
      <trkpt lat="45.35883" lon="6.58558">
        <ele>1808.8</ele>
        <time>2021-01-01T10:42:32Z</time>
      </trkpt>
      <trkpt lat="45.35879" lon="6.5856">
        <ele>1807.4</ele>
        <time>2021-01-01T10:42:37Z</time>
      </trkpt>
      <trkpt lat="45.35874" lon="6.58563">
        <ele>1809.6</ele>
        <time>2021-01-01T10:42:42Z</time>
      </trkpt>
      <trkpt lat="45.3587" lon="6.58566">
        <ele>1813</ele>
        <time>2021-01-01T10:42:47Z</time>
      </trkpt>
      <trkpt lat="45.35866" lon="6.58569">
        <ele>1811.4</ele>
        <time>2021-01-01T10:42:52Z</time>
      </trkpt>
      <trkpt lat="45.35861" lon="6.58572">
        <ele>1812.4</ele>
        <time>2021-01-01T10:42:57Z</time>
      </trkpt>
      <trkpt lat="45.35856" lon="6.58575">
        <ele>1810.2</ele>
        <time>2021-01-01T10:43:02Z</time>
      </trkpt>
      <trkpt lat="45.35852" lon="6.58579">
        <ele>1812.4</ele>
        <time>2021-01-01T10:43:07Z</time>
      </trkpt>
      <trkpt lat="45.35848" lon="6.58583">
        <ele>1811.6</ele>
        <time>2021-01-01T10:43:12Z</time>
      </trkpt>
      <trkpt lat="45.35845" lon="6.58587">
        <ele>1814</ele>
        <time>2021-01-01T10:43:17Z</time>
      </trkpt>
      <trkpt lat="45.35841" lon="6.58591">
        <ele>1812.6</ele>
        <time>2021-01-01T10:43:22Z</time>
      </trkpt>
      <trkpt lat="45.35837" lon="6.58596">
        <ele>1813.2</ele>
        <time>2021-01-01T10:43:27Z</time>
      </trkpt>
      <trkpt lat="45.35833" lon="6.58599">
        <ele>1816.8</ele>
        <time>2021-01-01T10:43:32Z</time>
      </trkpt>
      <trkpt lat="45.35829" lon="6.58602">
        <ele>1815.6</ele>
        <time>2021-01-01T10:43:37Z</time>
      </trkpt>
      <trkpt lat="45.35825" lon="6.58603">
        <ele>1814</ele>
        <time>2021-01-01T10:43:42Z</time>
      </trkpt>
      <trkpt lat="45.35821" lon="6.58604">
        <ele>1815.4</ele>
        <time>2021-01-01T10:43:47Z</time>
      </trkpt>
      <trkpt lat="45.35816" lon="6.58606">
        <ele>1818.4</ele>
        <time>2021-01-01T10:43:52Z</time>
      </trkpt>
      <trkpt lat="45.35812" lon="6.58609">
        <ele>1818.4</ele>
        <time>2021-01-01T10:43:57Z</time>
      </trkpt>
      <trkpt lat="45.35807" lon="6.58613">
        <ele>1815</ele>
        <time>2021-01-01T10:44:02Z</time>
      </trkpt>
      <trkpt lat="45.35803" lon="6.58616">
        <ele>1818.4</ele>
        <time>2021-01-01T10:44:07Z</time>
      </trkpt>
      <trkpt lat="45.35798" lon="6.58621">
        <ele>1816.8</ele>
        <time>2021-01-01T10:44:12Z</time>
      </trkpt>
      <trkpt lat="45.35794" lon="6.58624">
        <ele>1818.6</ele>
        <time>2021-01-01T10:44:17Z</time>
      </trkpt>
      <trkpt lat="45.35789" lon="6.58627">
        <ele>1817.4</ele>
        <time>2021-01-01T10:44:22Z</time>
      </trkpt>
      <trkpt lat="45.35785" lon="6.5863">
        <ele>1817.6</ele>
        <time>2021-01-01T10:44:27Z</time>
      </trkpt>
      <trkpt lat="45.35781" lon="6.58633">
        <ele>1818.4</ele>
        <time>2021-01-01T10:44:32Z</time>
      </trkpt>
      <trkpt lat="45.35777" lon="6.58635">
        <ele>1818.4</ele>
        <time>2021-01-01T10:44:37Z</time>
      </trkpt>
      <trkpt lat="45.35773" lon="6.58637">
        <ele>1819.4</ele>
        <time>2021-01-01T10:44:42Z</time>
      </trkpt>
      <trkpt lat="45.35768" lon="6.5864">
        <ele>1821.2</ele>
        <time>2021-01-01T10:44:47Z</time>
      </trkpt>
      <trkpt lat="45.35765" lon="6.58642">
        <ele>1819.4</ele>
        <time>2021-01-01T10:44:52Z</time>
      </trkpt>
      <trkpt lat="45.35762" lon="6.58645">
        <ele>1822.8</ele>
        <time>2021-01-01T10:44:57Z</time>
      </trkpt>
      <trkpt lat="45.35758" lon="6.58648">
        <ele>1824</ele>
        <time>2021-01-01T10:45:02Z</time>
      </trkpt>
      <trkpt lat="45.35755" lon="6.58651">
        <ele>1820.6</ele>
        <time>2021-01-01T10:45:07Z</time>
      </trkpt>
      <trkpt lat="45.35752" lon="6.58655">
        <ele>1824.4</ele>
        <time>2021-01-01T10:45:12Z</time>
      </trkpt>
      <trkpt lat="45.35747" lon="6.58659">
        <ele>1822.8</ele>
        <time>2021-01-01T10:45:17Z</time>
      </trkpt>
      <trkpt lat="45.35744" lon="6.58663">
        <ele>1821.6</ele>
        <time>2021-01-01T10:45:22Z</time>
      </trkpt>
      <trkpt lat="45.3574" lon="6.58667">
        <ele>1823.4</ele>
        <time>2021-01-01T10:45:27Z</time>
      </trkpt>
      <trkpt lat="45.35736" lon="6.58671">
        <ele>1823</ele>
        <time>2021-01-01T10:45:32Z</time>
      </trkpt>
      <trkpt lat="45.35732" lon="6.58674">
        <ele>1824.2</ele>
        <time>2021-01-01T10:45:37Z</time>
      </trkpt>
      <trkpt lat="45.35728" lon="6.58677">
        <ele>1825.4</ele>
        <time>2021-01-01T10:45:42Z</time>
      </trkpt>
      <trkpt lat="45.35724" lon="6.58679">
        <ele>1829</ele>
        <time>2021-01-01T10:45:47Z</time>
      </trkpt>
      <trkpt lat="45.3572" lon="6.5868">
        <ele>1822.2</ele>
        <time>2021-01-01T10:45:52Z</time>
      </trkpt>
      <trkpt lat="45.35715" lon="6.58681">
        <ele>1827</ele>
        <time>2021-01-01T10:45:57Z</time>
      </trkpt>
      <trkpt lat="45.3571" lon="6.58683">
        <ele>1825</ele>
        <time>2021-01-01T10:46:02Z</time>
      </trkpt>
      <trkpt lat="45.35706" lon="6.58685">
        <ele>1824.4</ele>
        <time>2021-01-01T10:46:07Z</time>
      </trkpt>
      <trkpt lat="45.35702" lon="6.58688">
        <ele>1827.6</ele>
        <time>2021-01-01T10:46:12Z</time>
      </trkpt>
      <trkpt lat="45.35699" lon="6.58691">
        <ele>1829.8</ele>
        <time>2021-01-01T10:46:17Z</time>
      </trkpt>
      <trkpt lat="45.35696" lon="6.58694">
        <ele>1827.2</ele>
        <time>2021-01-01T10:46:22Z</time>
      </trkpt>
      <trkpt lat="45.35692" lon="6.58698">
        <ele>1830</ele>
        <time>2021-01-01T10:46:27Z</time>
      </trkpt>
      <trkpt lat="45.35689" lon="6.58702">
        <ele>1833.2</ele>
        <time>2021-01-01T10:46:32Z</time>
      </trkpt>
      <trkpt lat="45.35686" lon="6.58705">
        <ele>1831.4</ele>
        <time>2021-01-01T10:46:37Z</time>
      </trkpt>
      <trkpt lat="45.35682" lon="6.58707">
        <ele>1832</ele>
        <time>2021-01-01T10:46:42Z</time>
      </trkpt>
      <trkpt lat="45.35677" lon="6.58711">
        <ele>1829.2</ele>
        <time>2021-01-01T10:46:47Z</time>
      </trkpt>
      <trkpt lat="45.35672" lon="6.58715">
        <ele>1834.8</ele>
        <time>2021-01-01T10:46:52Z</time>
      </trkpt>
      <trkpt lat="45.35667" lon="6.58719">
        <ele>1831.8</ele>
        <time>2021-01-01T10:46:57Z</time>
      </trkpt>
      <trkpt lat="45.35664" lon="6.58721">
        <ele>1827.6</ele>
        <time>2021-01-01T10:47:02Z</time>
      </trkpt>
      <trkpt lat="45.35659" lon="6.58724">
        <ele>1834.2</ele>
        <time>2021-01-01T10:47:07Z</time>
      </trkpt>
      <trkpt lat="45.35655" lon="6.58727">
        <ele>1835</ele>
        <time>2021-01-01T10:47:12Z</time>
      </trkpt>
      <trkpt lat="45.35651" lon="6.5873">
        <ele>1831.4</ele>
        <time>2021-01-01T10:47:17Z</time>
      </trkpt>
      <trkpt lat="45.35646" lon="6.58732">
        <ele>1835.6</ele>
        <time>2021-01-01T10:47:22Z</time>
      </trkpt>
      <trkpt lat="45.35641" lon="6.58734">
        <ele>1834.4</ele>
        <time>2021-01-01T10:47:27Z</time>
      </trkpt>
      <trkpt lat="45.35637" lon="6.58735">
        <ele>1836.4</ele>
        <time>2021-01-01T10:47:32Z</time>
      </trkpt>
      <trkpt lat="45.35632" lon="6.58736">
        <ele>1835.6</ele>
        <time>2021-01-01T10:47:37Z</time>
      </trkpt>
      <trkpt lat="45.35627" lon="6.58738">
        <ele>1837.6</ele>
        <time>2021-01-01T10:47:42Z</time>
      </trkpt>
      <trkpt lat="45.35623" lon="6.5874">
        <ele>1837.4</ele>
        <time>2021-01-01T10:47:47Z</time>
      </trkpt>
      <trkpt lat="45.3562" lon="6.58742">
        <ele>1835.2</ele>
        <time>2021-01-01T10:47:52Z</time>
      </trkpt>
      <trkpt lat="45.35616" lon="6.58746">
        <ele>1838</ele>
        <time>2021-01-01T10:47:57Z</time>
      </trkpt>
      <trkpt lat="45.35612" lon="6.5875">
        <ele>1838.4</ele>
        <time>2021-01-01T10:48:02Z</time>
      </trkpt>
      <trkpt lat="45.35609" lon="6.58754">
        <ele>1839.4</ele>
        <time>2021-01-01T10:48:07Z</time>
      </trkpt>
      <trkpt lat="45.35606" lon="6.58756">
        <ele>1842</ele>
        <time>2021-01-01T10:48:12Z</time>
      </trkpt>
      <trkpt lat="45.35602" lon="6.5876">
        <ele>1839.6</ele>
        <time>2021-01-01T10:48:17Z</time>
      </trkpt>
      <trkpt lat="45.35599" lon="6.58763">
        <ele>1835.8</ele>
        <time>2021-01-01T10:48:22Z</time>
      </trkpt>
      <trkpt lat="45.35596" lon="6.58766">
        <ele>1841.6</ele>
        <time>2021-01-01T10:48:27Z</time>
      </trkpt>
      <trkpt lat="45.35592" lon="6.5877">
        <ele>1841.4</ele>
        <time>2021-01-01T10:48:32Z</time>
      </trkpt>
      <trkpt lat="45.35589" lon="6.58773">
        <ele>1839.4</ele>
        <time>2021-01-01T10:48:37Z</time>
      </trkpt>
      <trkpt lat="45.35585" lon="6.58775">
        <ele>1841</ele>
        <time>2021-01-01T10:48:42Z</time>
      </trkpt>
      <trkpt lat="45.35581" lon="6.58778">
        <ele>1843</ele>
        <time>2021-01-01T10:48:47Z</time>
      </trkpt>
      <trkpt lat="45.35578" lon="6.58781">
        <ele>1842.8</ele>
        <time>2021-01-01T10:48:52Z</time>
      </trkpt>
      <trkpt lat="45.35575" lon="6.58784">
        <ele>1843.8</ele>
        <time>2021-01-01T10:48:57Z</time>
      </trkpt>
      <trkpt lat="45.35571" lon="6.58787">
        <ele>1842.8</ele>
        <time>2021-01-01T10:49:02Z</time>
      </trkpt>
      <trkpt lat="45.35568" lon="6.58791">
        <ele>1843.6</ele>
        <time>2021-01-01T10:49:07Z</time>
      </trkpt>
      <trkpt lat="45.35564" lon="6.58794">
        <ele>1844.8</ele>
        <time>2021-01-01T10:49:12Z</time>
      </trkpt>
      <trkpt lat="45.35561" lon="6.58798">
        <ele>1845.8</ele>
        <time>2021-01-01T10:49:17Z</time>
      </trkpt>
      <trkpt lat="45.35558" lon="6.58802">
        <ele>1846.2</ele>
        <time>2021-01-01T10:49:22Z</time>
      </trkpt>
      <trkpt lat="45.35555" lon="6.58806">
        <ele>1845.6</ele>
        <time>2021-01-01T10:49:27Z</time>
      </trkpt>
      <trkpt lat="45.35551" lon="6.58809">
        <ele>1848.8</ele>
        <time>2021-01-01T10:49:32Z</time>
      </trkpt>
      <trkpt lat="45.35548" lon="6.58812">
        <ele>1848.8</ele>
        <time>2021-01-01T10:49:37Z</time>
      </trkpt>
      <trkpt lat="45.35545" lon="6.58815">
        <ele>1850</ele>
        <time>2021-01-01T10:49:42Z</time>
      </trkpt>
      <trkpt lat="45.35542" lon="6.58818">
        <ele>1848.4</ele>
        <time>2021-01-01T10:49:47Z</time>
      </trkpt>
      <trkpt lat="45.35539" lon="6.58821">
        <ele>1848.2</ele>
        <time>2021-01-01T10:49:52Z</time>
      </trkpt>
      <trkpt lat="45.35536" lon="6.58825">
        <ele>1845.6</ele>
        <time>2021-01-01T10:49:57Z</time>
      </trkpt>
      <trkpt lat="45.35532" lon="6.58829">
        <ele>1849.2</ele>
        <time>2021-01-01T10:50:02Z</time>
      </trkpt>
      <trkpt lat="45.35529" lon="6.58831">
        <ele>1850.8</ele>
        <time>2021-01-01T10:50:07Z</time>
      </trkpt>
      <trkpt lat="45.35525" lon="6.58834">
        <ele>1852.4</ele>
        <time>2021-01-01T10:50:12Z</time>
      </trkpt>
      <trkpt lat="45.35521" lon="6.58837">
        <ele>1851.8</ele>
        <time>2021-01-01T10:50:17Z</time>
      </trkpt>
      <trkpt lat="45.35518" lon="6.58839">
        <ele>1850.6</ele>
        <time>2021-01-01T10:50:22Z</time>
      </trkpt>
      <trkpt lat="45.35514" lon="6.58842">
        <ele>1852.4</ele>
        <time>2021-01-01T10:50:27Z</time>
      </trkpt>
      <trkpt lat="45.3551" lon="6.58844">
        <ele>1853</ele>
        <time>2021-01-01T10:50:32Z</time>
      </trkpt>
      <trkpt lat="45.35506" lon="6.58847">
        <ele>1852.8</ele>
        <time>2021-01-01T10:50:37Z</time>
      </trkpt>
      <trkpt lat="45.35503" lon="6.58848">
        <ele>1853.2</ele>
        <time>2021-01-01T10:50:42Z</time>
      </trkpt>
      <trkpt lat="45.35499" lon="6.58849">
        <ele>1855</ele>
        <time>2021-01-01T10:50:47Z</time>
      </trkpt>
      <trkpt lat="45.35495" lon="6.5885">
        <ele>1853.6</ele>
        <time>2021-01-01T10:50:52Z</time>
      </trkpt>
      <trkpt lat="45.35491" lon="6.58851">
        <ele>1858.2</ele>
        <time>2021-01-01T10:50:57Z</time>
      </trkpt>
      <trkpt lat="45.35486" lon="6.58852">
        <ele>1857.6</ele>
        <time>2021-01-01T10:51:02Z</time>
      </trkpt>
      <trkpt lat="45.35482" lon="6.58853">
        <ele>1858</ele>
        <time>2021-01-01T10:51:07Z</time>
      </trkpt>
      <trkpt lat="45.35478" lon="6.58854">
        <ele>1858</ele>
        <time>2021-01-01T10:51:12Z</time>
      </trkpt>
      <trkpt lat="45.35474" lon="6.58856">
        <ele>1857.2</ele>
        <time>2021-01-01T10:51:17Z</time>
      </trkpt>
      <trkpt lat="45.3547" lon="6.58859">
        <ele>1857.2</ele>
        <time>2021-01-01T10:51:22Z</time>
      </trkpt>
      <trkpt lat="45.35466" lon="6.58861">
        <ele>1858.6</ele>
        <time>2021-01-01T10:51:27Z</time>
      </trkpt>
      <trkpt lat="45.35463" lon="6.58863">
        <ele>1861.8</ele>
        <time>2021-01-01T10:51:32Z</time>
      </trkpt>
      <trkpt lat="45.35459" lon="6.58867">
        <ele>1859.8</ele>
        <time>2021-01-01T10:51:37Z</time>
      </trkpt>
      <trkpt lat="45.35455" lon="6.5887">
        <ele>1860</ele>
        <time>2021-01-01T10:51:42Z</time>
      </trkpt>
      <trkpt lat="45.35452" lon="6.58873">
        <ele>1860.6</ele>
        <time>2021-01-01T10:51:47Z</time>
      </trkpt>
      <trkpt lat="45.35448" lon="6.58876">
        <ele>1863.8</ele>
        <time>2021-01-01T10:51:52Z</time>
      </trkpt>
      <trkpt lat="45.35445" lon="6.58879">
        <ele>1861.6</ele>
        <time>2021-01-01T10:51:57Z</time>
      </trkpt>
      <trkpt lat="45.35442" lon="6.58884">
        <ele>1861.8</ele>
        <time>2021-01-01T10:52:02Z</time>
      </trkpt>
      <trkpt lat="45.35439" lon="6.58888">
        <ele>1861.6</ele>
        <time>2021-01-01T10:52:07Z</time>
      </trkpt>
      <trkpt lat="45.35436" lon="6.5889">
        <ele>1862.4</ele>
        <time>2021-01-01T10:52:12Z</time>
      </trkpt>
      <trkpt lat="45.35433" lon="6.58895">
        <ele>1863.8</ele>
        <time>2021-01-01T10:52:17Z</time>
      </trkpt>
      <trkpt lat="45.35431" lon="6.58899">
        <ele>1863.4</ele>
        <time>2021-01-01T10:52:22Z</time>
      </trkpt>
      <trkpt lat="45.35428" lon="6.58904">
        <ele>1864.6</ele>
        <time>2021-01-01T10:52:27Z</time>
      </trkpt>
      <trkpt lat="45.35425" lon="6.58909">
        <ele>1867.4</ele>
        <time>2021-01-01T10:52:32Z</time>
      </trkpt>
      <trkpt lat="45.35423" lon="6.58913">
        <ele>1866.4</ele>
        <time>2021-01-01T10:52:37Z</time>
      </trkpt>
      <trkpt lat="45.3542" lon="6.58918">
        <ele>1863.6</ele>
        <time>2021-01-01T10:52:42Z</time>
      </trkpt>
      <trkpt lat="45.35418" lon="6.58922">
        <ele>1866.6</ele>
        <time>2021-01-01T10:52:47Z</time>
      </trkpt>
      <trkpt lat="45.35415" lon="6.58927">
        <ele>1866.8</ele>
        <time>2021-01-01T10:52:52Z</time>
      </trkpt>
      <trkpt lat="45.35412" lon="6.58931">
        <ele>1866.6</ele>
        <time>2021-01-01T10:52:57Z</time>
      </trkpt>
      <trkpt lat="45.3541" lon="6.58936">
        <ele>1869</ele>
        <time>2021-01-01T10:53:02Z</time>
      </trkpt>
      <trkpt lat="45.35408" lon="6.5894">
        <ele>1869.4</ele>
        <time>2021-01-01T10:53:07Z</time>
      </trkpt>
      <trkpt lat="45.35405" lon="6.58945">
        <ele>1869.8</ele>
        <time>2021-01-01T10:53:12Z</time>
      </trkpt>
      <trkpt lat="45.35402" lon="6.58949">
        <ele>1870</ele>
        <time>2021-01-01T10:53:17Z</time>
      </trkpt>
      <trkpt lat="45.35399" lon="6.58953">
        <ele>1870</ele>
        <time>2021-01-01T10:53:22Z</time>
      </trkpt>
      <trkpt lat="45.35395" lon="6.58957">
        <ele>1869.8</ele>
        <time>2021-01-01T10:53:27Z</time>
      </trkpt>
      <trkpt lat="45.35392" lon="6.58962">
        <ele>1872.4</ele>
        <time>2021-01-01T10:53:32Z</time>
      </trkpt>
      <trkpt lat="45.35388" lon="6.58966">
        <ele>1872</ele>
        <time>2021-01-01T10:53:37Z</time>
      </trkpt>
      <trkpt lat="45.35384" lon="6.5897">
        <ele>1872.4</ele>
        <time>2021-01-01T10:53:42Z</time>
      </trkpt>
      <trkpt lat="45.3538" lon="6.58974">
        <ele>1868.8</ele>
        <time>2021-01-01T10:53:47Z</time>
      </trkpt>
      <trkpt lat="45.35377" lon="6.58978">
        <ele>1874.8</ele>
        <time>2021-01-01T10:53:52Z</time>
      </trkpt>
      <trkpt lat="45.35373" lon="6.58981">
        <ele>1873.4</ele>
        <time>2021-01-01T10:53:57Z</time>
      </trkpt>
      <trkpt lat="45.35369" lon="6.58985">
        <ele>1873.4</ele>
        <time>2021-01-01T10:54:02Z</time>
      </trkpt>
      <trkpt lat="45.35366" lon="6.58989">
        <ele>1873.8</ele>
        <time>2021-01-01T10:54:07Z</time>
      </trkpt>
      <trkpt lat="45.35362" lon="6.58994">
        <ele>1875.8</ele>
        <time>2021-01-01T10:54:12Z</time>
      </trkpt>
      <trkpt lat="45.35358" lon="6.58998">
        <ele>1877.4</ele>
        <time>2021-01-01T10:54:17Z</time>
      </trkpt>
      <trkpt lat="45.35354" lon="6.59002">
        <ele>1876.8</ele>
        <time>2021-01-01T10:54:22Z</time>
      </trkpt>
      <trkpt lat="45.3535" lon="6.59006">
        <ele>1875.8</ele>
        <time>2021-01-01T10:54:27Z</time>
      </trkpt>
      <trkpt lat="45.35347" lon="6.59009">
        <ele>1878.4</ele>
        <time>2021-01-01T10:54:32Z</time>
      </trkpt>
      <trkpt lat="45.35342" lon="6.59012">
        <ele>1879.4</ele>
        <time>2021-01-01T10:54:37Z</time>
      </trkpt>
      <trkpt lat="45.35338" lon="6.59016">
        <ele>1880.4</ele>
        <time>2021-01-01T10:54:42Z</time>
      </trkpt>
      <trkpt lat="45.35334" lon="6.59018">
        <ele>1879.6</ele>
        <time>2021-01-01T10:54:47Z</time>
      </trkpt>
      <trkpt lat="45.35329" lon="6.5902">
        <ele>1879.6</ele>
        <time>2021-01-01T10:54:52Z</time>
      </trkpt>
      <trkpt lat="45.35324" lon="6.59022">
        <ele>1880.4</ele>
        <time>2021-01-01T10:54:57Z</time>
      </trkpt>
      <trkpt lat="45.35319" lon="6.59024">
        <ele>1882.4</ele>
        <time>2021-01-01T10:55:02Z</time>
      </trkpt>
      <trkpt lat="45.35315" lon="6.59026">
        <ele>1880.8</ele>
        <time>2021-01-01T10:55:07Z</time>
      </trkpt>
      <trkpt lat="45.3531" lon="6.59028">
        <ele>1880.6</ele>
        <time>2021-01-01T10:55:12Z</time>
      </trkpt>
      <trkpt lat="45.35305" lon="6.5903">
        <ele>1884.4</ele>
        <time>2021-01-01T10:55:17Z</time>
      </trkpt>
      <trkpt lat="45.353" lon="6.59033">
        <ele>1881.8</ele>
        <time>2021-01-01T10:55:22Z</time>
      </trkpt>
      <trkpt lat="45.35296" lon="6.59035">
        <ele>1881.4</ele>
        <time>2021-01-01T10:55:27Z</time>
      </trkpt>
      <trkpt lat="45.35293" lon="6.59037">
        <ele>1878.6</ele>
        <time>2021-01-01T10:55:32Z</time>
      </trkpt>
      <trkpt lat="45.35289" lon="6.5904">
        <ele>1882.4</ele>
        <time>2021-01-01T10:55:37Z</time>
      </trkpt>
      <trkpt lat="45.35285" lon="6.59042">
        <ele>1884.6</ele>
        <time>2021-01-01T10:55:42Z</time>
      </trkpt>
      <trkpt lat="45.3528" lon="6.59046">
        <ele>1885.4</ele>
        <time>2021-01-01T10:55:47Z</time>
      </trkpt>
      <trkpt lat="45.35276" lon="6.5905">
        <ele>1885.8</ele>
        <time>2021-01-01T10:55:52Z</time>
      </trkpt>
      <trkpt lat="45.35271" lon="6.59054">
        <ele>1888.6</ele>
        <time>2021-01-01T10:55:57Z</time>
      </trkpt>
      <trkpt lat="45.35267" lon="6.59056">
        <ele>1887.2</ele>
        <time>2021-01-01T10:56:02Z</time>
      </trkpt>
      <trkpt lat="45.35263" lon="6.5906">
        <ele>1886.6</ele>
        <time>2021-01-01T10:57:42Z</time>
      </trkpt>
      <trkpt lat="45.35262" lon="6.5906">
        <ele>1885.4</ele>
        <time>2021-01-01T10:57:47Z</time>
      </trkpt>
      <trkpt lat="45.35259" lon="6.59063">
        <ele>1885.8</ele>
        <time>2021-01-01T10:57:52Z</time>
      </trkpt>
      <trkpt lat="45.35255" lon="6.59066">
        <ele>1886.8</ele>
        <time>2021-01-01T10:57:57Z</time>
      </trkpt>
      <trkpt lat="45.35251" lon="6.59069">
        <ele>1887.8</ele>
        <time>2021-01-01T10:58:02Z</time>
      </trkpt>
      <trkpt lat="45.35247" lon="6.59073">
        <ele>1887.6</ele>
        <time>2021-01-01T10:58:07Z</time>
      </trkpt>
      <trkpt lat="45.35243" lon="6.59076">
        <ele>1889.8</ele>
        <time>2021-01-01T10:58:12Z</time>
      </trkpt>
      <trkpt lat="45.35239" lon="6.59079">
        <ele>1891.2</ele>
        <time>2021-01-01T10:58:17Z</time>
      </trkpt>
      <trkpt lat="45.35235" lon="6.59082">
        <ele>1891.8</ele>
        <time>2021-01-01T10:58:22Z</time>
      </trkpt>
      <trkpt lat="45.35232" lon="6.59085">
        <ele>1891.8</ele>
        <time>2021-01-01T10:58:27Z</time>
      </trkpt>
      <trkpt lat="45.35228" lon="6.59087">
        <ele>1890.4</ele>
        <time>2021-01-01T10:58:32Z</time>
      </trkpt>
      <trkpt lat="45.35224" lon="6.5909">
        <ele>1892.2</ele>
        <time>2021-01-01T10:58:37Z</time>
      </trkpt>
      <trkpt lat="45.3522" lon="6.59094">
        <ele>1892</ele>
        <time>2021-01-01T10:58:42Z</time>
      </trkpt>
      <trkpt lat="45.35216" lon="6.59097">
        <ele>1894</ele>
        <time>2021-01-01T10:58:47Z</time>
      </trkpt>
      <trkpt lat="45.35212" lon="6.591">
        <ele>1894.4</ele>
        <time>2021-01-01T10:58:52Z</time>
      </trkpt>
      <trkpt lat="45.35208" lon="6.59103">
        <ele>1891.4</ele>
        <time>2021-01-01T10:58:57Z</time>
      </trkpt>
      <trkpt lat="45.35204" lon="6.59104">
        <ele>1892.6</ele>
        <time>2021-01-01T10:59:02Z</time>
      </trkpt>
      <trkpt lat="45.352" lon="6.59105">
        <ele>1894.2</ele>
        <time>2021-01-01T10:59:07Z</time>
      </trkpt>
      <trkpt lat="45.35196" lon="6.59108">
        <ele>1895.8</ele>
        <time>2021-01-01T10:59:12Z</time>
      </trkpt>
      <trkpt lat="45.35193" lon="6.5911">
        <ele>1894</ele>
        <time>2021-01-01T10:59:17Z</time>
      </trkpt>
      <trkpt lat="45.35189" lon="6.59112">
        <ele>1894.6</ele>
        <time>2021-01-01T10:59:22Z</time>
      </trkpt>
      <trkpt lat="45.35184" lon="6.59114">
        <ele>1895.6</ele>
        <time>2021-01-01T10:59:27Z</time>
      </trkpt>
      <trkpt lat="45.3518" lon="6.59115">
        <ele>1896.8</ele>
        <time>2021-01-01T10:59:32Z</time>
      </trkpt>
      <trkpt lat="45.35177" lon="6.59116">
        <ele>1897.4</ele>
        <time>2021-01-01T10:59:37Z</time>
      </trkpt>
      <trkpt lat="45.35174" lon="6.59117">
        <ele>1898.4</ele>
        <time>2021-01-01T10:59:42Z</time>
      </trkpt>
      <trkpt lat="45.35171" lon="6.59117">
        <ele>1896.8</ele>
        <time>2021-01-01T10:59:47Z</time>
      </trkpt>
      <trkpt lat="45.35168" lon="6.59118">
        <ele>1899.8</ele>
        <time>2021-01-01T10:59:52Z</time>
      </trkpt>
      <trkpt lat="45.35165" lon="6.59119">
        <ele>1898.8</ele>
        <time>2021-01-01T10:59:57Z</time>
      </trkpt>
      <trkpt lat="45.35162" lon="6.59119">
        <ele>1897.2</ele>
        <time>2021-01-01T11:00:02Z</time>
      </trkpt>
      <trkpt lat="45.35159" lon="6.59119">
        <ele>1898.4</ele>
        <time>2021-01-01T11:00:07Z</time>
      </trkpt>
      <trkpt lat="45.35156" lon="6.59121">
        <ele>1900.6</ele>
        <time>2021-01-01T11:00:12Z</time>
      </trkpt>
      <trkpt lat="45.35153" lon="6.59122">
        <ele>1904.2</ele>
        <time>2021-01-01T11:00:17Z</time>
      </trkpt>
      <trkpt lat="45.35149" lon="6.59123">
        <ele>1903</ele>
        <time>2021-01-01T11:00:22Z</time>
      </trkpt>
      <trkpt lat="45.35146" lon="6.59123">
        <ele>1905</ele>
        <time>2021-01-01T11:00:27Z</time>
      </trkpt>
      <trkpt lat="45.35143" lon="6.59124">
        <ele>1903.2</ele>
        <time>2021-01-01T11:00:32Z</time>
      </trkpt>
      <trkpt lat="45.3514" lon="6.59125">
        <ele>1906</ele>
        <time>2021-01-01T11:00:37Z</time>
      </trkpt>
      <trkpt lat="45.35135" lon="6.59126">
        <ele>1906.4</ele>
        <time>2021-01-01T11:00:42Z</time>
      </trkpt>
      <trkpt lat="45.35131" lon="6.59126">
        <ele>1906.4</ele>
        <time>2021-01-01T11:00:47Z</time>
      </trkpt>
      <trkpt lat="45.35127" lon="6.59127">
        <ele>1906.6</ele>
        <time>2021-01-01T11:00:52Z</time>
      </trkpt>
      <trkpt lat="45.35123" lon="6.59128">
        <ele>1906.6</ele>
        <time>2021-01-01T11:00:57Z</time>
      </trkpt>
      <trkpt lat="45.35118" lon="6.59127">
        <ele>1908.8</ele>
        <time>2021-01-01T11:01:02Z</time>
      </trkpt>
      <trkpt lat="45.35115" lon="6.59127">
        <ele>1909.6</ele>
        <time>2021-01-01T11:01:07Z</time>
      </trkpt>
      <trkpt lat="45.35112" lon="6.59129">
        <ele>1906.6</ele>
        <time>2021-01-01T11:01:12Z</time>
      </trkpt>
      <trkpt lat="45.35108" lon="6.59132">
        <ele>1909.6</ele>
        <time>2021-01-01T11:01:17Z</time>
      </trkpt>
      <trkpt lat="45.35104" lon="6.59134">
        <ele>1908.2</ele>
        <time>2021-01-01T11:01:22Z</time>
      </trkpt>
      <trkpt lat="45.351" lon="6.59134">
        <ele>1911</ele>
        <time>2021-01-01T11:01:27Z</time>
      </trkpt>
      <trkpt lat="45.35096" lon="6.59135">
        <ele>1909.4</ele>
        <time>2021-01-01T11:01:32Z</time>
      </trkpt>
      <trkpt lat="45.35092" lon="6.59135">
        <ele>1908.8</ele>
        <time>2021-01-01T11:01:37Z</time>
      </trkpt>
      <trkpt lat="45.35087" lon="6.59136">
        <ele>1910.2</ele>
        <time>2021-01-01T11:01:42Z</time>
      </trkpt>
      <trkpt lat="45.35082" lon="6.59136">
        <ele>1909.4</ele>
        <time>2021-01-01T11:01:47Z</time>
      </trkpt>
      <trkpt lat="45.35077" lon="6.59136">
        <ele>1908.2</ele>
        <time>2021-01-01T11:01:52Z</time>
      </trkpt>
      <trkpt lat="45.35072" lon="6.59137">
        <ele>1911.2</ele>
        <time>2021-01-01T11:01:57Z</time>
      </trkpt>
      <trkpt lat="45.35067" lon="6.59138">
        <ele>1909.8</ele>
        <time>2021-01-01T11:02:02Z</time>
      </trkpt>
      <trkpt lat="45.35062" lon="6.59138">
        <ele>1911.4</ele>
        <time>2021-01-01T11:02:07Z</time>
      </trkpt>
      <trkpt lat="45.35057" lon="6.59139">
        <ele>1908.6</ele>
        <time>2021-01-01T11:02:12Z</time>
      </trkpt>
      <trkpt lat="45.35052" lon="6.59139">
        <ele>1911</ele>
        <time>2021-01-01T11:02:17Z</time>
      </trkpt>
      <trkpt lat="45.35048" lon="6.5914">
        <ele>1910.2</ele>
        <time>2021-01-01T11:02:22Z</time>
      </trkpt>
      <trkpt lat="45.35043" lon="6.5914">
        <ele>1911</ele>
        <time>2021-01-01T11:02:27Z</time>
      </trkpt>
      <trkpt lat="45.35038" lon="6.5914">
        <ele>1911.8</ele>
        <time>2021-01-01T11:02:32Z</time>
      </trkpt>
      <trkpt lat="45.35033" lon="6.59141">
        <ele>1911.6</ele>
        <time>2021-01-01T11:02:37Z</time>
      </trkpt>
      <trkpt lat="45.35028" lon="6.59141">
        <ele>1909.4</ele>
        <time>2021-01-01T11:02:42Z</time>
      </trkpt>
      <trkpt lat="45.35023" lon="6.59141">
        <ele>1910.4</ele>
        <time>2021-01-01T11:02:47Z</time>
      </trkpt>
      <trkpt lat="45.35019" lon="6.59141">
        <ele>1914.2</ele>
        <time>2021-01-01T11:02:52Z</time>
      </trkpt>
      <trkpt lat="45.35014" lon="6.59141">
        <ele>1914</ele>
        <time>2021-01-01T11:02:57Z</time>
      </trkpt>
      <trkpt lat="45.3501" lon="6.59141">
        <ele>1911.6</ele>
        <time>2021-01-01T11:03:02Z</time>
      </trkpt>
      <trkpt lat="45.35005" lon="6.59141">
        <ele>1913</ele>
        <time>2021-01-01T11:03:07Z</time>
      </trkpt>
      <trkpt lat="45.35" lon="6.59141">
        <ele>1913</ele>
        <time>2021-01-01T11:03:12Z</time>
      </trkpt>
      <trkpt lat="45.34996" lon="6.5914">
        <ele>1915.8</ele>
        <time>2021-01-01T11:03:17Z</time>
      </trkpt>
      <trkpt lat="45.34991" lon="6.5914">
        <ele>1914.2</ele>
        <time>2021-01-01T11:03:22Z</time>
      </trkpt>
      <trkpt lat="45.34987" lon="6.5914">
        <ele>1916.4</ele>
        <time>2021-01-01T11:03:27Z</time>
      </trkpt>
      <trkpt lat="45.34983" lon="6.59139">
        <ele>1918</ele>
        <time>2021-01-01T11:03:32Z</time>
      </trkpt>
      <trkpt lat="45.34979" lon="6.59139">
        <ele>1918</ele>
        <time>2021-01-01T11:03:37Z</time>
      </trkpt>
      <trkpt lat="45.34975" lon="6.5914">
        <ele>1918.8</ele>
        <time>2021-01-01T11:03:42Z</time>
      </trkpt>
      <trkpt lat="45.34971" lon="6.5914">
        <ele>1914</ele>
        <time>2021-01-01T11:03:47Z</time>
      </trkpt>
      <trkpt lat="45.34967" lon="6.59142">
        <ele>1915</ele>
        <time>2021-01-01T11:03:52Z</time>
      </trkpt>
      <trkpt lat="45.34963" lon="6.59143">
        <ele>1918.6</ele>
        <time>2021-01-01T11:03:57Z</time>
      </trkpt>
      <trkpt lat="45.34959" lon="6.59144">
        <ele>1915.6</ele>
        <time>2021-01-01T11:04:02Z</time>
      </trkpt>
      <trkpt lat="45.34955" lon="6.59145">
        <ele>1918.2</ele>
        <time>2021-01-01T11:04:07Z</time>
      </trkpt>
      <trkpt lat="45.34951" lon="6.59147">
        <ele>1916.6</ele>
        <time>2021-01-01T11:04:12Z</time>
      </trkpt>
      <trkpt lat="45.34947" lon="6.59149">
        <ele>1919.6</ele>
        <time>2021-01-01T11:04:17Z</time>
      </trkpt>
      <trkpt lat="45.34943" lon="6.59151">
        <ele>1919</ele>
        <time>2021-01-01T11:04:22Z</time>
      </trkpt>
      <trkpt lat="45.3494" lon="6.59155">
        <ele>1917</ele>
        <time>2021-01-01T11:04:27Z</time>
      </trkpt>
      <trkpt lat="45.34936" lon="6.59158">
        <ele>1921.8</ele>
        <time>2021-01-01T11:04:32Z</time>
      </trkpt>
      <trkpt lat="45.34932" lon="6.59162">
        <ele>1920.6</ele>
        <time>2021-01-01T11:04:37Z</time>
      </trkpt>
      <trkpt lat="45.34929" lon="6.59166">
        <ele>1923.2</ele>
        <time>2021-01-01T11:04:42Z</time>
      </trkpt>
      <trkpt lat="45.34926" lon="6.5917">
        <ele>1923.2</ele>
        <time>2021-01-01T11:04:47Z</time>
      </trkpt>
      <trkpt lat="45.34924" lon="6.59173">
        <ele>1924.8</ele>
        <time>2021-01-01T11:04:52Z</time>
      </trkpt>
      <trkpt lat="45.34921" lon="6.59175">
        <ele>1923.4</ele>
        <time>2021-01-01T11:04:57Z</time>
      </trkpt>
      <trkpt lat="45.34919" lon="6.59178">
        <ele>1924.8</ele>
        <time>2021-01-01T11:05:02Z</time>
      </trkpt>
      <trkpt lat="45.34917" lon="6.59181">
        <ele>1924.6</ele>
        <time>2021-01-01T11:05:07Z</time>
      </trkpt>
      <trkpt lat="45.34914" lon="6.59184">
        <ele>1926</ele>
        <time>2021-01-01T11:05:12Z</time>
      </trkpt>
      <trkpt lat="45.34913" lon="6.59187">
        <ele>1928</ele>
        <time>2021-01-01T11:05:17Z</time>
      </trkpt>
      <trkpt lat="45.3491" lon="6.5919">
        <ele>1927.2</ele>
        <time>2021-01-01T11:05:22Z</time>
      </trkpt>
      <trkpt lat="45.34908" lon="6.59192">
        <ele>1927.6</ele>
        <time>2021-01-01T11:05:27Z</time>
      </trkpt>
      <trkpt lat="45.34906" lon="6.59195">
        <ele>1927.6</ele>
        <time>2021-01-01T11:05:32Z</time>
      </trkpt>
      <trkpt lat="45.34904" lon="6.59198">
        <ele>1929.8</ele>
        <time>2021-01-01T11:05:37Z</time>
      </trkpt>
      <trkpt lat="45.34902" lon="6.592">
        <ele>1929.2</ele>
        <time>2021-01-01T11:05:42Z</time>
      </trkpt>
      <trkpt lat="45.34901" lon="6.592">
        <ele>1929.4</ele>
        <time>2021-01-01T11:05:52Z</time>
      </trkpt>
      <trkpt lat="45.34899" lon="6.59202">
        <ele>1933.6</ele>
        <time>2021-01-01T11:05:57Z</time>
      </trkpt>
      <trkpt lat="45.34897" lon="6.59204">
        <ele>1932</ele>
        <time>2021-01-01T11:06:02Z</time>
      </trkpt>
      <trkpt lat="45.34895" lon="6.59207">
        <ele>1933</ele>
        <time>2021-01-01T11:06:07Z</time>
      </trkpt>
      <trkpt lat="45.34893" lon="6.59209">
        <ele>1935.4</ele>
        <time>2021-01-01T11:06:12Z</time>
      </trkpt>
      <trkpt lat="45.34892" lon="6.59212">
        <ele>1933.2</ele>
        <time>2021-01-01T11:06:17Z</time>
      </trkpt>
      <trkpt lat="45.3489" lon="6.59213">
        <ele>1934</ele>
        <time>2021-01-01T11:06:22Z</time>
      </trkpt>
      <trkpt lat="45.34889" lon="6.59216">
        <ele>1934.8</ele>
        <time>2021-01-01T11:06:27Z</time>
      </trkpt>
      <trkpt lat="45.34887" lon="6.59219">
        <ele>1935.2</ele>
        <time>2021-01-01T11:06:32Z</time>
      </trkpt>
      <trkpt lat="45.34885" lon="6.59222">
        <ele>1936.6</ele>
        <time>2021-01-01T11:06:37Z</time>
      </trkpt>
      <trkpt lat="45.34884" lon="6.59224">
        <ele>1937.2</ele>
        <time>2021-01-01T11:06:42Z</time>
      </trkpt>
      <trkpt lat="45.34883" lon="6.59226">
        <ele>1939.2</ele>
        <time>2021-01-01T11:06:47Z</time>
      </trkpt>
      <trkpt lat="45.34881" lon="6.59228">
        <ele>1936.2</ele>
        <time>2021-01-01T11:06:52Z</time>
      </trkpt>
      <trkpt lat="45.34879" lon="6.5923">
        <ele>1940</ele>
        <time>2021-01-01T11:06:57Z</time>
      </trkpt>
      <trkpt lat="45.34876" lon="6.59233">
        <ele>1937.8</ele>
        <time>2021-01-01T11:07:02Z</time>
      </trkpt>
      <trkpt lat="45.34874" lon="6.59236">
        <ele>1940.4</ele>
        <time>2021-01-01T11:07:07Z</time>
      </trkpt>
      <trkpt lat="45.34872" lon="6.59238">
        <ele>1939.8</ele>
        <time>2021-01-01T11:07:12Z</time>
      </trkpt>
      <trkpt lat="45.3487" lon="6.59241">
        <ele>1943</ele>
        <time>2021-01-01T11:07:17Z</time>
      </trkpt>
      <trkpt lat="45.34868" lon="6.59243">
        <ele>1940.4</ele>
        <time>2021-01-01T11:07:22Z</time>
      </trkpt>
      <trkpt lat="45.34865" lon="6.59245">
        <ele>1944.4</ele>
        <time>2021-01-01T11:07:27Z</time>
      </trkpt>
      <trkpt lat="45.34863" lon="6.59247">
        <ele>1943</ele>
        <time>2021-01-01T11:07:32Z</time>
      </trkpt>
      <trkpt lat="45.3486" lon="6.5925">
        <ele>1945.2</ele>
        <time>2021-01-01T11:07:37Z</time>
      </trkpt>
      <trkpt lat="45.34857" lon="6.59252">
        <ele>1945.6</ele>
        <time>2021-01-01T11:07:42Z</time>
      </trkpt>
      <trkpt lat="45.34854" lon="6.59254">
        <ele>1944.4</ele>
        <time>2021-01-01T11:07:47Z</time>
      </trkpt>
      <trkpt lat="45.34851" lon="6.59255">
        <ele>1944.6</ele>
        <time>2021-01-01T11:07:52Z</time>
      </trkpt>
      <trkpt lat="45.34849" lon="6.59256">
        <ele>1947.2</ele>
        <time>2021-01-01T11:07:57Z</time>
      </trkpt>
      <trkpt lat="45.34845" lon="6.59257">
        <ele>1947.6</ele>
        <time>2021-01-01T11:08:02Z</time>
      </trkpt>
      <trkpt lat="45.34843" lon="6.59257">
        <ele>1948</ele>
        <time>2021-01-01T11:08:07Z</time>
      </trkpt>
      <trkpt lat="45.34842" lon="6.59257">
        <ele>1947.8</ele>
        <time>2021-01-01T11:08:12Z</time>
      </trkpt>
      <trkpt lat="45.34841" lon="6.59257">
        <ele>1947.6</ele>
        <time>2021-01-01T11:08:17Z</time>
      </trkpt>
      <trkpt lat="45.34841" lon="6.59258">
        <ele>1947.2</ele>
        <time>2021-01-01T11:08:27Z</time>
      </trkpt>
      <trkpt lat="45.3484" lon="6.59257">
        <ele>1949.2</ele>
        <time>2021-01-01T11:08:32Z</time>
      </trkpt>
      <trkpt lat="45.34838" lon="6.59255">
        <ele>1950</ele>
        <time>2021-01-01T11:08:37Z</time>
      </trkpt>
      <trkpt lat="45.34836" lon="6.59254">
        <ele>1950</ele>
        <time>2021-01-01T11:08:52Z</time>
      </trkpt>
      <trkpt lat="45.34834" lon="6.59253">
        <ele>1946.8</ele>
        <time>2021-01-01T11:08:57Z</time>
      </trkpt>
      <trkpt lat="45.34833" lon="6.59252">
        <ele>1948.4</ele>
        <time>2021-01-01T11:09:17Z</time>
      </trkpt>
      <trkpt lat="45.34832" lon="6.59252">
        <ele>1946.2</ele>
        <time>2021-01-01T11:09:27Z</time>
      </trkpt>
      <trkpt lat="45.34831" lon="6.59252">
        <ele>1947.8</ele>
        <time>2021-01-01T11:09:32Z</time>
      </trkpt>
      <trkpt lat="45.3483" lon="6.59252">
        <ele>1951.2</ele>
        <time>2021-01-01T11:09:48Z</time>
      </trkpt>
      <trkpt lat="45.34829" lon="6.59251">
        <ele>1950</ele>
        <time>2021-01-01T11:09:53Z</time>
      </trkpt>
      <trkpt lat="45.34825" lon="6.59251">
        <ele>1951.6</ele>
        <time>2021-01-01T11:09:58Z</time>
      </trkpt>
      <trkpt lat="45.34823" lon="6.59249">
        <ele>1950.6</ele>
        <time>2021-01-01T11:10:03Z</time>
      </trkpt>
      <trkpt lat="45.34822" lon="6.5925">
        <ele>1950.4</ele>
        <time>2021-01-01T11:10:18Z</time>
      </trkpt>
      <trkpt lat="45.34822" lon="6.5925">
        <ele>1950.2</ele>
        <time>2021-01-01T11:10:23Z</time>
      </trkpt>
      <trkpt lat="45.34819" lon="6.59249">
        <ele>1949.2</ele>
        <time>2021-01-01T11:10:28Z</time>
      </trkpt>
      <trkpt lat="45.34817" lon="6.59249">
        <ele>1950</ele>
        <time>2021-01-01T11:10:33Z</time>
      </trkpt>
      <trkpt lat="45.34814" lon="6.59248">
        <ele>1951.2</ele>
        <time>2021-01-01T11:10:38Z</time>
      </trkpt>
      <trkpt lat="45.34812" lon="6.59247">
        <ele>1952.6</ele>
        <time>2021-01-01T11:10:43Z</time>
      </trkpt>
      <trkpt lat="45.34809" lon="6.59246">
        <ele>1950.8</ele>
        <time>2021-01-01T11:10:48Z</time>
      </trkpt>
      <trkpt lat="45.34807" lon="6.59245">
        <ele>1953.4</ele>
        <time>2021-01-01T11:10:53Z</time>
      </trkpt>
      <trkpt lat="45.34805" lon="6.59244">
        <ele>1953.8</ele>
        <time>2021-01-01T11:10:58Z</time>
      </trkpt>
      <trkpt lat="45.34803" lon="6.59242">
        <ele>1955.8</ele>
        <time>2021-01-01T11:11:03Z</time>
      </trkpt>
      <trkpt lat="45.348" lon="6.59242">
        <ele>1956.6</ele>
        <time>2021-01-01T11:11:08Z</time>
      </trkpt>
      <trkpt lat="45.34798" lon="6.59241">
        <ele>1956.2</ele>
        <time>2021-01-01T11:11:13Z</time>
      </trkpt>
      <trkpt lat="45.34796" lon="6.5924">
        <ele>1956.6</ele>
        <time>2021-01-01T11:11:18Z</time>
      </trkpt>
      <trkpt lat="45.34793" lon="6.59239">
        <ele>1957</ele>
        <time>2021-01-01T11:11:23Z</time>
      </trkpt>
      <trkpt lat="45.34791" lon="6.59238">
        <ele>1957.2</ele>
        <time>2021-01-01T11:11:28Z</time>
      </trkpt>
      <trkpt lat="45.34788" lon="6.59237">
        <ele>1960.4</ele>
        <time>2021-01-01T11:11:33Z</time>
      </trkpt>
      <trkpt lat="45.34786" lon="6.59237">
        <ele>1960</ele>
        <time>2021-01-01T11:11:38Z</time>
      </trkpt>
      <trkpt lat="45.34784" lon="6.59235">
        <ele>1960.2</ele>
        <time>2021-01-01T11:11:43Z</time>
      </trkpt>
      <trkpt lat="45.34781" lon="6.59234">
        <ele>1960.4</ele>
        <time>2021-01-01T11:11:48Z</time>
      </trkpt>
      <trkpt lat="45.34779" lon="6.59233">
        <ele>1961.8</ele>
        <time>2021-01-01T11:11:53Z</time>
      </trkpt>
      <trkpt lat="45.34776" lon="6.59232">
        <ele>1958.2</ele>
        <time>2021-01-01T11:11:58Z</time>
      </trkpt>
      <trkpt lat="45.34774" lon="6.59231">
        <ele>1959.6</ele>
        <time>2021-01-01T11:12:03Z</time>
      </trkpt>
      <trkpt lat="45.34771" lon="6.5923">
        <ele>1961.6</ele>
        <time>2021-01-01T11:12:08Z</time>
      </trkpt>
      <trkpt lat="45.34769" lon="6.5923">
        <ele>1964.6</ele>
        <time>2021-01-01T11:12:13Z</time>
      </trkpt>
      <trkpt lat="45.34766" lon="6.59229">
        <ele>1963.2</ele>
        <time>2021-01-01T11:12:18Z</time>
      </trkpt>
      <trkpt lat="45.34764" lon="6.59229">
        <ele>1964.6</ele>
        <time>2021-01-01T11:12:23Z</time>
      </trkpt>
      <trkpt lat="45.34761" lon="6.59228">
        <ele>1967</ele>
        <time>2021-01-01T11:12:28Z</time>
      </trkpt>
      <trkpt lat="45.34759" lon="6.59227">
        <ele>1966.2</ele>
        <time>2021-01-01T11:12:33Z</time>
      </trkpt>
      <trkpt lat="45.34758" lon="6.59227">
        <ele>1966</ele>
        <time>2021-01-01T11:12:38Z</time>
      </trkpt>
      <trkpt lat="45.34758" lon="6.59227">
        <ele>1966</ele>
        <time>2021-01-01T11:12:43Z</time>
      </trkpt>
      <trkpt lat="45.34757" lon="6.59226">
        <ele>1966.2</ele>
        <time>2021-01-01T11:12:48Z</time>
      </trkpt>
      <trkpt lat="45.34755" lon="6.59226">
        <ele>1967.4</ele>
        <time>2021-01-01T11:12:53Z</time>
      </trkpt>
      <trkpt lat="45.34753" lon="6.59226">
        <ele>1968.4</ele>
        <time>2021-01-01T11:12:58Z</time>
      </trkpt>
      <trkpt lat="45.3475" lon="6.59225">
        <ele>1968.2</ele>
        <time>2021-01-01T11:13:03Z</time>
      </trkpt>
      <trkpt lat="45.34748" lon="6.59224">
        <ele>1970.6</ele>
        <time>2021-01-01T11:13:08Z</time>
      </trkpt>
      <trkpt lat="45.34746" lon="6.59223">
        <ele>1968.8</ele>
        <time>2021-01-01T11:13:13Z</time>
      </trkpt>
      <trkpt lat="45.34743" lon="6.59223">
        <ele>1972.2</ele>
        <time>2021-01-01T11:13:18Z</time>
      </trkpt>
      <trkpt lat="45.34741" lon="6.59222">
        <ele>1972.6</ele>
        <time>2021-01-01T11:13:23Z</time>
      </trkpt>
      <trkpt lat="45.34738" lon="6.59222">
        <ele>1977.2</ele>
        <time>2021-01-01T11:13:38Z</time>
      </trkpt>
      <trkpt lat="45.34736" lon="6.59221">
        <ele>1976.4</ele>
        <time>2021-01-01T11:13:43Z</time>
      </trkpt>
      <trkpt lat="45.34733" lon="6.5922">
        <ele>1978.4</ele>
        <time>2021-01-01T11:13:48Z</time>
      </trkpt>
      <trkpt lat="45.34731" lon="6.5922">
        <ele>1975.4</ele>
        <time>2021-01-01T11:13:53Z</time>
      </trkpt>
      <trkpt lat="45.34729" lon="6.59219">
        <ele>1977.6</ele>
        <time>2021-01-01T11:13:58Z</time>
      </trkpt>
      <trkpt lat="45.34726" lon="6.59218">
        <ele>1977.4</ele>
        <time>2021-01-01T11:14:03Z</time>
      </trkpt>
      <trkpt lat="45.34723" lon="6.59217">
        <ele>1978.2</ele>
        <time>2021-01-01T11:14:08Z</time>
      </trkpt>
      <trkpt lat="45.34721" lon="6.59216">
        <ele>1976.4</ele>
        <time>2021-01-01T11:14:13Z</time>
      </trkpt>
      <trkpt lat="45.3472" lon="6.59215">
        <ele>1977.2</ele>
        <time>2021-01-01T11:14:28Z</time>
      </trkpt>
      <trkpt lat="45.34717" lon="6.59215">
        <ele>1977.2</ele>
        <time>2021-01-01T11:14:33Z</time>
      </trkpt>
      <trkpt lat="45.34715" lon="6.59215">
        <ele>1978.2</ele>
        <time>2021-01-01T11:14:38Z</time>
      </trkpt>
      <trkpt lat="45.34713" lon="6.59214">
        <ele>1979.8</ele>
        <time>2021-01-01T11:14:43Z</time>
      </trkpt>
      <trkpt lat="45.34711" lon="6.59212">
        <ele>1979.2</ele>
        <time>2021-01-01T11:14:48Z</time>
      </trkpt>
      <trkpt lat="45.34709" lon="6.59211">
        <ele>1981</ele>
        <time>2021-01-01T11:14:53Z</time>
      </trkpt>
      <trkpt lat="45.34706" lon="6.5921">
        <ele>1977.8</ele>
        <time>2021-01-01T11:14:58Z</time>
      </trkpt>
      <trkpt lat="45.34704" lon="6.59208">
        <ele>1982.8</ele>
        <time>2021-01-01T11:15:03Z</time>
      </trkpt>
      <trkpt lat="45.34701" lon="6.59207">
        <ele>1982</ele>
        <time>2021-01-01T11:15:08Z</time>
      </trkpt>
      <trkpt lat="45.34699" lon="6.59206">
        <ele>1982.2</ele>
        <time>2021-01-01T11:15:13Z</time>
      </trkpt>
      <trkpt lat="45.34697" lon="6.59204">
        <ele>1983.8</ele>
        <time>2021-01-01T11:15:18Z</time>
      </trkpt>
      <trkpt lat="45.34694" lon="6.59203">
        <ele>1983</ele>
        <time>2021-01-01T11:15:23Z</time>
      </trkpt>
      <trkpt lat="45.34692" lon="6.59201">
        <ele>1983.8</ele>
        <time>2021-01-01T11:15:28Z</time>
      </trkpt>
      <trkpt lat="45.3469" lon="6.592">
        <ele>1985.2</ele>
        <time>2021-01-01T11:15:33Z</time>
      </trkpt>
      <trkpt lat="45.34687" lon="6.59198">
        <ele>1983.2</ele>
        <time>2021-01-01T11:15:38Z</time>
      </trkpt>
      <trkpt lat="45.34685" lon="6.59196">
        <ele>1984.8</ele>
        <time>2021-01-01T11:15:43Z</time>
      </trkpt>
      <trkpt lat="45.34682" lon="6.59195">
        <ele>1984.4</ele>
        <time>2021-01-01T11:15:48Z</time>
      </trkpt>
      <trkpt lat="45.34682" lon="6.59194">
        <ele>1985.2</ele>
        <time>2021-01-01T11:16:23Z</time>
      </trkpt>
      <trkpt lat="45.34681" lon="6.59193">
        <ele>1986.8</ele>
        <time>2021-01-01T11:16:33Z</time>
      </trkpt>
      <trkpt lat="45.34679" lon="6.59191">
        <ele>1984.8</ele>
        <time>2021-01-01T11:16:38Z</time>
      </trkpt>
      <trkpt lat="45.34676" lon="6.59189">
        <ele>1986.8</ele>
        <time>2021-01-01T11:16:43Z</time>
      </trkpt>
      <trkpt lat="45.34674" lon="6.59188">
        <ele>1986.2</ele>
        <time>2021-01-01T11:16:48Z</time>
      </trkpt>
      <trkpt lat="45.34672" lon="6.59185">
        <ele>1985.6</ele>
        <time>2021-01-01T11:16:53Z</time>
      </trkpt>
      <trkpt lat="45.34671" lon="6.59183">
        <ele>1987</ele>
        <time>2021-01-01T11:16:58Z</time>
      </trkpt>
      <trkpt lat="45.34669" lon="6.5918">
        <ele>1988.2</ele>
        <time>2021-01-01T11:17:03Z</time>
      </trkpt>
      <trkpt lat="45.34667" lon="6.59177">
        <ele>1987</ele>
        <time>2021-01-01T11:17:08Z</time>
      </trkpt>
      <trkpt lat="45.34666" lon="6.59175">
        <ele>1993.4</ele>
        <time>2021-01-01T11:17:13Z</time>
      </trkpt>
      <trkpt lat="45.34664" lon="6.59172">
        <ele>1986.8</ele>
        <time>2021-01-01T11:17:18Z</time>
      </trkpt>
      <trkpt lat="45.34662" lon="6.5917">
        <ele>1990.6</ele>
        <time>2021-01-01T11:17:23Z</time>
      </trkpt>
      <trkpt lat="45.34659" lon="6.59168">
        <ele>1989.2</ele>
        <time>2021-01-01T11:17:28Z</time>
      </trkpt>
      <trkpt lat="45.34656" lon="6.59168">
        <ele>1988.6</ele>
        <time>2021-01-01T11:17:33Z</time>
      </trkpt>
      <trkpt lat="45.34654" lon="6.59167">
        <ele>1991.2</ele>
        <time>2021-01-01T11:17:38Z</time>
      </trkpt>
      <trkpt lat="45.34651" lon="6.59167">
        <ele>1994.4</ele>
        <time>2021-01-01T11:17:43Z</time>
      </trkpt>
      <trkpt lat="45.34649" lon="6.59166">
        <ele>1995</ele>
        <time>2021-01-01T11:17:48Z</time>
      </trkpt>
      <trkpt lat="45.34647" lon="6.59165">
        <ele>1994.8</ele>
        <time>2021-01-01T11:17:53Z</time>
      </trkpt>
      <trkpt lat="45.34645" lon="6.59165">
        <ele>1996.8</ele>
        <time>2021-01-01T11:17:58Z</time>
      </trkpt>
      <trkpt lat="45.34643" lon="6.59164">
        <ele>1998</ele>
        <time>2021-01-01T11:18:03Z</time>
      </trkpt>
      <trkpt lat="45.34641" lon="6.59162">
        <ele>1997.6</ele>
        <time>2021-01-01T11:18:08Z</time>
      </trkpt>
      <trkpt lat="45.3464" lon="6.59159">
        <ele>1995.4</ele>
        <time>2021-01-01T11:18:13Z</time>
      </trkpt>
      <trkpt lat="45.34638" lon="6.59157">
        <ele>1997.6</ele>
        <time>2021-01-01T11:18:18Z</time>
      </trkpt>
      <trkpt lat="45.34636" lon="6.59159">
        <ele>1998</ele>
        <time>2021-01-01T11:18:23Z</time>
      </trkpt>
      <trkpt lat="45.34634" lon="6.59161">
        <ele>2000.6</ele>
        <time>2021-01-01T11:18:28Z</time>
      </trkpt>
      <trkpt lat="45.34632" lon="6.59163">
        <ele>2001.6</ele>
        <time>2021-01-01T11:18:33Z</time>
      </trkpt>
      <trkpt lat="45.3463" lon="6.59166">
        <ele>1998.4</ele>
        <time>2021-01-01T11:18:38Z</time>
      </trkpt>
      <trkpt lat="45.34629" lon="6.59168">
        <ele>1999.6</ele>
        <time>2021-01-01T11:18:43Z</time>
      </trkpt>
      <trkpt lat="45.34627" lon="6.5917">
        <ele>2000.2</ele>
        <time>2021-01-01T11:18:48Z</time>
      </trkpt>
      <trkpt lat="45.34625" lon="6.59172">
        <ele>2002.4</ele>
        <time>2021-01-01T11:18:53Z</time>
      </trkpt>
      <trkpt lat="45.34623" lon="6.59174">
        <ele>2003.6</ele>
        <time>2021-01-01T11:18:58Z</time>
      </trkpt>
      <trkpt lat="45.34621" lon="6.59176">
        <ele>2004.8</ele>
        <time>2021-01-01T11:19:03Z</time>
      </trkpt>
      <trkpt lat="45.34619" lon="6.59178">
        <ele>2007.2</ele>
        <time>2021-01-01T11:19:08Z</time>
      </trkpt>
      <trkpt lat="45.34617" lon="6.5918">
        <ele>2008.6</ele>
        <time>2021-01-01T11:19:13Z</time>
      </trkpt>
      <trkpt lat="45.34615" lon="6.59182">
        <ele>2006.4</ele>
        <time>2021-01-01T11:19:19Z</time>
      </trkpt>
      <trkpt lat="45.34612" lon="6.59184">
        <ele>2010</ele>
        <time>2021-01-01T11:19:25Z</time>
      </trkpt>
      <trkpt lat="45.3461" lon="6.59186">
        <ele>2009.6</ele>
        <time>2021-01-01T11:19:30Z</time>
      </trkpt>
      <trkpt lat="45.34607" lon="6.59187">
        <ele>2010</ele>
        <time>2021-01-01T11:19:35Z</time>
      </trkpt>
      <trkpt lat="45.34605" lon="6.59187">
        <ele>2011.2</ele>
        <time>2021-01-01T11:19:40Z</time>
      </trkpt>
      <trkpt lat="45.34603" lon="6.59186">
        <ele>2012.8</ele>
        <time>2021-01-01T11:19:45Z</time>
      </trkpt>
      <trkpt lat="45.34601" lon="6.59184">
        <ele>2013.2</ele>
        <time>2021-01-01T11:19:50Z</time>
      </trkpt>
      <trkpt lat="45.34599" lon="6.59184">
        <ele>2013.4</ele>
        <time>2021-01-01T11:19:55Z</time>
      </trkpt>
      <trkpt lat="45.34596" lon="6.59183">
        <ele>2016.8</ele>
        <time>2021-01-01T11:20:00Z</time>
      </trkpt>
      <trkpt lat="45.34594" lon="6.59179">
        <ele>2015</ele>
        <time>2021-01-01T11:20:05Z</time>
      </trkpt>
      <trkpt lat="45.34592" lon="6.59177">
        <ele>2016</ele>
        <time>2021-01-01T11:20:10Z</time>
      </trkpt>
      <trkpt lat="45.34591" lon="6.59176">
        <ele>2016.2</ele>
        <time>2021-01-01T11:20:15Z</time>
      </trkpt>
      <trkpt lat="45.34589" lon="6.59174">
        <ele>2013</ele>
        <time>2021-01-01T11:20:20Z</time>
      </trkpt>
      <trkpt lat="45.34586" lon="6.59172">
        <ele>2016</ele>
        <time>2021-01-01T11:20:25Z</time>
      </trkpt>
      <trkpt lat="45.34584" lon="6.59169">
        <ele>2014.6</ele>
        <time>2021-01-01T11:20:30Z</time>
      </trkpt>
      <trkpt lat="45.34581" lon="6.59167">
        <ele>2016.6</ele>
        <time>2021-01-01T11:20:35Z</time>
      </trkpt>
      <trkpt lat="45.34579" lon="6.59165">
        <ele>2016.8</ele>
        <time>2021-01-01T11:20:40Z</time>
      </trkpt>
      <trkpt lat="45.34576" lon="6.59162">
        <ele>2016.6</ele>
        <time>2021-01-01T11:20:45Z</time>
      </trkpt>
      <trkpt lat="45.34573" lon="6.59161">
        <ele>2020.6</ele>
        <time>2021-01-01T11:20:50Z</time>
      </trkpt>
      <trkpt lat="45.3457" lon="6.5916">
        <ele>2019.8</ele>
        <time>2021-01-01T11:20:55Z</time>
      </trkpt>
      <trkpt lat="45.34567" lon="6.59161">
        <ele>2020</ele>
        <time>2021-01-01T11:21:00Z</time>
      </trkpt>
      <trkpt lat="45.34565" lon="6.59162">
        <ele>2017.4</ele>
        <time>2021-01-01T11:21:05Z</time>
      </trkpt>
      <trkpt lat="45.34565" lon="6.59162">
        <ele>2018.8</ele>
        <time>2021-01-01T11:21:35Z</time>
      </trkpt>
      <trkpt lat="45.34562" lon="6.59163">
        <ele>2021.8</ele>
        <time>2021-01-01T11:21:40Z</time>
      </trkpt>
      <trkpt lat="45.34559" lon="6.59163">
        <ele>2020</ele>
        <time>2021-01-01T11:21:45Z</time>
      </trkpt>
      <trkpt lat="45.34556" lon="6.59164">
        <ele>2018.6</ele>
        <time>2021-01-01T11:21:50Z</time>
      </trkpt>
      <trkpt lat="45.34553" lon="6.59164">
        <ele>2019.4</ele>
        <time>2021-01-01T11:21:55Z</time>
      </trkpt>
      <trkpt lat="45.34549" lon="6.59164">
        <ele>2020.2</ele>
        <time>2021-01-01T11:22:00Z</time>
      </trkpt>
      <trkpt lat="45.34545" lon="6.59163">
        <ele>2018.6</ele>
        <time>2021-01-01T11:22:05Z</time>
      </trkpt>
      <trkpt lat="45.34544" lon="6.59163">
        <ele>2019.6</ele>
        <time>2021-01-01T11:22:10Z</time>
      </trkpt>
      <trkpt lat="45.34542" lon="6.59162">
        <ele>2017.4</ele>
        <time>2021-01-01T11:22:15Z</time>
      </trkpt>
      <trkpt lat="45.34538" lon="6.59161">
        <ele>2020.6</ele>
        <time>2021-01-01T11:22:20Z</time>
      </trkpt>
      <trkpt lat="45.34534" lon="6.5916">
        <ele>2020.4</ele>
        <time>2021-01-01T11:22:25Z</time>
      </trkpt>
      <trkpt lat="45.3453" lon="6.59159">
        <ele>2018.4</ele>
        <time>2021-01-01T11:22:30Z</time>
      </trkpt>
      <trkpt lat="45.34526" lon="6.59158">
        <ele>2023.2</ele>
        <time>2021-01-01T11:22:35Z</time>
      </trkpt>
      <trkpt lat="45.34523" lon="6.59158">
        <ele>2022</ele>
        <time>2021-01-01T11:22:40Z</time>
      </trkpt>
      <trkpt lat="45.34519" lon="6.59157">
        <ele>2022.2</ele>
        <time>2021-01-01T11:22:45Z</time>
      </trkpt>
      <trkpt lat="45.34516" lon="6.59156">
        <ele>2020.4</ele>
        <time>2021-01-01T11:22:50Z</time>
      </trkpt>
      <trkpt lat="45.34512" lon="6.59155">
        <ele>2021.4</ele>
        <time>2021-01-01T11:22:55Z</time>
      </trkpt>
      <trkpt lat="45.34508" lon="6.59153">
        <ele>2022.4</ele>
        <time>2021-01-01T11:23:00Z</time>
      </trkpt>
      <trkpt lat="45.34505" lon="6.59151">
        <ele>2022.4</ele>
        <time>2021-01-01T11:23:05Z</time>
      </trkpt>
      <trkpt lat="45.345" lon="6.59148">
        <ele>2021</ele>
        <time>2021-01-01T11:23:10Z</time>
      </trkpt>
      <trkpt lat="45.34497" lon="6.59145">
        <ele>2022.6</ele>
        <time>2021-01-01T11:23:15Z</time>
      </trkpt>
      <trkpt lat="45.34493" lon="6.59143">
        <ele>2023</ele>
        <time>2021-01-01T11:23:20Z</time>
      </trkpt>
      <trkpt lat="45.34489" lon="6.5914">
        <ele>2022</ele>
        <time>2021-01-01T11:23:25Z</time>
      </trkpt>
      <trkpt lat="45.34485" lon="6.59137">
        <ele>2024.4</ele>
        <time>2021-01-01T11:23:30Z</time>
      </trkpt>
      <trkpt lat="45.34484" lon="6.59136">
        <ele>2023.4</ele>
        <time>2021-01-01T11:23:35Z</time>
      </trkpt>
      <trkpt lat="45.34484" lon="6.59135">
        <ele>2024.2</ele>
        <time>2021-01-01T11:26:21Z</time>
      </trkpt>
      <trkpt lat="45.34483" lon="6.59134">
        <ele>2022.4</ele>
        <time>2021-01-01T11:26:41Z</time>
      </trkpt>
      <trkpt lat="45.3448" lon="6.59131">
        <ele>2022.2</ele>
        <time>2021-01-01T11:26:46Z</time>
      </trkpt>
      <trkpt lat="45.34476" lon="6.59129">
        <ele>2024.6</ele>
        <time>2021-01-01T11:26:51Z</time>
      </trkpt>
      <trkpt lat="45.34473" lon="6.59127">
        <ele>2023.2</ele>
        <time>2021-01-01T11:26:56Z</time>
      </trkpt>
      <trkpt lat="45.34471" lon="6.59125">
        <ele>2023.8</ele>
        <time>2021-01-01T11:27:01Z</time>
      </trkpt>
      <trkpt lat="45.34468" lon="6.59123">
        <ele>2023.8</ele>
        <time>2021-01-01T11:27:06Z</time>
      </trkpt>
      <trkpt lat="45.34466" lon="6.59122">
        <ele>2022.2</ele>
        <time>2021-01-01T11:27:11Z</time>
      </trkpt>
      <trkpt lat="45.34463" lon="6.5912">
        <ele>2022.8</ele>
        <time>2021-01-01T11:27:16Z</time>
      </trkpt>
      <trkpt lat="45.34461" lon="6.59118">
        <ele>2023.8</ele>
        <time>2021-01-01T11:27:21Z</time>
      </trkpt>
      <trkpt lat="45.34459" lon="6.59117">
        <ele>2025.6</ele>
        <time>2021-01-01T11:27:26Z</time>
      </trkpt>
      <trkpt lat="45.34457" lon="6.59117">
        <ele>2026.6</ele>
        <time>2021-01-01T11:27:31Z</time>
      </trkpt>
      <trkpt lat="45.34454" lon="6.59116">
        <ele>2023.4</ele>
        <time>2021-01-01T11:27:36Z</time>
      </trkpt>
      <trkpt lat="45.34452" lon="6.59117">
        <ele>2025.8</ele>
        <time>2021-01-01T11:27:41Z</time>
      </trkpt>
      <trkpt lat="45.3445" lon="6.59116">
        <ele>2025</ele>
        <time>2021-01-01T11:27:46Z</time>
      </trkpt>
      <trkpt lat="45.34448" lon="6.59116">
        <ele>2023.4</ele>
        <time>2021-01-01T11:27:51Z</time>
      </trkpt>
      <trkpt lat="45.34446" lon="6.59116">
        <ele>2026.2</ele>
        <time>2021-01-01T11:27:56Z</time>
      </trkpt>
      <trkpt lat="45.34444" lon="6.59115">
        <ele>2023.2</ele>
        <time>2021-01-01T11:28:01Z</time>
      </trkpt>
      <trkpt lat="45.34442" lon="6.59114">
        <ele>2025.8</ele>
        <time>2021-01-01T11:28:06Z</time>
      </trkpt>
      <trkpt lat="45.3444" lon="6.59113">
        <ele>2026</ele>
        <time>2021-01-01T11:28:11Z</time>
      </trkpt>
      <trkpt lat="45.3444" lon="6.5911">
        <ele>2024.6</ele>
        <time>2021-01-01T11:28:16Z</time>
      </trkpt>
      <trkpt lat="45.34439" lon="6.59107">
        <ele>2025.2</ele>
        <time>2021-01-01T11:28:21Z</time>
      </trkpt>
      <trkpt lat="45.34439" lon="6.59104">
        <ele>2028</ele>
        <time>2021-01-01T11:28:26Z</time>
      </trkpt>
      <trkpt lat="45.34439" lon="6.59102">
        <ele>2027.8</ele>
        <time>2021-01-01T11:28:31Z</time>
      </trkpt>
      <trkpt lat="45.34439" lon="6.59099">
        <ele>2031.4</ele>
        <time>2021-01-01T11:28:36Z</time>
      </trkpt>
      <trkpt lat="45.34439" lon="6.59095">
        <ele>2029</ele>
        <time>2021-01-01T11:28:41Z</time>
      </trkpt>
      <trkpt lat="45.34439" lon="6.59092">
        <ele>2031.2</ele>
        <time>2021-01-01T11:28:46Z</time>
      </trkpt>
      <trkpt lat="45.34438" lon="6.59088">
        <ele>2030.8</ele>
        <time>2021-01-01T11:28:51Z</time>
      </trkpt>
      <trkpt lat="45.34437" lon="6.59086">
        <ele>2029</ele>
        <time>2021-01-01T11:28:56Z</time>
      </trkpt>
      <trkpt lat="45.34435" lon="6.59085">
        <ele>2030.8</ele>
        <time>2021-01-01T11:29:01Z</time>
      </trkpt>
      <trkpt lat="45.34434" lon="6.59084">
        <ele>2031.6</ele>
        <time>2021-01-01T11:29:06Z</time>
      </trkpt>
      <trkpt lat="45.34432" lon="6.59082">
        <ele>2036</ele>
        <time>2021-01-01T11:29:11Z</time>
      </trkpt>
      <trkpt lat="45.3443" lon="6.5908">
        <ele>2037.4</ele>
        <time>2021-01-01T11:29:16Z</time>
      </trkpt>
      <trkpt lat="45.34429" lon="6.59078">
        <ele>2038.4</ele>
        <time>2021-01-01T11:29:21Z</time>
      </trkpt>
      <trkpt lat="45.34427" lon="6.59075">
        <ele>2038.6</ele>
        <time>2021-01-01T11:29:26Z</time>
      </trkpt>
      <trkpt lat="45.34426" lon="6.59072">
        <ele>2037.8</ele>
        <time>2021-01-01T11:29:31Z</time>
      </trkpt>
      <trkpt lat="45.34425" lon="6.59069">
        <ele>2038.8</ele>
        <time>2021-01-01T11:29:36Z</time>
      </trkpt>
      <trkpt lat="45.34424" lon="6.59065">
        <ele>2039.2</ele>
        <time>2021-01-01T11:29:41Z</time>
      </trkpt>
      <trkpt lat="45.34424" lon="6.59062">
        <ele>2038.8</ele>
        <time>2021-01-01T11:29:46Z</time>
      </trkpt>
      <trkpt lat="45.34424" lon="6.59058">
        <ele>2039.6</ele>
        <time>2021-01-01T11:29:51Z</time>
      </trkpt>
      <trkpt lat="45.34425" lon="6.59054">
        <ele>2043.4</ele>
        <time>2021-01-01T11:29:56Z</time>
      </trkpt>
      <trkpt lat="45.34425" lon="6.5905">
        <ele>2039.2</ele>
        <time>2021-01-01T11:30:01Z</time>
      </trkpt>
      <trkpt lat="45.34425" lon="6.59047">
        <ele>2040.8</ele>
        <time>2021-01-01T11:30:06Z</time>
      </trkpt>
      <trkpt lat="45.34425" lon="6.59043">
        <ele>2041.4</ele>
        <time>2021-01-01T11:30:11Z</time>
      </trkpt>
      <trkpt lat="45.34425" lon="6.5904">
        <ele>2041.8</ele>
        <time>2021-01-01T11:30:16Z</time>
      </trkpt>
      <trkpt lat="45.34425" lon="6.59036">
        <ele>2044.6</ele>
        <time>2021-01-01T11:30:21Z</time>
      </trkpt>
      <trkpt lat="45.34426" lon="6.59033">
        <ele>2046.4</ele>
        <time>2021-01-01T11:30:26Z</time>
      </trkpt>
      <trkpt lat="45.34426" lon="6.5903">
        <ele>2041.4</ele>
        <time>2021-01-01T11:30:31Z</time>
      </trkpt>
      <trkpt lat="45.34426" lon="6.59027">
        <ele>2046.2</ele>
        <time>2021-01-01T11:30:36Z</time>
      </trkpt>
      <trkpt lat="45.34427" lon="6.59024">
        <ele>2046</ele>
        <time>2021-01-01T11:30:41Z</time>
      </trkpt>
      <trkpt lat="45.34427" lon="6.5902">
        <ele>2045.2</ele>
        <time>2021-01-01T11:30:46Z</time>
      </trkpt>
      <trkpt lat="45.34428" lon="6.59017">
        <ele>2047.4</ele>
        <time>2021-01-01T11:30:51Z</time>
      </trkpt>
      <trkpt lat="45.34429" lon="6.59014">
        <ele>2043.8</ele>
        <time>2021-01-01T11:30:56Z</time>
      </trkpt>
      <trkpt lat="45.34429" lon="6.5901">
        <ele>2044.6</ele>
        <time>2021-01-01T11:31:01Z</time>
      </trkpt>
      <trkpt lat="45.3443" lon="6.59007">
        <ele>2048.8</ele>
        <time>2021-01-01T11:31:06Z</time>
      </trkpt>
      <trkpt lat="45.34431" lon="6.59005">
        <ele>2047.6</ele>
        <time>2021-01-01T11:31:11Z</time>
      </trkpt>
      <trkpt lat="45.34431" lon="6.59002">
        <ele>2048.6</ele>
        <time>2021-01-01T11:31:16Z</time>
      </trkpt>
      <trkpt lat="45.34431" lon="6.58999">
        <ele>2047.4</ele>
        <time>2021-01-01T11:31:21Z</time>
      </trkpt>
      <trkpt lat="45.34431" lon="6.58996">
        <ele>2048.4</ele>
        <time>2021-01-01T11:31:26Z</time>
      </trkpt>
      <trkpt lat="45.34431" lon="6.58993">
        <ele>2049.2</ele>
        <time>2021-01-01T11:31:31Z</time>
      </trkpt>
      <trkpt lat="45.3443" lon="6.5899">
        <ele>2049.8</ele>
        <time>2021-01-01T11:31:36Z</time>
      </trkpt>
      <trkpt lat="45.3443" lon="6.58988">
        <ele>2050.8</ele>
        <time>2021-01-01T11:31:41Z</time>
      </trkpt>
      <trkpt lat="45.34429" lon="6.58985">
        <ele>2052</ele>
        <time>2021-01-01T11:31:46Z</time>
      </trkpt>
      <trkpt lat="45.34428" lon="6.58982">
        <ele>2051.4</ele>
        <time>2021-01-01T11:31:51Z</time>
      </trkpt>
      <trkpt lat="45.34427" lon="6.58979">
        <ele>2055</ele>
        <time>2021-01-01T11:31:56Z</time>
      </trkpt>
      <trkpt lat="45.34426" lon="6.58976">
        <ele>2059.4</ele>
        <time>2021-01-01T11:32:01Z</time>
      </trkpt>
      <trkpt lat="45.34425" lon="6.58973">
        <ele>2058.8</ele>
        <time>2021-01-01T11:32:06Z</time>
      </trkpt>
      <trkpt lat="45.34424" lon="6.5897">
        <ele>2056</ele>
        <time>2021-01-01T11:32:11Z</time>
      </trkpt>
      <trkpt lat="45.34424" lon="6.58967">
        <ele>2056.8</ele>
        <time>2021-01-01T11:32:16Z</time>
      </trkpt>
      <trkpt lat="45.34425" lon="6.58965">
        <ele>2056.8</ele>
        <time>2021-01-01T11:32:21Z</time>
      </trkpt>
      <trkpt lat="45.34426" lon="6.58962">
        <ele>2057.4</ele>
        <time>2021-01-01T11:32:26Z</time>
      </trkpt>
      <trkpt lat="45.34428" lon="6.5896">
        <ele>2058.4</ele>
        <time>2021-01-01T11:32:31Z</time>
      </trkpt>
      <trkpt lat="45.34429" lon="6.58958">
        <ele>2063.2</ele>
        <time>2021-01-01T11:32:36Z</time>
      </trkpt>
      <trkpt lat="45.3443" lon="6.58955">
        <ele>2060.2</ele>
        <time>2021-01-01T11:32:41Z</time>
      </trkpt>
      <trkpt lat="45.34431" lon="6.58952">
        <ele>2064.6</ele>
        <time>2021-01-01T11:32:46Z</time>
      </trkpt>
      <trkpt lat="45.34432" lon="6.58949">
        <ele>2065.4</ele>
        <time>2021-01-01T11:32:51Z</time>
      </trkpt>
      <trkpt lat="45.34433" lon="6.58944">
        <ele>2070</ele>
        <time>2021-01-01T11:32:56Z</time>
      </trkpt>
      <trkpt lat="45.34433" lon="6.58941">
        <ele>2064.2</ele>
        <time>2021-01-01T11:33:01Z</time>
      </trkpt>
      <trkpt lat="45.34434" lon="6.58937">
        <ele>2066.8</ele>
        <time>2021-01-01T11:33:06Z</time>
      </trkpt>
      <trkpt lat="45.34434" lon="6.58935">
        <ele>2066.6</ele>
        <time>2021-01-01T11:33:11Z</time>
      </trkpt>
      <trkpt lat="45.34435" lon="6.58935">
        <ele>2064.8</ele>
        <time>2021-01-01T11:33:21Z</time>
      </trkpt>
      <trkpt lat="45.34435" lon="6.58933">
        <ele>2065.4</ele>
        <time>2021-01-01T11:33:26Z</time>
      </trkpt>
      <trkpt lat="45.34436" lon="6.5893">
        <ele>2065.2</ele>
        <time>2021-01-01T11:33:31Z</time>
      </trkpt>
      <trkpt lat="45.34436" lon="6.58927">
        <ele>2068.4</ele>
        <time>2021-01-01T11:33:36Z</time>
      </trkpt>
      <trkpt lat="45.34437" lon="6.58925">
        <ele>2064.4</ele>
        <time>2021-01-01T11:33:41Z</time>
      </trkpt>
      <trkpt lat="45.34437" lon="6.58921">
        <ele>2065</ele>
        <time>2021-01-01T11:33:46Z</time>
      </trkpt>
      <trkpt lat="45.34437" lon="6.58919">
        <ele>2067.4</ele>
        <time>2021-01-01T11:33:51Z</time>
      </trkpt>
      <trkpt lat="45.34438" lon="6.58916">
        <ele>2066.4</ele>
        <time>2021-01-01T11:33:56Z</time>
      </trkpt>
      <trkpt lat="45.34438" lon="6.58913">
        <ele>2071.8</ele>
        <time>2021-01-01T11:34:01Z</time>
      </trkpt>
      <trkpt lat="45.34439" lon="6.5891">
        <ele>2067</ele>
        <time>2021-01-01T11:34:06Z</time>
      </trkpt>
      <trkpt lat="45.34439" lon="6.58906">
        <ele>2068.8</ele>
        <time>2021-01-01T11:34:11Z</time>
      </trkpt>
      <trkpt lat="45.34439" lon="6.58903">
        <ele>2068.2</ele>
        <time>2021-01-01T11:34:16Z</time>
      </trkpt>
      <trkpt lat="45.3444" lon="6.589">
        <ele>2069.6</ele>
        <time>2021-01-01T11:34:21Z</time>
      </trkpt>
      <trkpt lat="45.3444" lon="6.58898">
        <ele>2070.4</ele>
        <time>2021-01-01T11:34:26Z</time>
      </trkpt>
      <trkpt lat="45.34441" lon="6.58895">
        <ele>2074.2</ele>
        <time>2021-01-01T11:34:31Z</time>
      </trkpt>
      <trkpt lat="45.34441" lon="6.58891">
        <ele>2073.2</ele>
        <time>2021-01-01T11:34:36Z</time>
      </trkpt>
      <trkpt lat="45.34441" lon="6.58888">
        <ele>2073.2</ele>
        <time>2021-01-01T11:34:41Z</time>
      </trkpt>
      <trkpt lat="45.3444" lon="6.58884">
        <ele>2074.2</ele>
        <time>2021-01-01T11:34:46Z</time>
      </trkpt>
      <trkpt lat="45.34439" lon="6.5888">
        <ele>2072.8</ele>
        <time>2021-01-01T11:34:51Z</time>
      </trkpt>
      <trkpt lat="45.34438" lon="6.58877">
        <ele>2073.8</ele>
        <time>2021-01-01T11:34:56Z</time>
      </trkpt>
      <trkpt lat="45.34438" lon="6.58873">
        <ele>2074.2</ele>
        <time>2021-01-01T11:35:01Z</time>
      </trkpt>
      <trkpt lat="45.34437" lon="6.58871">
        <ele>2075.2</ele>
        <time>2021-01-01T11:35:06Z</time>
      </trkpt>
      <trkpt lat="45.34436" lon="6.58868">
        <ele>2070.8</ele>
        <time>2021-01-01T11:35:11Z</time>
      </trkpt>
      <trkpt lat="45.34434" lon="6.58865">
        <ele>2076.6</ele>
        <time>2021-01-01T11:35:16Z</time>
      </trkpt>
      <trkpt lat="45.34432" lon="6.58863">
        <ele>2074.2</ele>
        <time>2021-01-01T11:35:21Z</time>
      </trkpt>
      <trkpt lat="45.3443" lon="6.58861">
        <ele>2077</ele>
        <time>2021-01-01T11:35:26Z</time>
      </trkpt>
      <trkpt lat="45.34429" lon="6.58858">
        <ele>2076.2</ele>
        <time>2021-01-01T11:35:31Z</time>
      </trkpt>
      <trkpt lat="45.34427" lon="6.58856">
        <ele>2079.2</ele>
        <time>2021-01-01T11:35:36Z</time>
      </trkpt>
      <trkpt lat="45.34425" lon="6.58854">
        <ele>2081.2</ele>
        <time>2021-01-01T11:35:41Z</time>
      </trkpt>
      <trkpt lat="45.34423" lon="6.58852">
        <ele>2078.8</ele>
        <time>2021-01-01T11:35:46Z</time>
      </trkpt>
      <trkpt lat="45.34421" lon="6.58851">
        <ele>2080.6</ele>
        <time>2021-01-01T11:35:51Z</time>
      </trkpt>
      <trkpt lat="45.34419" lon="6.5885">
        <ele>2081</ele>
        <time>2021-01-01T11:35:56Z</time>
      </trkpt>
      <trkpt lat="45.34416" lon="6.58849">
        <ele>2084</ele>
        <time>2021-01-01T11:36:01Z</time>
      </trkpt>
      <trkpt lat="45.34414" lon="6.58848">
        <ele>2082</ele>
        <time>2021-01-01T11:36:06Z</time>
      </trkpt>
      <trkpt lat="45.34412" lon="6.58848">
        <ele>2085.6</ele>
        <time>2021-01-01T11:36:11Z</time>
      </trkpt>
      <trkpt lat="45.34409" lon="6.58848">
        <ele>2085.6</ele>
        <time>2021-01-01T11:36:16Z</time>
      </trkpt>
      <trkpt lat="45.34407" lon="6.58849">
        <ele>2087</ele>
        <time>2021-01-01T11:36:21Z</time>
      </trkpt>
      <trkpt lat="45.34405" lon="6.5885">
        <ele>2088.4</ele>
        <time>2021-01-01T11:36:26Z</time>
      </trkpt>
      <trkpt lat="45.34405" lon="6.58851">
        <ele>2087.8</ele>
        <time>2021-01-01T11:40:16Z</time>
      </trkpt>
      <trkpt lat="45.34403" lon="6.58852">
        <ele>2086.8</ele>
        <time>2021-01-01T11:40:21Z</time>
      </trkpt>
      <trkpt lat="45.344" lon="6.58854">
        <ele>2088.6</ele>
        <time>2021-01-01T11:40:26Z</time>
      </trkpt>
      <trkpt lat="45.34397" lon="6.58856">
        <ele>2088.2</ele>
        <time>2021-01-01T11:40:31Z</time>
      </trkpt>
      <trkpt lat="45.34394" lon="6.58858">
        <ele>2091</ele>
        <time>2021-01-01T11:40:36Z</time>
      </trkpt>
      <trkpt lat="45.34391" lon="6.5886">
        <ele>2092.6</ele>
        <time>2021-01-01T11:40:41Z</time>
      </trkpt>
      <trkpt lat="45.34388" lon="6.58862">
        <ele>2096</ele>
        <time>2021-01-01T11:40:46Z</time>
      </trkpt>
      <trkpt lat="45.34386" lon="6.58864">
        <ele>2093.8</ele>
        <time>2021-01-01T11:40:51Z</time>
      </trkpt>
      <trkpt lat="45.34383" lon="6.58867">
        <ele>2093.4</ele>
        <time>2021-01-01T11:40:56Z</time>
      </trkpt>
      <trkpt lat="45.34381" lon="6.58869">
        <ele>2097.6</ele>
        <time>2021-01-01T11:41:01Z</time>
      </trkpt>
      <trkpt lat="45.34378" lon="6.58871">
        <ele>2097.6</ele>
        <time>2021-01-01T11:41:06Z</time>
      </trkpt>
      <trkpt lat="45.34376" lon="6.58873">
        <ele>2102.8</ele>
        <time>2021-01-01T11:41:11Z</time>
      </trkpt>
      <trkpt lat="45.34374" lon="6.58876">
        <ele>2097.4</ele>
        <time>2021-01-01T11:41:16Z</time>
      </trkpt>
      <trkpt lat="45.34372" lon="6.58878">
        <ele>2099.8</ele>
        <time>2021-01-01T11:41:21Z</time>
      </trkpt>
      <trkpt lat="45.3437" lon="6.5888">
        <ele>2100.4</ele>
        <time>2021-01-01T11:41:26Z</time>
      </trkpt>
      <trkpt lat="45.34368" lon="6.58882">
        <ele>2100.4</ele>
        <time>2021-01-01T11:41:31Z</time>
      </trkpt>
      <trkpt lat="45.34366" lon="6.58885">
        <ele>2099.4</ele>
        <time>2021-01-01T11:41:36Z</time>
      </trkpt>
      <trkpt lat="45.34364" lon="6.58887">
        <ele>2103.8</ele>
        <time>2021-01-01T11:41:41Z</time>
      </trkpt>
      <trkpt lat="45.34363" lon="6.58889">
        <ele>2102.6</ele>
        <time>2021-01-01T11:41:46Z</time>
      </trkpt>
      <trkpt lat="45.34361" lon="6.58891">
        <ele>2100</ele>
        <time>2021-01-01T11:41:51Z</time>
      </trkpt>
      <trkpt lat="45.34359" lon="6.58894">
        <ele>2103.4</ele>
        <time>2021-01-01T11:41:56Z</time>
      </trkpt>
      <trkpt lat="45.34357" lon="6.58896">
        <ele>2105.4</ele>
        <time>2021-01-01T11:42:01Z</time>
      </trkpt>
      <trkpt lat="45.34356" lon="6.58899">
        <ele>2104.4</ele>
        <time>2021-01-01T11:42:06Z</time>
      </trkpt>
      <trkpt lat="45.34354" lon="6.58901">
        <ele>2105.4</ele>
        <time>2021-01-01T11:42:11Z</time>
      </trkpt>
      <trkpt lat="45.34352" lon="6.58903">
        <ele>2104.4</ele>
        <time>2021-01-01T11:42:16Z</time>
      </trkpt>
      <trkpt lat="45.3435" lon="6.58905">
        <ele>2107.4</ele>
        <time>2021-01-01T11:42:21Z</time>
      </trkpt>
      <trkpt lat="45.34349" lon="6.58907">
        <ele>2106.8</ele>
        <time>2021-01-01T11:42:26Z</time>
      </trkpt>
      <trkpt lat="45.34347" lon="6.58909">
        <ele>2107.4</ele>
        <time>2021-01-01T11:42:31Z</time>
      </trkpt>
      <trkpt lat="45.34345" lon="6.58911">
        <ele>2107.8</ele>
        <time>2021-01-01T11:42:36Z</time>
      </trkpt>
      <trkpt lat="45.34343" lon="6.58912">
        <ele>2107.8</ele>
        <time>2021-01-01T11:42:41Z</time>
      </trkpt>
      <trkpt lat="45.34342" lon="6.58914">
        <ele>2112</ele>
        <time>2021-01-01T11:42:46Z</time>
      </trkpt>
      <trkpt lat="45.3434" lon="6.58916">
        <ele>2112</ele>
        <time>2021-01-01T11:42:51Z</time>
      </trkpt>
      <trkpt lat="45.34338" lon="6.58918">
        <ele>2111.4</ele>
        <time>2021-01-01T11:42:56Z</time>
      </trkpt>
      <trkpt lat="45.34336" lon="6.58921">
        <ele>2111.6</ele>
        <time>2021-01-01T11:43:01Z</time>
      </trkpt>
      <trkpt lat="45.34335" lon="6.58923">
        <ele>2110.2</ele>
        <time>2021-01-01T11:43:06Z</time>
      </trkpt>
      <trkpt lat="45.34333" lon="6.58925">
        <ele>2113.2</ele>
        <time>2021-01-01T11:43:11Z</time>
      </trkpt>
      <trkpt lat="45.34331" lon="6.58927">
        <ele>2111.6</ele>
        <time>2021-01-01T11:43:16Z</time>
      </trkpt>
      <trkpt lat="45.34329" lon="6.58929">
        <ele>2114</ele>
        <time>2021-01-01T11:43:21Z</time>
      </trkpt>
      <trkpt lat="45.34327" lon="6.58931">
        <ele>2117.2</ele>
        <time>2021-01-01T11:43:26Z</time>
      </trkpt>
      <trkpt lat="45.34325" lon="6.58934">
        <ele>2114.4</ele>
        <time>2021-01-01T11:43:31Z</time>
      </trkpt>
      <trkpt lat="45.34322" lon="6.58935">
        <ele>2114.2</ele>
        <time>2021-01-01T11:43:36Z</time>
      </trkpt>
      <trkpt lat="45.3432" lon="6.58938">
        <ele>2117</ele>
        <time>2021-01-01T11:43:41Z</time>
      </trkpt>
      <trkpt lat="45.34318" lon="6.5894">
        <ele>2115</ele>
        <time>2021-01-01T11:43:46Z</time>
      </trkpt>
      <trkpt lat="45.34315" lon="6.58943">
        <ele>2115</ele>
        <time>2021-01-01T11:43:51Z</time>
      </trkpt>
      <trkpt lat="45.34313" lon="6.58945">
        <ele>2117.2</ele>
        <time>2021-01-01T11:43:56Z</time>
      </trkpt>
      <trkpt lat="45.3431" lon="6.58947">
        <ele>2120.6</ele>
        <time>2021-01-01T11:44:01Z</time>
      </trkpt>
      <trkpt lat="45.34308" lon="6.58949">
        <ele>2117.4</ele>
        <time>2021-01-01T11:44:06Z</time>
      </trkpt>
      <trkpt lat="45.34307" lon="6.5895">
        <ele>2120</ele>
        <time>2021-01-01T11:44:11Z</time>
      </trkpt>
      <trkpt lat="45.34306" lon="6.58951">
        <ele>2118.6</ele>
        <time>2021-01-01T11:44:26Z</time>
      </trkpt>
      <trkpt lat="45.34305" lon="6.58953">
        <ele>2118.8</ele>
        <time>2021-01-01T11:44:31Z</time>
      </trkpt>
      <trkpt lat="45.34303" lon="6.58955">
        <ele>2119.8</ele>
        <time>2021-01-01T11:44:36Z</time>
      </trkpt>
      <trkpt lat="45.343" lon="6.58957">
        <ele>2118.8</ele>
        <time>2021-01-01T11:44:41Z</time>
      </trkpt>
      <trkpt lat="45.34297" lon="6.58959">
        <ele>2118.6</ele>
        <time>2021-01-01T11:44:46Z</time>
      </trkpt>
      <trkpt lat="45.34294" lon="6.58962">
        <ele>2119</ele>
        <time>2021-01-01T11:44:51Z</time>
      </trkpt>
      <trkpt lat="45.3429" lon="6.58965">
        <ele>2120.4</ele>
        <time>2021-01-01T11:44:56Z</time>
      </trkpt>
      <trkpt lat="45.34286" lon="6.58967">
        <ele>2119.8</ele>
        <time>2021-01-01T11:45:01Z</time>
      </trkpt>
      <trkpt lat="45.34282" lon="6.5897">
        <ele>2120.4</ele>
        <time>2021-01-01T11:45:06Z</time>
      </trkpt>
      <trkpt lat="45.34277" lon="6.58972">
        <ele>2121.8</ele>
        <time>2021-01-01T11:45:11Z</time>
      </trkpt>
      <trkpt lat="45.34272" lon="6.58973">
        <ele>2120.2</ele>
        <time>2021-01-01T11:45:16Z</time>
      </trkpt>
      <trkpt lat="45.34267" lon="6.58974">
        <ele>2122.2</ele>
        <time>2021-01-01T11:45:21Z</time>
      </trkpt>
      <trkpt lat="45.34263" lon="6.58975">
        <ele>2124</ele>
        <time>2021-01-01T11:45:26Z</time>
      </trkpt>
      <trkpt lat="45.34259" lon="6.58974">
        <ele>2120.4</ele>
        <time>2021-01-01T11:45:31Z</time>
      </trkpt>
      <trkpt lat="45.34254" lon="6.58974">
        <ele>2120.8</ele>
        <time>2021-01-01T11:45:36Z</time>
      </trkpt>
      <trkpt lat="45.3425" lon="6.58974">
        <ele>2124</ele>
        <time>2021-01-01T11:45:41Z</time>
      </trkpt>
      <trkpt lat="45.34245" lon="6.58974">
        <ele>2123.6</ele>
        <time>2021-01-01T11:45:46Z</time>
      </trkpt>
      <trkpt lat="45.3424" lon="6.58973">
        <ele>2124.2</ele>
        <time>2021-01-01T11:45:51Z</time>
      </trkpt>
      <trkpt lat="45.34236" lon="6.58971">
        <ele>2121.8</ele>
        <time>2021-01-01T11:45:56Z</time>
      </trkpt>
      <trkpt lat="45.34233" lon="6.5897">
        <ele>2122.4</ele>
        <time>2021-01-01T11:46:01Z</time>
      </trkpt>
      <trkpt lat="45.34232" lon="6.58969">
        <ele>2124.4</ele>
        <time>2021-01-01T11:46:11Z</time>
      </trkpt>
      <trkpt lat="45.34231" lon="6.58969">
        <ele>2124.6</ele>
        <time>2021-01-01T11:46:26Z</time>
      </trkpt>
      <trkpt lat="45.3423" lon="6.58969">
        <ele>2124</ele>
        <time>2021-01-01T11:47:11Z</time>
      </trkpt>
      <trkpt lat="45.34227" lon="6.58967">
        <ele>2124</ele>
        <time>2021-01-01T11:47:16Z</time>
      </trkpt>
      <trkpt lat="45.34222" lon="6.58966">
        <ele>2126.2</ele>
        <time>2021-01-01T11:47:21Z</time>
      </trkpt>
      <trkpt lat="45.34218" lon="6.58965">
        <ele>2123.2</ele>
        <time>2021-01-01T11:47:26Z</time>
      </trkpt>
      <trkpt lat="45.34213" lon="6.58964">
        <ele>2123.2</ele>
        <time>2021-01-01T11:47:31Z</time>
      </trkpt>
      <trkpt lat="45.34208" lon="6.58964">
        <ele>2124</ele>
        <time>2021-01-01T11:47:36Z</time>
      </trkpt>
      <trkpt lat="45.34202" lon="6.58963">
        <ele>2122.4</ele>
        <time>2021-01-01T11:47:41Z</time>
      </trkpt>
      <trkpt lat="45.34197" lon="6.58963">
        <ele>2125.2</ele>
        <time>2021-01-01T11:47:46Z</time>
      </trkpt>
      <trkpt lat="45.34192" lon="6.58963">
        <ele>2127</ele>
        <time>2021-01-01T11:47:51Z</time>
      </trkpt>
      <trkpt lat="45.34187" lon="6.58962">
        <ele>2126.6</ele>
        <time>2021-01-01T11:47:56Z</time>
      </trkpt>
      <trkpt lat="45.34182" lon="6.58962">
        <ele>2123.8</ele>
        <time>2021-01-01T11:48:01Z</time>
      </trkpt>
      <trkpt lat="45.34176" lon="6.58961">
        <ele>2125.6</ele>
        <time>2021-01-01T11:48:06Z</time>
      </trkpt>
      <trkpt lat="45.3417" lon="6.5896">
        <ele>2123.2</ele>
        <time>2021-01-01T11:48:11Z</time>
      </trkpt>
      <trkpt lat="45.34163" lon="6.5896">
        <ele>2127</ele>
        <time>2021-01-01T11:48:16Z</time>
      </trkpt>
      <trkpt lat="45.34158" lon="6.58959">
        <ele>2126</ele>
        <time>2021-01-01T11:48:21Z</time>
      </trkpt>
      <trkpt lat="45.34153" lon="6.58957">
        <ele>2123.8</ele>
        <time>2021-01-01T11:48:26Z</time>
      </trkpt>
      <trkpt lat="45.34148" lon="6.58956">
        <ele>2121.2</ele>
        <time>2021-01-01T11:48:31Z</time>
      </trkpt>
      <trkpt lat="45.34143" lon="6.58954">
        <ele>2123.8</ele>
        <time>2021-01-01T11:48:36Z</time>
      </trkpt>
      <trkpt lat="45.34136" lon="6.58952">
        <ele>2120.8</ele>
        <time>2021-01-01T11:48:41Z</time>
      </trkpt>
      <trkpt lat="45.34129" lon="6.58949">
        <ele>2121.2</ele>
        <time>2021-01-01T11:48:46Z</time>
      </trkpt>
      <trkpt lat="45.34121" lon="6.58946">
        <ele>2122.4</ele>
        <time>2021-01-01T11:48:51Z</time>
      </trkpt>
      <trkpt lat="45.34114" lon="6.58943">
        <ele>2121</ele>
        <time>2021-01-01T11:48:56Z</time>
      </trkpt>
      <trkpt lat="45.34108" lon="6.5894">
        <ele>2120.4</ele>
        <time>2021-01-01T11:49:01Z</time>
      </trkpt>
      <trkpt lat="45.34104" lon="6.58937">
        <ele>2120.8</ele>
        <time>2021-01-01T11:49:06Z</time>
      </trkpt>
      <trkpt lat="45.34099" lon="6.58933">
        <ele>2118.6</ele>
        <time>2021-01-01T11:49:11Z</time>
      </trkpt>
      <trkpt lat="45.34095" lon="6.58929">
        <ele>2124.8</ele>
        <time>2021-01-01T11:49:16Z</time>
      </trkpt>
      <trkpt lat="45.34091" lon="6.58924">
        <ele>2121</ele>
        <time>2021-01-01T11:49:21Z</time>
      </trkpt>
      <trkpt lat="45.34087" lon="6.58918">
        <ele>2121.8</ele>
        <time>2021-01-01T11:49:26Z</time>
      </trkpt>
      <trkpt lat="45.34084" lon="6.58913">
        <ele>2122</ele>
        <time>2021-01-01T11:49:31Z</time>
      </trkpt>
      <trkpt lat="45.3408" lon="6.58908">
        <ele>2121.4</ele>
        <time>2021-01-01T11:49:36Z</time>
      </trkpt>
      <trkpt lat="45.34077" lon="6.58904">
        <ele>2121.6</ele>
        <time>2021-01-01T11:49:41Z</time>
      </trkpt>
      <trkpt lat="45.34077" lon="6.58903">
        <ele>2122.2</ele>
        <time>2021-01-01T11:51:06Z</time>
      </trkpt>
      <trkpt lat="45.34077" lon="6.58902">
        <ele>2122</ele>
        <time>2021-01-01T11:54:01Z</time>
      </trkpt>
      <trkpt lat="45.34074" lon="6.58898">
        <ele>2124.2</ele>
        <time>2021-01-01T11:54:06Z</time>
      </trkpt>
      <trkpt lat="45.34068" lon="6.58892">
        <ele>2122.8</ele>
        <time>2021-01-01T11:54:11Z</time>
      </trkpt>
      <trkpt lat="45.34062" lon="6.58885">
        <ele>2122.6</ele>
        <time>2021-01-01T11:54:16Z</time>
      </trkpt>
      <trkpt lat="45.34057" lon="6.58878">
        <ele>2119</ele>
        <time>2021-01-01T11:54:21Z</time>
      </trkpt>
      <trkpt lat="45.34053" lon="6.58872">
        <ele>2121.2</ele>
        <time>2021-01-01T11:54:26Z</time>
      </trkpt>
      <trkpt lat="45.34048" lon="6.58866">
        <ele>2120.4</ele>
        <time>2021-01-01T11:54:31Z</time>
      </trkpt>
      <trkpt lat="45.34042" lon="6.58861">
        <ele>2122.4</ele>
        <time>2021-01-01T11:54:36Z</time>
      </trkpt>
      <trkpt lat="45.34038" lon="6.58858">
        <ele>2121.4</ele>
        <time>2021-01-01T11:54:41Z</time>
      </trkpt>
      <trkpt lat="45.34033" lon="6.58855">
        <ele>2124.6</ele>
        <time>2021-01-01T11:54:46Z</time>
      </trkpt>
      <trkpt lat="45.34028" lon="6.58852">
        <ele>2121.6</ele>
        <time>2021-01-01T11:54:51Z</time>
      </trkpt>
      <trkpt lat="45.34023" lon="6.5885">
        <ele>2120.2</ele>
        <time>2021-01-01T11:54:56Z</time>
      </trkpt>
      <trkpt lat="45.34018" lon="6.58848">
        <ele>2121.4</ele>
        <time>2021-01-01T11:55:01Z</time>
      </trkpt>
      <trkpt lat="45.34013" lon="6.58846">
        <ele>2121.6</ele>
        <time>2021-01-01T11:55:06Z</time>
      </trkpt>
      <trkpt lat="45.34007" lon="6.58845">
        <ele>2119.4</ele>
        <time>2021-01-01T11:55:11Z</time>
      </trkpt>
      <trkpt lat="45.34002" lon="6.58846">
        <ele>2120</ele>
        <time>2021-01-01T11:55:16Z</time>
      </trkpt>
      <trkpt lat="45.33997" lon="6.58846">
        <ele>2120</ele>
        <time>2021-01-01T11:55:21Z</time>
      </trkpt>
      <trkpt lat="45.33992" lon="6.58846">
        <ele>2121.8</ele>
        <time>2021-01-01T11:55:26Z</time>
      </trkpt>
      <trkpt lat="45.33987" lon="6.58846">
        <ele>2120.6</ele>
        <time>2021-01-01T11:55:31Z</time>
      </trkpt>
      <trkpt lat="45.33983" lon="6.58846">
        <ele>2122.2</ele>
        <time>2021-01-01T11:55:36Z</time>
      </trkpt>
      <trkpt lat="45.33978" lon="6.58846">
        <ele>2122.6</ele>
        <time>2021-01-01T11:55:41Z</time>
      </trkpt>
      <trkpt lat="45.33973" lon="6.58846">
        <ele>2123</ele>
        <time>2021-01-01T11:55:46Z</time>
      </trkpt>
      <trkpt lat="45.33969" lon="6.58845">
        <ele>2119.6</ele>
        <time>2021-01-01T11:55:51Z</time>
      </trkpt>
      <trkpt lat="45.33966" lon="6.58845">
        <ele>2123</ele>
        <time>2021-01-01T11:55:56Z</time>
      </trkpt>
      <trkpt lat="45.33962" lon="6.58844">
        <ele>2122</ele>
        <time>2021-01-01T11:56:01Z</time>
      </trkpt>
      <trkpt lat="45.33959" lon="6.58844">
        <ele>2121.2</ele>
        <time>2021-01-01T11:56:06Z</time>
      </trkpt>
      <trkpt lat="45.33956" lon="6.58843">
        <ele>2123.2</ele>
        <time>2021-01-01T11:56:11Z</time>
      </trkpt>
      <trkpt lat="45.33953" lon="6.58842">
        <ele>2120.2</ele>
        <time>2021-01-01T11:56:16Z</time>
      </trkpt>
      <trkpt lat="45.33949" lon="6.58842">
        <ele>2123</ele>
        <time>2021-01-01T11:56:21Z</time>
      </trkpt>
      <trkpt lat="45.33946" lon="6.58842">
        <ele>2123.6</ele>
        <time>2021-01-01T11:56:26Z</time>
      </trkpt>
      <trkpt lat="45.33942" lon="6.58841">
        <ele>2123.6</ele>
        <time>2021-01-01T11:56:31Z</time>
      </trkpt>
      <trkpt lat="45.33939" lon="6.5884">
        <ele>2123.2</ele>
        <time>2021-01-01T11:56:36Z</time>
      </trkpt>
      <trkpt lat="45.33935" lon="6.58839">
        <ele>2126.4</ele>
        <time>2021-01-01T11:56:41Z</time>
      </trkpt>
      <trkpt lat="45.33932" lon="6.58838">
        <ele>2125.6</ele>
        <time>2021-01-01T11:56:46Z</time>
      </trkpt>
      <trkpt lat="45.33929" lon="6.58836">
        <ele>2125.8</ele>
        <time>2021-01-01T11:56:51Z</time>
      </trkpt>
      <trkpt lat="45.33926" lon="6.58835">
        <ele>2128</ele>
        <time>2021-01-01T11:56:56Z</time>
      </trkpt>
      <trkpt lat="45.33923" lon="6.58834">
        <ele>2128.6</ele>
        <time>2021-01-01T11:57:01Z</time>
      </trkpt>
      <trkpt lat="45.3392" lon="6.58832">
        <ele>2130.6</ele>
        <time>2021-01-01T11:57:06Z</time>
      </trkpt>
      <trkpt lat="45.33916" lon="6.5883">
        <ele>2126.8</ele>
        <time>2021-01-01T11:57:11Z</time>
      </trkpt>
      <trkpt lat="45.33912" lon="6.58828">
        <ele>2130.2</ele>
        <time>2021-01-01T11:57:16Z</time>
      </trkpt>
      <trkpt lat="45.33907" lon="6.58827">
        <ele>2126.6</ele>
        <time>2021-01-01T11:57:21Z</time>
      </trkpt>
      <trkpt lat="45.33903" lon="6.58826">
        <ele>2129</ele>
        <time>2021-01-01T11:57:26Z</time>
      </trkpt>
      <trkpt lat="45.33899" lon="6.58825">
        <ele>2129.2</ele>
        <time>2021-01-01T11:57:31Z</time>
      </trkpt>
      <trkpt lat="45.33894" lon="6.58825">
        <ele>2129.6</ele>
        <time>2021-01-01T11:57:36Z</time>
      </trkpt>
      <trkpt lat="45.33888" lon="6.58824">
        <ele>2128.8</ele>
        <time>2021-01-01T11:57:41Z</time>
      </trkpt>
      <trkpt lat="45.33883" lon="6.58823">
        <ele>2130.2</ele>
        <time>2021-01-01T11:57:46Z</time>
      </trkpt>
      <trkpt lat="45.33879" lon="6.58823">
        <ele>2133.8</ele>
        <time>2021-01-01T11:57:51Z</time>
      </trkpt>
      <trkpt lat="45.33874" lon="6.58823">
        <ele>2130.8</ele>
        <time>2021-01-01T11:57:56Z</time>
      </trkpt>
      <trkpt lat="45.3387" lon="6.58823">
        <ele>2131.8</ele>
        <time>2021-01-01T11:58:01Z</time>
      </trkpt>
      <trkpt lat="45.33865" lon="6.58822">
        <ele>2131.8</ele>
        <time>2021-01-01T11:58:06Z</time>
      </trkpt>
      <trkpt lat="45.33861" lon="6.58822">
        <ele>2132.2</ele>
        <time>2021-01-01T11:58:11Z</time>
      </trkpt>
      <trkpt lat="45.33856" lon="6.58822">
        <ele>2133</ele>
        <time>2021-01-01T11:58:16Z</time>
      </trkpt>
      <trkpt lat="45.33851" lon="6.58824">
        <ele>2133</ele>
        <time>2021-01-01T11:58:21Z</time>
      </trkpt>
      <trkpt lat="45.33847" lon="6.58825">
        <ele>2133.8</ele>
        <time>2021-01-01T11:58:26Z</time>
      </trkpt>
      <trkpt lat="45.33842" lon="6.58825">
        <ele>2133.4</ele>
        <time>2021-01-01T11:58:31Z</time>
      </trkpt>
      <trkpt lat="45.33838" lon="6.58826">
        <ele>2132.8</ele>
        <time>2021-01-01T11:58:36Z</time>
      </trkpt>
      <trkpt lat="45.33834" lon="6.58828">
        <ele>2133</ele>
        <time>2021-01-01T11:58:41Z</time>
      </trkpt>
      <trkpt lat="45.33829" lon="6.5883">
        <ele>2134.4</ele>
        <time>2021-01-01T11:58:47Z</time>
      </trkpt>
      <trkpt lat="45.33824" lon="6.58833">
        <ele>2135</ele>
        <time>2021-01-01T11:58:52Z</time>
      </trkpt>
      <trkpt lat="45.33819" lon="6.58835">
        <ele>2136.8</ele>
        <time>2021-01-01T11:58:57Z</time>
      </trkpt>
      <trkpt lat="45.33814" lon="6.58837">
        <ele>2134.8</ele>
        <time>2021-01-01T11:59:02Z</time>
      </trkpt>
      <trkpt lat="45.33809" lon="6.58839">
        <ele>2135</ele>
        <time>2021-01-01T11:59:07Z</time>
      </trkpt>
      <trkpt lat="45.33804" lon="6.58839">
        <ele>2135.6</ele>
        <time>2021-01-01T11:59:12Z</time>
      </trkpt>
      <trkpt lat="45.33799" lon="6.5884">
        <ele>2134.6</ele>
        <time>2021-01-01T11:59:17Z</time>
      </trkpt>
      <trkpt lat="45.33795" lon="6.58839">
        <ele>2134.8</ele>
        <time>2021-01-01T11:59:22Z</time>
      </trkpt>
      <trkpt lat="45.3379" lon="6.58838">
        <ele>2131.8</ele>
        <time>2021-01-01T11:59:27Z</time>
      </trkpt>
      <trkpt lat="45.33786" lon="6.58838">
        <ele>2135.6</ele>
        <time>2021-01-01T11:59:32Z</time>
      </trkpt>
      <trkpt lat="45.33782" lon="6.58838">
        <ele>2134.8</ele>
        <time>2021-01-01T11:59:37Z</time>
      </trkpt>
      <trkpt lat="45.33778" lon="6.58839">
        <ele>2135.2</ele>
        <time>2021-01-01T11:59:42Z</time>
      </trkpt>
      <trkpt lat="45.33774" lon="6.58838">
        <ele>2134.2</ele>
        <time>2021-01-01T11:59:47Z</time>
      </trkpt>
      <trkpt lat="45.33769" lon="6.58837">
        <ele>2137.4</ele>
        <time>2021-01-01T11:59:52Z</time>
      </trkpt>
      <trkpt lat="45.33765" lon="6.58837">
        <ele>2134.8</ele>
        <time>2021-01-01T11:59:57Z</time>
      </trkpt>
      <trkpt lat="45.33762" lon="6.58835">
        <ele>2136.2</ele>
        <time>2021-01-01T12:00:02Z</time>
      </trkpt>
      <trkpt lat="45.33758" lon="6.58833">
        <ele>2134.8</ele>
        <time>2021-01-01T12:00:07Z</time>
      </trkpt>
      <trkpt lat="45.33753" lon="6.58832">
        <ele>2134</ele>
        <time>2021-01-01T12:00:12Z</time>
      </trkpt>
      <trkpt lat="45.33749" lon="6.58831">
        <ele>2136.4</ele>
        <time>2021-01-01T12:00:17Z</time>
      </trkpt>
      <trkpt lat="45.33745" lon="6.5883">
        <ele>2136.2</ele>
        <time>2021-01-01T12:00:22Z</time>
      </trkpt>
      <trkpt lat="45.3374" lon="6.58829">
        <ele>2137.2</ele>
        <time>2021-01-01T12:00:27Z</time>
      </trkpt>
      <trkpt lat="45.33736" lon="6.58828">
        <ele>2138</ele>
        <time>2021-01-01T12:00:32Z</time>
      </trkpt>
      <trkpt lat="45.33731" lon="6.58827">
        <ele>2138.8</ele>
        <time>2021-01-01T12:00:37Z</time>
      </trkpt>
      <trkpt lat="45.33726" lon="6.58826">
        <ele>2136.8</ele>
        <time>2021-01-01T12:00:42Z</time>
      </trkpt>
      <trkpt lat="45.33722" lon="6.58825">
        <ele>2137.6</ele>
        <time>2021-01-01T12:00:47Z</time>
      </trkpt>
      <trkpt lat="45.33717" lon="6.58823">
        <ele>2139.8</ele>
        <time>2021-01-01T12:00:53Z</time>
      </trkpt>
      <trkpt lat="45.33713" lon="6.58822">
        <ele>2139.2</ele>
        <time>2021-01-01T12:00:58Z</time>
      </trkpt>
      <trkpt lat="45.33708" lon="6.58822">
        <ele>2139.4</ele>
        <time>2021-01-01T12:01:03Z</time>
      </trkpt>
      <trkpt lat="45.33704" lon="6.58821">
        <ele>2138.4</ele>
        <time>2021-01-01T12:01:08Z</time>
      </trkpt>
      <trkpt lat="45.337" lon="6.5882">
        <ele>2140.4</ele>
        <time>2021-01-01T12:01:13Z</time>
      </trkpt>
      <trkpt lat="45.33695" lon="6.5882">
        <ele>2141.2</ele>
        <time>2021-01-01T12:01:18Z</time>
      </trkpt>
      <trkpt lat="45.33691" lon="6.58819">
        <ele>2137</ele>
        <time>2021-01-01T12:01:23Z</time>
      </trkpt>
      <trkpt lat="45.33687" lon="6.58819">
        <ele>2138.4</ele>
        <time>2021-01-01T12:01:28Z</time>
      </trkpt>
      <trkpt lat="45.33682" lon="6.58819">
        <ele>2138</ele>
        <time>2021-01-01T12:01:33Z</time>
      </trkpt>
      <trkpt lat="45.33678" lon="6.58818">
        <ele>2138.6</ele>
        <time>2021-01-01T12:01:38Z</time>
      </trkpt>
      <trkpt lat="45.33674" lon="6.58818">
        <ele>2140.8</ele>
        <time>2021-01-01T12:01:43Z</time>
      </trkpt>
      <trkpt lat="45.33671" lon="6.58818">
        <ele>2142.8</ele>
        <time>2021-01-01T12:01:48Z</time>
      </trkpt>
      <trkpt lat="45.33667" lon="6.58819">
        <ele>2142.2</ele>
        <time>2021-01-01T12:01:53Z</time>
      </trkpt>
      <trkpt lat="45.33664" lon="6.58818">
        <ele>2140</ele>
        <time>2021-01-01T12:01:58Z</time>
      </trkpt>
      <trkpt lat="45.33661" lon="6.58819">
        <ele>2138.8</ele>
        <time>2021-01-01T12:02:03Z</time>
      </trkpt>
      <trkpt lat="45.33657" lon="6.58819">
        <ele>2141.4</ele>
        <time>2021-01-01T12:02:08Z</time>
      </trkpt>
      <trkpt lat="45.33654" lon="6.58818">
        <ele>2142.2</ele>
        <time>2021-01-01T12:02:13Z</time>
      </trkpt>
      <trkpt lat="45.33651" lon="6.58817">
        <ele>2145.2</ele>
        <time>2021-01-01T12:02:18Z</time>
      </trkpt>
      <trkpt lat="45.33647" lon="6.58817">
        <ele>2143.8</ele>
        <time>2021-01-01T12:02:23Z</time>
      </trkpt>
      <trkpt lat="45.33643" lon="6.58817">
        <ele>2143.2</ele>
        <time>2021-01-01T12:02:28Z</time>
      </trkpt>
      <trkpt lat="45.33639" lon="6.58816">
        <ele>2143.4</ele>
        <time>2021-01-01T12:02:33Z</time>
      </trkpt>
      <trkpt lat="45.33635" lon="6.58815">
        <ele>2143</ele>
        <time>2021-01-01T12:02:38Z</time>
      </trkpt>
      <trkpt lat="45.33632" lon="6.58814">
        <ele>2143.4</ele>
        <time>2021-01-01T12:02:43Z</time>
      </trkpt>
      <trkpt lat="45.33628" lon="6.58813">
        <ele>2143</ele>
        <time>2021-01-01T12:02:48Z</time>
      </trkpt>
      <trkpt lat="45.33625" lon="6.58811">
        <ele>2144.4</ele>
        <time>2021-01-01T12:02:53Z</time>
      </trkpt>
      <trkpt lat="45.33622" lon="6.58809">
        <ele>2144.2</ele>
        <time>2021-01-01T12:02:58Z</time>
      </trkpt>
      <trkpt lat="45.33618" lon="6.58808">
        <ele>2146.4</ele>
        <time>2021-01-01T12:03:03Z</time>
      </trkpt>
      <trkpt lat="45.33615" lon="6.58806">
        <ele>2147.2</ele>
        <time>2021-01-01T12:03:08Z</time>
      </trkpt>
      <trkpt lat="45.33613" lon="6.58804">
        <ele>2149</ele>
        <time>2021-01-01T12:03:13Z</time>
      </trkpt>
      <trkpt lat="45.3361" lon="6.58801">
        <ele>2145.2</ele>
        <time>2021-01-01T12:03:18Z</time>
      </trkpt>
      <trkpt lat="45.33607" lon="6.58799">
        <ele>2149.8</ele>
        <time>2021-01-01T12:03:23Z</time>
      </trkpt>
      <trkpt lat="45.33605" lon="6.58797">
        <ele>2150.2</ele>
        <time>2021-01-01T12:03:28Z</time>
      </trkpt>
      <trkpt lat="45.33602" lon="6.58794">
        <ele>2149.4</ele>
        <time>2021-01-01T12:03:33Z</time>
      </trkpt>
      <trkpt lat="45.33598" lon="6.58792">
        <ele>2149</ele>
        <time>2021-01-01T12:03:38Z</time>
      </trkpt>
      <trkpt lat="45.33596" lon="6.5879">
        <ele>2152.4</ele>
        <time>2021-01-01T12:03:43Z</time>
      </trkpt>
      <trkpt lat="45.33593" lon="6.58788">
        <ele>2154.2</ele>
        <time>2021-01-01T12:03:48Z</time>
      </trkpt>
      <trkpt lat="45.3359" lon="6.58785">
        <ele>2151.4</ele>
        <time>2021-01-01T12:03:53Z</time>
      </trkpt>
      <trkpt lat="45.33588" lon="6.58782">
        <ele>2152.4</ele>
        <time>2021-01-01T12:03:58Z</time>
      </trkpt>
      <trkpt lat="45.33586" lon="6.58778">
        <ele>2151</ele>
        <time>2021-01-01T12:04:03Z</time>
      </trkpt>
      <trkpt lat="45.33583" lon="6.58775">
        <ele>2152.8</ele>
        <time>2021-01-01T12:04:08Z</time>
      </trkpt>
      <trkpt lat="45.3358" lon="6.58772">
        <ele>2154.4</ele>
        <time>2021-01-01T12:04:13Z</time>
      </trkpt>
      <trkpt lat="45.33578" lon="6.5877">
        <ele>2154.8</ele>
        <time>2021-01-01T12:04:18Z</time>
      </trkpt>
      <trkpt lat="45.33575" lon="6.58767">
        <ele>2152.6</ele>
        <time>2021-01-01T12:04:23Z</time>
      </trkpt>
      <trkpt lat="45.33572" lon="6.58765">
        <ele>2156.6</ele>
        <time>2021-01-01T12:04:28Z</time>
      </trkpt>
      <trkpt lat="45.3357" lon="6.58761">
        <ele>2156.2</ele>
        <time>2021-01-01T12:04:33Z</time>
      </trkpt>
      <trkpt lat="45.33568" lon="6.58759">
        <ele>2156.2</ele>
        <time>2021-01-01T12:04:38Z</time>
      </trkpt>
      <trkpt lat="45.33565" lon="6.58755">
        <ele>2158.6</ele>
        <time>2021-01-01T12:04:43Z</time>
      </trkpt>
      <trkpt lat="45.33563" lon="6.58752">
        <ele>2158.6</ele>
        <time>2021-01-01T12:04:48Z</time>
      </trkpt>
      <trkpt lat="45.33561" lon="6.58749">
        <ele>2157.8</ele>
        <time>2021-01-01T12:04:53Z</time>
      </trkpt>
      <trkpt lat="45.33559" lon="6.58746">
        <ele>2163</ele>
        <time>2021-01-01T12:04:58Z</time>
      </trkpt>
      <trkpt lat="45.33557" lon="6.58743">
        <ele>2160</ele>
        <time>2021-01-01T12:05:03Z</time>
      </trkpt>
      <trkpt lat="45.33554" lon="6.5874">
        <ele>2161</ele>
        <time>2021-01-01T12:05:08Z</time>
      </trkpt>
      <trkpt lat="45.33552" lon="6.58737">
        <ele>2158.8</ele>
        <time>2021-01-01T12:05:13Z</time>
      </trkpt>
      <trkpt lat="45.3355" lon="6.58733">
        <ele>2159.2</ele>
        <time>2021-01-01T12:05:18Z</time>
      </trkpt>
      <trkpt lat="45.33548" lon="6.58729">
        <ele>2159.4</ele>
        <time>2021-01-01T12:05:23Z</time>
      </trkpt>
      <trkpt lat="45.33546" lon="6.58726">
        <ele>2160.2</ele>
        <time>2021-01-01T12:05:28Z</time>
      </trkpt>
      <trkpt lat="45.33544" lon="6.58722">
        <ele>2163</ele>
        <time>2021-01-01T12:05:33Z</time>
      </trkpt>
      <trkpt lat="45.33542" lon="6.58719">
        <ele>2161.8</ele>
        <time>2021-01-01T12:05:38Z</time>
      </trkpt>
      <trkpt lat="45.3354" lon="6.58716">
        <ele>2158.8</ele>
        <time>2021-01-01T12:05:43Z</time>
      </trkpt>
      <trkpt lat="45.3354" lon="6.58715">
        <ele>2161.6</ele>
        <time>2021-01-01T12:05:48Z</time>
      </trkpt>
      <trkpt lat="45.3354" lon="6.58715">
        <ele>2162.6</ele>
        <time>2021-01-01T12:07:28Z</time>
      </trkpt>
      <trkpt lat="45.33539" lon="6.58713">
        <ele>2161.2</ele>
        <time>2021-01-01T12:07:33Z</time>
      </trkpt>
      <trkpt lat="45.33537" lon="6.58711">
        <ele>2161.2</ele>
        <time>2021-01-01T12:07:38Z</time>
      </trkpt>
      <trkpt lat="45.33535" lon="6.58707">
        <ele>2163</ele>
        <time>2021-01-01T12:07:43Z</time>
      </trkpt>
      <trkpt lat="45.33533" lon="6.58704">
        <ele>2162.6</ele>
        <time>2021-01-01T12:07:48Z</time>
      </trkpt>
      <trkpt lat="45.33531" lon="6.58701">
        <ele>2162.2</ele>
        <time>2021-01-01T12:07:53Z</time>
      </trkpt>
      <trkpt lat="45.33529" lon="6.58697">
        <ele>2163.2</ele>
        <time>2021-01-01T12:07:58Z</time>
      </trkpt>
      <trkpt lat="45.33527" lon="6.58694">
        <ele>2164.6</ele>
        <time>2021-01-01T12:08:03Z</time>
      </trkpt>
      <trkpt lat="45.33525" lon="6.5869">
        <ele>2162.6</ele>
        <time>2021-01-01T12:08:08Z</time>
      </trkpt>
      <trkpt lat="45.33524" lon="6.58687">
        <ele>2162.6</ele>
        <time>2021-01-01T12:08:13Z</time>
      </trkpt>
      <trkpt lat="45.33522" lon="6.58685">
        <ele>2167.4</ele>
        <time>2021-01-01T12:08:18Z</time>
      </trkpt>
      <trkpt lat="45.33521" lon="6.58682">
        <ele>2164.8</ele>
        <time>2021-01-01T12:08:23Z</time>
      </trkpt>
      <trkpt lat="45.33519" lon="6.58679">
        <ele>2164</ele>
        <time>2021-01-01T12:08:28Z</time>
      </trkpt>
      <trkpt lat="45.33517" lon="6.58677">
        <ele>2164.8</ele>
        <time>2021-01-01T12:08:33Z</time>
      </trkpt>
      <trkpt lat="45.33516" lon="6.58674">
        <ele>2165.4</ele>
        <time>2021-01-01T12:08:38Z</time>
      </trkpt>
      <trkpt lat="45.33514" lon="6.58673">
        <ele>2164.8</ele>
        <time>2021-01-01T12:08:43Z</time>
      </trkpt>
      <trkpt lat="45.33512" lon="6.58671">
        <ele>2167</ele>
        <time>2021-01-01T12:08:48Z</time>
      </trkpt>
      <trkpt lat="45.33511" lon="6.58669">
        <ele>2166.2</ele>
        <time>2021-01-01T12:08:53Z</time>
      </trkpt>
      <trkpt lat="45.3351" lon="6.58666">
        <ele>2167.6</ele>
        <time>2021-01-01T12:08:58Z</time>
      </trkpt>
      <trkpt lat="45.33509" lon="6.58663">
        <ele>2169.6</ele>
        <time>2021-01-01T12:09:03Z</time>
      </trkpt>
      <trkpt lat="45.33508" lon="6.58662">
        <ele>2170</ele>
        <time>2021-01-01T12:09:08Z</time>
      </trkpt>
      <trkpt lat="45.33507" lon="6.58659">
        <ele>2169</ele>
        <time>2021-01-01T12:09:13Z</time>
      </trkpt>
      <trkpt lat="45.33505" lon="6.58657">
        <ele>2167.8</ele>
        <time>2021-01-01T12:09:18Z</time>
      </trkpt>
      <trkpt lat="45.33504" lon="6.58655">
        <ele>2167.8</ele>
        <time>2021-01-01T12:09:23Z</time>
      </trkpt>
      <trkpt lat="45.33503" lon="6.58653">
        <ele>2170</ele>
        <time>2021-01-01T12:09:28Z</time>
      </trkpt>
      <trkpt lat="45.33502" lon="6.58651">
        <ele>2170.4</ele>
        <time>2021-01-01T12:09:33Z</time>
      </trkpt>
      <trkpt lat="45.33501" lon="6.58649">
        <ele>2175.6</ele>
        <time>2021-01-01T12:09:38Z</time>
      </trkpt>
      <trkpt lat="45.335" lon="6.58647">
        <ele>2178.4</ele>
        <time>2021-01-01T12:09:43Z</time>
      </trkpt>
      <trkpt lat="45.33499" lon="6.58645">
        <ele>2177.8</ele>
        <time>2021-01-01T12:09:48Z</time>
      </trkpt>
      <trkpt lat="45.33498" lon="6.58643">
        <ele>2180</ele>
        <time>2021-01-01T12:09:53Z</time>
      </trkpt>
      <trkpt lat="45.33497" lon="6.5864">
        <ele>2177.4</ele>
        <time>2021-01-01T12:09:58Z</time>
      </trkpt>
      <trkpt lat="45.33496" lon="6.58638">
        <ele>2174.4</ele>
        <time>2021-01-01T12:10:03Z</time>
      </trkpt>
      <trkpt lat="45.33495" lon="6.58636">
        <ele>2174.8</ele>
        <time>2021-01-01T12:10:08Z</time>
      </trkpt>
      <trkpt lat="45.33494" lon="6.58634">
        <ele>2176.8</ele>
        <time>2021-01-01T12:10:13Z</time>
      </trkpt>
      <trkpt lat="45.33493" lon="6.58632">
        <ele>2179.8</ele>
        <time>2021-01-01T12:10:18Z</time>
      </trkpt>
      <trkpt lat="45.33492" lon="6.5863">
        <ele>2178</ele>
        <time>2021-01-01T12:10:23Z</time>
      </trkpt>
      <trkpt lat="45.33491" lon="6.58627">
        <ele>2178</ele>
        <time>2021-01-01T12:10:28Z</time>
      </trkpt>
      <trkpt lat="45.3349" lon="6.58625">
        <ele>2178</ele>
        <time>2021-01-01T12:10:33Z</time>
      </trkpt>
      <trkpt lat="45.33489" lon="6.58622">
        <ele>2179.4</ele>
        <time>2021-01-01T12:10:38Z</time>
      </trkpt>
      <trkpt lat="45.33488" lon="6.5862">
        <ele>2182</ele>
        <time>2021-01-01T12:10:43Z</time>
      </trkpt>
      <trkpt lat="45.33487" lon="6.58617">
        <ele>2181</ele>
        <time>2021-01-01T12:10:48Z</time>
      </trkpt>
      <trkpt lat="45.33486" lon="6.58615">
        <ele>2181.8</ele>
        <time>2021-01-01T12:10:53Z</time>
      </trkpt>
      <trkpt lat="45.33485" lon="6.58612">
        <ele>2181.8</ele>
        <time>2021-01-01T12:10:58Z</time>
      </trkpt>
      <trkpt lat="45.33484" lon="6.5861">
        <ele>2181.4</ele>
        <time>2021-01-01T12:11:03Z</time>
      </trkpt>
      <trkpt lat="45.33484" lon="6.58608">
        <ele>2179.2</ele>
        <time>2021-01-01T12:11:08Z</time>
      </trkpt>
      <trkpt lat="45.33483" lon="6.58605">
        <ele>2181</ele>
        <time>2021-01-01T12:11:13Z</time>
      </trkpt>
      <trkpt lat="45.33483" lon="6.58604">
        <ele>2181.4</ele>
        <time>2021-01-01T12:11:23Z</time>
      </trkpt>
      <trkpt lat="45.33482" lon="6.58601">
        <ele>2180.4</ele>
        <time>2021-01-01T12:11:28Z</time>
      </trkpt>
      <trkpt lat="45.33481" lon="6.58599">
        <ele>2183</ele>
        <time>2021-01-01T12:11:33Z</time>
      </trkpt>
      <trkpt lat="45.3348" lon="6.58596">
        <ele>2184.2</ele>
        <time>2021-01-01T12:11:38Z</time>
      </trkpt>
      <trkpt lat="45.33479" lon="6.58593">
        <ele>2182.8</ele>
        <time>2021-01-01T12:11:43Z</time>
      </trkpt>
      <trkpt lat="45.33479" lon="6.58591">
        <ele>2181</ele>
        <time>2021-01-01T12:11:48Z</time>
      </trkpt>
      <trkpt lat="45.33478" lon="6.58589">
        <ele>2183.6</ele>
        <time>2021-01-01T12:11:53Z</time>
      </trkpt>
      <trkpt lat="45.33478" lon="6.58587">
        <ele>2184.4</ele>
        <time>2021-01-01T12:11:58Z</time>
      </trkpt>
      <trkpt lat="45.33477" lon="6.58585">
        <ele>2185</ele>
        <time>2021-01-01T12:12:03Z</time>
      </trkpt>
      <trkpt lat="45.33477" lon="6.58583">
        <ele>2184.4</ele>
        <time>2021-01-01T12:12:08Z</time>
      </trkpt>
      <trkpt lat="45.33476" lon="6.58581">
        <ele>2182</ele>
        <time>2021-01-01T12:12:13Z</time>
      </trkpt>
      <trkpt lat="45.33477" lon="6.58577">
        <ele>2186.8</ele>
        <time>2021-01-01T12:12:18Z</time>
      </trkpt>
      <trkpt lat="45.33477" lon="6.58574">
        <ele>2186.6</ele>
        <time>2021-01-01T12:12:23Z</time>
      </trkpt>
      <trkpt lat="45.33477" lon="6.58572">
        <ele>2185.8</ele>
        <time>2021-01-01T12:12:28Z</time>
      </trkpt>
      <trkpt lat="45.33474" lon="6.58571">
        <ele>2188.2</ele>
        <time>2021-01-01T12:12:33Z</time>
      </trkpt>
      <trkpt lat="45.33472" lon="6.58571">
        <ele>2191</ele>
        <time>2021-01-01T12:12:38Z</time>
      </trkpt>
      <trkpt lat="45.3347" lon="6.58571">
        <ele>2189.4</ele>
        <time>2021-01-01T12:12:43Z</time>
      </trkpt>
      <trkpt lat="45.33469" lon="6.5857">
        <ele>2191.2</ele>
        <time>2021-01-01T12:12:48Z</time>
      </trkpt>
      <trkpt lat="45.3347" lon="6.58567">
        <ele>2192.4</ele>
        <time>2021-01-01T12:12:53Z</time>
      </trkpt>
      <trkpt lat="45.33471" lon="6.58563">
        <ele>2192.8</ele>
        <time>2021-01-01T12:12:58Z</time>
      </trkpt>
      <trkpt lat="45.33471" lon="6.5856">
        <ele>2189</ele>
        <time>2021-01-01T12:13:03Z</time>
      </trkpt>
      <trkpt lat="45.33471" lon="6.58557">
        <ele>2191.4</ele>
        <time>2021-01-01T12:13:08Z</time>
      </trkpt>
      <trkpt lat="45.33471" lon="6.58554">
        <ele>2195.8</ele>
        <time>2021-01-01T12:13:13Z</time>
      </trkpt>
      <trkpt lat="45.3347" lon="6.58551">
        <ele>2194.2</ele>
        <time>2021-01-01T12:13:18Z</time>
      </trkpt>
      <trkpt lat="45.33469" lon="6.58548">
        <ele>2194.6</ele>
        <time>2021-01-01T12:13:23Z</time>
      </trkpt>
      <trkpt lat="45.33469" lon="6.58544">
        <ele>2196.2</ele>
        <time>2021-01-01T12:13:28Z</time>
      </trkpt>
      <trkpt lat="45.33467" lon="6.58541">
        <ele>2196.6</ele>
        <time>2021-01-01T12:13:33Z</time>
      </trkpt>
      <trkpt lat="45.33466" lon="6.58538">
        <ele>2197</ele>
        <time>2021-01-01T12:13:38Z</time>
      </trkpt>
      <trkpt lat="45.33464" lon="6.58534">
        <ele>2197.4</ele>
        <time>2021-01-01T12:13:43Z</time>
      </trkpt>
      <trkpt lat="45.33463" lon="6.58532">
        <ele>2197</ele>
        <time>2021-01-01T12:13:48Z</time>
      </trkpt>
      <trkpt lat="45.33461" lon="6.58528">
        <ele>2197</ele>
        <time>2021-01-01T12:13:53Z</time>
      </trkpt>
      <trkpt lat="45.3346" lon="6.58524">
        <ele>2195.2</ele>
        <time>2021-01-01T12:13:58Z</time>
      </trkpt>
      <trkpt lat="45.33459" lon="6.58521">
        <ele>2200.2</ele>
        <time>2021-01-01T12:14:03Z</time>
      </trkpt>
      <trkpt lat="45.33457" lon="6.58517">
        <ele>2198</ele>
        <time>2021-01-01T12:14:08Z</time>
      </trkpt>
      <trkpt lat="45.33455" lon="6.58515">
        <ele>2200.6</ele>
        <time>2021-01-01T12:14:13Z</time>
      </trkpt>
      <trkpt lat="45.33453" lon="6.58513">
        <ele>2201.2</ele>
        <time>2021-01-01T12:14:18Z</time>
      </trkpt>
      <trkpt lat="45.33451" lon="6.58513">
        <ele>2199.6</ele>
        <time>2021-01-01T12:14:23Z</time>
      </trkpt>
      <trkpt lat="45.33449" lon="6.58513">
        <ele>2200.6</ele>
        <time>2021-01-01T12:14:28Z</time>
      </trkpt>
      <trkpt lat="45.33446" lon="6.58513">
        <ele>2200.2</ele>
        <time>2021-01-01T12:14:33Z</time>
      </trkpt>
      <trkpt lat="45.33443" lon="6.58514">
        <ele>2203.8</ele>
        <time>2021-01-01T12:14:38Z</time>
      </trkpt>
      <trkpt lat="45.3344" lon="6.58515">
        <ele>2203.8</ele>
        <time>2021-01-01T12:14:43Z</time>
      </trkpt>
      <trkpt lat="45.33439" lon="6.58514">
        <ele>2201</ele>
        <time>2021-01-01T12:14:48Z</time>
      </trkpt>
      <trkpt lat="45.33436" lon="6.58515">
        <ele>2200.2</ele>
        <time>2021-01-01T12:14:53Z</time>
      </trkpt>
      <trkpt lat="45.33434" lon="6.58516">
        <ele>2201.6</ele>
        <time>2021-01-01T12:14:58Z</time>
      </trkpt>
      <trkpt lat="45.33431" lon="6.58516">
        <ele>2204</ele>
        <time>2021-01-01T12:15:03Z</time>
      </trkpt>
      <trkpt lat="45.33429" lon="6.58516">
        <ele>2204.8</ele>
        <time>2021-01-01T12:15:08Z</time>
      </trkpt>
      <trkpt lat="45.33426" lon="6.58515">
        <ele>2205.4</ele>
        <time>2021-01-01T12:15:13Z</time>
      </trkpt>
      <trkpt lat="45.33424" lon="6.58514">
        <ele>2204.6</ele>
        <time>2021-01-01T12:15:18Z</time>
      </trkpt>
      <trkpt lat="45.33421" lon="6.58513">
        <ele>2203.6</ele>
        <time>2021-01-01T12:15:23Z</time>
      </trkpt>
      <trkpt lat="45.33419" lon="6.58513">
        <ele>2206.2</ele>
        <time>2021-01-01T12:15:28Z</time>
      </trkpt>
      <trkpt lat="45.33417" lon="6.58513">
        <ele>2212.4</ele>
        <time>2021-01-01T12:15:33Z</time>
      </trkpt>
      <trkpt lat="45.33416" lon="6.58513">
        <ele>2211.6</ele>
        <time>2021-01-01T12:15:38Z</time>
      </trkpt>
      <trkpt lat="45.33414" lon="6.58514">
        <ele>2207.8</ele>
        <time>2021-01-01T12:16:08Z</time>
      </trkpt>
      <trkpt lat="45.33412" lon="6.58514">
        <ele>2206.4</ele>
        <time>2021-01-01T12:16:13Z</time>
      </trkpt>
      <trkpt lat="45.3341" lon="6.58514">
        <ele>2209.2</ele>
        <time>2021-01-01T12:16:18Z</time>
      </trkpt>
      <trkpt lat="45.33408" lon="6.58513">
        <ele>2209.8</ele>
        <time>2021-01-01T12:16:23Z</time>
      </trkpt>
      <trkpt lat="45.33406" lon="6.58513">
        <ele>2208.8</ele>
        <time>2021-01-01T12:16:28Z</time>
      </trkpt>
      <trkpt lat="45.33403" lon="6.58513">
        <ele>2213.4</ele>
        <time>2021-01-01T12:16:33Z</time>
      </trkpt>
      <trkpt lat="45.33401" lon="6.58514">
        <ele>2212</ele>
        <time>2021-01-01T12:16:38Z</time>
      </trkpt>
      <trkpt lat="45.33399" lon="6.58514">
        <ele>2211.2</ele>
        <time>2021-01-01T12:16:43Z</time>
      </trkpt>
      <trkpt lat="45.33396" lon="6.58514">
        <ele>2213.4</ele>
        <time>2021-01-01T12:16:48Z</time>
      </trkpt>
      <trkpt lat="45.33394" lon="6.58515">
        <ele>2214.8</ele>
        <time>2021-01-01T12:16:53Z</time>
      </trkpt>
      <trkpt lat="45.33393" lon="6.58515">
        <ele>2215.8</ele>
        <time>2021-01-01T12:16:58Z</time>
      </trkpt>
      <trkpt lat="45.33391" lon="6.58515">
        <ele>2217.2</ele>
        <time>2021-01-01T12:17:03Z</time>
      </trkpt>
      <trkpt lat="45.33389" lon="6.58515">
        <ele>2217.8</ele>
        <time>2021-01-01T12:17:08Z</time>
      </trkpt>
      <trkpt lat="45.33387" lon="6.58515">
        <ele>2218.6</ele>
        <time>2021-01-01T12:17:13Z</time>
      </trkpt>
      <trkpt lat="45.33385" lon="6.58516">
        <ele>2220.8</ele>
        <time>2021-01-01T12:17:18Z</time>
      </trkpt>
      <trkpt lat="45.33383" lon="6.58516">
        <ele>2217</ele>
        <time>2021-01-01T12:17:23Z</time>
      </trkpt>
      <trkpt lat="45.33381" lon="6.58516">
        <ele>2216.6</ele>
        <time>2021-01-01T12:17:28Z</time>
      </trkpt>
      <trkpt lat="45.33379" lon="6.58515">
        <ele>2217</ele>
        <time>2021-01-01T12:17:33Z</time>
      </trkpt>
      <trkpt lat="45.33378" lon="6.58513">
        <ele>2215.2</ele>
        <time>2021-01-01T12:17:38Z</time>
      </trkpt>
      <trkpt lat="45.33376" lon="6.58513">
        <ele>2221.8</ele>
        <time>2021-01-01T12:17:43Z</time>
      </trkpt>
      <trkpt lat="45.33373" lon="6.58513">
        <ele>2223.8</ele>
        <time>2021-01-01T12:17:48Z</time>
      </trkpt>
      <trkpt lat="45.33372" lon="6.58513">
        <ele>2224.2</ele>
        <time>2021-01-01T12:17:53Z</time>
      </trkpt>
      <trkpt lat="45.3337" lon="6.58513">
        <ele>2223.4</ele>
        <time>2021-01-01T12:17:58Z</time>
      </trkpt>
      <trkpt lat="45.33367" lon="6.58514">
        <ele>2223.8</ele>
        <time>2021-01-01T12:18:03Z</time>
      </trkpt>
      <trkpt lat="45.33365" lon="6.58514">
        <ele>2226.2</ele>
        <time>2021-01-01T12:18:08Z</time>
      </trkpt>
      <trkpt lat="45.33363" lon="6.58514">
        <ele>2227.2</ele>
        <time>2021-01-01T12:18:13Z</time>
      </trkpt>
      <trkpt lat="45.3336" lon="6.58515">
        <ele>2222.6</ele>
        <time>2021-01-01T12:18:18Z</time>
      </trkpt>
      <trkpt lat="45.33358" lon="6.58516">
        <ele>2225.8</ele>
        <time>2021-01-01T12:18:23Z</time>
      </trkpt>
      <trkpt lat="45.33356" lon="6.58517">
        <ele>2228.8</ele>
        <time>2021-01-01T12:18:28Z</time>
      </trkpt>
      <trkpt lat="45.33353" lon="6.58518">
        <ele>2227.6</ele>
        <time>2021-01-01T12:18:34Z</time>
      </trkpt>
      <trkpt lat="45.3335" lon="6.58519">
        <ele>2227.6</ele>
        <time>2021-01-01T12:18:39Z</time>
      </trkpt>
      <trkpt lat="45.33348" lon="6.5852">
        <ele>2231.2</ele>
        <time>2021-01-01T12:18:44Z</time>
      </trkpt>
      <trkpt lat="45.33348" lon="6.5852">
        <ele>2228.8</ele>
        <time>2021-01-01T12:19:04Z</time>
      </trkpt>
      <trkpt lat="45.33347" lon="6.5852">
        <ele>2230.4</ele>
        <time>2021-01-01T12:19:09Z</time>
      </trkpt>
      <trkpt lat="45.33345" lon="6.58521">
        <ele>2226.6</ele>
        <time>2021-01-01T12:19:14Z</time>
      </trkpt>
      <trkpt lat="45.33343" lon="6.58521">
        <ele>2230</ele>
        <time>2021-01-01T12:19:19Z</time>
      </trkpt>
      <trkpt lat="45.3334" lon="6.58522">
        <ele>2232</ele>
        <time>2021-01-01T12:19:24Z</time>
      </trkpt>
      <trkpt lat="45.33338" lon="6.58523">
        <ele>2231.6</ele>
        <time>2021-01-01T12:19:29Z</time>
      </trkpt>
      <trkpt lat="45.33336" lon="6.58524">
        <ele>2232</ele>
        <time>2021-01-01T12:19:34Z</time>
      </trkpt>
      <trkpt lat="45.33334" lon="6.58525">
        <ele>2235</ele>
        <time>2021-01-01T12:19:39Z</time>
      </trkpt>
      <trkpt lat="45.33331" lon="6.58526">
        <ele>2233.2</ele>
        <time>2021-01-01T12:19:44Z</time>
      </trkpt>
      <trkpt lat="45.33329" lon="6.58527">
        <ele>2236</ele>
        <time>2021-01-01T12:19:49Z</time>
      </trkpt>
      <trkpt lat="45.33326" lon="6.58528">
        <ele>2234.6</ele>
        <time>2021-01-01T12:19:54Z</time>
      </trkpt>
      <trkpt lat="45.33324" lon="6.58529">
        <ele>2235.4</ele>
        <time>2021-01-01T12:19:59Z</time>
      </trkpt>
      <trkpt lat="45.33322" lon="6.5853">
        <ele>2234.6</ele>
        <time>2021-01-01T12:20:04Z</time>
      </trkpt>
      <trkpt lat="45.3332" lon="6.58531">
        <ele>2239</ele>
        <time>2021-01-01T12:20:09Z</time>
      </trkpt>
      <trkpt lat="45.33318" lon="6.58531">
        <ele>2235.6</ele>
        <time>2021-01-01T12:20:14Z</time>
      </trkpt>
      <trkpt lat="45.33316" lon="6.58532">
        <ele>2238.6</ele>
        <time>2021-01-01T12:20:19Z</time>
      </trkpt>
      <trkpt lat="45.33314" lon="6.58533">
        <ele>2239.6</ele>
        <time>2021-01-01T12:20:24Z</time>
      </trkpt>
      <trkpt lat="45.33313" lon="6.58533">
        <ele>2237.2</ele>
        <time>2021-01-01T12:20:29Z</time>
      </trkpt>
      <trkpt lat="45.33311" lon="6.58532">
        <ele>2238</ele>
        <time>2021-01-01T12:20:34Z</time>
      </trkpt>
      <trkpt lat="45.3331" lon="6.58533">
        <ele>2238</ele>
        <time>2021-01-01T12:20:39Z</time>
      </trkpt>
      <trkpt lat="45.33308" lon="6.58534">
        <ele>2242</ele>
        <time>2021-01-01T12:20:44Z</time>
      </trkpt>
      <trkpt lat="45.33307" lon="6.58534">
        <ele>2240.2</ele>
        <time>2021-01-01T12:20:49Z</time>
      </trkpt>
      <trkpt lat="45.33305" lon="6.58535">
        <ele>2235.2</ele>
        <time>2021-01-01T12:20:54Z</time>
      </trkpt>
      <trkpt lat="45.33303" lon="6.58535">
        <ele>2238.8</ele>
        <time>2021-01-01T12:20:59Z</time>
      </trkpt>
      <trkpt lat="45.33302" lon="6.58536">
        <ele>2242.4</ele>
        <time>2021-01-01T12:21:04Z</time>
      </trkpt>
      <trkpt lat="45.333" lon="6.58537">
        <ele>2238.8</ele>
        <time>2021-01-01T12:21:09Z</time>
      </trkpt>
      <trkpt lat="45.33298" lon="6.58538">
        <ele>2239.2</ele>
        <time>2021-01-01T12:21:14Z</time>
      </trkpt>
      <trkpt lat="45.33295" lon="6.58538">
        <ele>2243</ele>
        <time>2021-01-01T12:21:19Z</time>
      </trkpt>
      <trkpt lat="45.33294" lon="6.58539">
        <ele>2240.4</ele>
        <time>2021-01-01T12:21:24Z</time>
      </trkpt>
      <trkpt lat="45.33292" lon="6.5854">
        <ele>2243.6</ele>
        <time>2021-01-01T12:21:29Z</time>
      </trkpt>
      <trkpt lat="45.3329" lon="6.5854">
        <ele>2243.6</ele>
        <time>2021-01-01T12:21:34Z</time>
      </trkpt>
      <trkpt lat="45.33288" lon="6.5854">
        <ele>2245.6</ele>
        <time>2021-01-01T12:21:39Z</time>
      </trkpt>
      <trkpt lat="45.33286" lon="6.58541">
        <ele>2247.2</ele>
        <time>2021-01-01T12:21:44Z</time>
      </trkpt>
      <trkpt lat="45.33284" lon="6.58541">
        <ele>2246.6</ele>
        <time>2021-01-01T12:21:49Z</time>
      </trkpt>
      <trkpt lat="45.33283" lon="6.58541">
        <ele>2247.2</ele>
        <time>2021-01-01T12:22:14Z</time>
      </trkpt>
      <trkpt lat="45.33281" lon="6.58541">
        <ele>2249.6</ele>
        <time>2021-01-01T12:22:39Z</time>
      </trkpt>
      <trkpt lat="45.33278" lon="6.58542">
        <ele>2248.2</ele>
        <time>2021-01-01T12:22:44Z</time>
      </trkpt>
      <trkpt lat="45.33275" lon="6.58542">
        <ele>2249.4</ele>
        <time>2021-01-01T12:22:49Z</time>
      </trkpt>
      <trkpt lat="45.33273" lon="6.58543">
        <ele>2253.6</ele>
        <time>2021-01-01T12:22:54Z</time>
      </trkpt>
      <trkpt lat="45.33269" lon="6.58545">
        <ele>2250.2</ele>
        <time>2021-01-01T12:22:59Z</time>
      </trkpt>
      <trkpt lat="45.33266" lon="6.58546">
        <ele>2252</ele>
        <time>2021-01-01T12:23:04Z</time>
      </trkpt>
      <trkpt lat="45.33263" lon="6.58546">
        <ele>2253.4</ele>
        <time>2021-01-01T12:23:09Z</time>
      </trkpt>
      <trkpt lat="45.3326" lon="6.58546">
        <ele>2253.8</ele>
        <time>2021-01-01T12:23:14Z</time>
      </trkpt>
      <trkpt lat="45.33257" lon="6.58546">
        <ele>2255.8</ele>
        <time>2021-01-01T12:23:19Z</time>
      </trkpt>
      <trkpt lat="45.33253" lon="6.58546">
        <ele>2257</ele>
        <time>2021-01-01T12:23:24Z</time>
      </trkpt>
      <trkpt lat="45.33249" lon="6.58547">
        <ele>2256.2</ele>
        <time>2021-01-01T12:23:29Z</time>
      </trkpt>
      <trkpt lat="45.33246" lon="6.58548">
        <ele>2257</ele>
        <time>2021-01-01T12:23:34Z</time>
      </trkpt>
      <trkpt lat="45.33243" lon="6.58549">
        <ele>2258.4</ele>
        <time>2021-01-01T12:23:39Z</time>
      </trkpt>
      <trkpt lat="45.33242" lon="6.5855">
        <ele>2253.4</ele>
        <time>2021-01-01T12:23:54Z</time>
      </trkpt>
      <trkpt lat="45.33241" lon="6.58552">
        <ele>2256.2</ele>
        <time>2021-01-01T12:24:19Z</time>
      </trkpt>
      <trkpt lat="45.33238" lon="6.58554">
        <ele>2257.2</ele>
        <time>2021-01-01T12:24:24Z</time>
      </trkpt>
      <trkpt lat="45.33235" lon="6.58557">
        <ele>2257.4</ele>
        <time>2021-01-01T12:24:29Z</time>
      </trkpt>
      <trkpt lat="45.33231" lon="6.58558">
        <ele>2257.4</ele>
        <time>2021-01-01T12:24:34Z</time>
      </trkpt>
      <trkpt lat="45.33227" lon="6.5856">
        <ele>2255.6</ele>
        <time>2021-01-01T12:24:39Z</time>
      </trkpt>
      <trkpt lat="45.33223" lon="6.58562">
        <ele>2258.4</ele>
        <time>2021-01-01T12:24:44Z</time>
      </trkpt>
      <trkpt lat="45.33218" lon="6.58563">
        <ele>2256.6</ele>
        <time>2021-01-01T12:24:49Z</time>
      </trkpt>
      <trkpt lat="45.33215" lon="6.58565">
        <ele>2260.8</ele>
        <time>2021-01-01T12:24:54Z</time>
      </trkpt>
      <trkpt lat="45.33211" lon="6.58566">
        <ele>2259</ele>
        <time>2021-01-01T12:24:59Z</time>
      </trkpt>
      <trkpt lat="45.33206" lon="6.58567">
        <ele>2260.6</ele>
        <time>2021-01-01T12:25:04Z</time>
      </trkpt>
      <trkpt lat="45.33202" lon="6.58569">
        <ele>2261.2</ele>
        <time>2021-01-01T12:25:09Z</time>
      </trkpt>
      <trkpt lat="45.33198" lon="6.5857">
        <ele>2261.2</ele>
        <time>2021-01-01T12:25:14Z</time>
      </trkpt>
      <trkpt lat="45.33193" lon="6.58571">
        <ele>2261</ele>
        <time>2021-01-01T12:25:19Z</time>
      </trkpt>
      <trkpt lat="45.33189" lon="6.58573">
        <ele>2261.8</ele>
        <time>2021-01-01T12:25:24Z</time>
      </trkpt>
      <trkpt lat="45.33185" lon="6.58575">
        <ele>2261.2</ele>
        <time>2021-01-01T12:25:29Z</time>
      </trkpt>
      <trkpt lat="45.33181" lon="6.58576">
        <ele>2262</ele>
        <time>2021-01-01T12:25:34Z</time>
      </trkpt>
      <trkpt lat="45.33176" lon="6.58579">
        <ele>2263.8</ele>
        <time>2021-01-01T12:25:39Z</time>
      </trkpt>
      <trkpt lat="45.33171" lon="6.58581">
        <ele>2263</ele>
        <time>2021-01-01T12:25:44Z</time>
      </trkpt>
      <trkpt lat="45.33168" lon="6.58584">
        <ele>2265.6</ele>
        <time>2021-01-01T12:25:49Z</time>
      </trkpt>
      <trkpt lat="45.33164" lon="6.58587">
        <ele>2262.8</ele>
        <time>2021-01-01T12:25:54Z</time>
      </trkpt>
      <trkpt lat="45.33161" lon="6.5859">
        <ele>2264.8</ele>
        <time>2021-01-01T12:25:59Z</time>
      </trkpt>
      <trkpt lat="45.33158" lon="6.58592">
        <ele>2263.2</ele>
        <time>2021-01-01T12:26:04Z</time>
      </trkpt>
      <trkpt lat="45.33155" lon="6.58596">
        <ele>2262.4</ele>
        <time>2021-01-01T12:26:09Z</time>
      </trkpt>
      <trkpt lat="45.33152" lon="6.58598">
        <ele>2264.4</ele>
        <time>2021-01-01T12:26:14Z</time>
      </trkpt>
      <trkpt lat="45.33149" lon="6.58602">
        <ele>2264.4</ele>
        <time>2021-01-01T12:26:19Z</time>
      </trkpt>
      <trkpt lat="45.33146" lon="6.58606">
        <ele>2263.6</ele>
        <time>2021-01-01T12:26:24Z</time>
      </trkpt>
      <trkpt lat="45.33144" lon="6.5861">
        <ele>2267.2</ele>
        <time>2021-01-01T12:26:29Z</time>
      </trkpt>
      <trkpt lat="45.33141" lon="6.58614">
        <ele>2268</ele>
        <time>2021-01-01T12:26:34Z</time>
      </trkpt>
      <trkpt lat="45.33139" lon="6.58618">
        <ele>2267.2</ele>
        <time>2021-01-01T12:26:39Z</time>
      </trkpt>
      <trkpt lat="45.33138" lon="6.58622">
        <ele>2268.2</ele>
        <time>2021-01-01T12:26:44Z</time>
      </trkpt>
      <trkpt lat="45.33136" lon="6.58626">
        <ele>2268.6</ele>
        <time>2021-01-01T12:26:49Z</time>
      </trkpt>
      <trkpt lat="45.33135" lon="6.5863">
        <ele>2269.4</ele>
        <time>2021-01-01T12:26:54Z</time>
      </trkpt>
      <trkpt lat="45.33134" lon="6.58634">
        <ele>2268</ele>
        <time>2021-01-01T12:26:59Z</time>
      </trkpt>
      <trkpt lat="45.33134" lon="6.58636">
        <ele>2269.4</ele>
        <time>2021-01-01T12:27:19Z</time>
      </trkpt>
      <trkpt lat="45.33135" lon="6.58635">
        <ele>2270.8</ele>
        <time>2021-01-01T12:30:04Z</time>
      </trkpt>
      <trkpt lat="45.33135" lon="6.58638">
        <ele>2271.8</ele>
        <time>2021-01-01T12:30:10Z</time>
      </trkpt>
      <trkpt lat="45.33135" lon="6.58642">
        <ele>2275.6</ele>
        <time>2021-01-01T12:30:15Z</time>
      </trkpt>
      <trkpt lat="45.33135" lon="6.58645">
        <ele>2271.2</ele>
        <time>2021-01-01T12:30:20Z</time>
      </trkpt>
      <trkpt lat="45.33134" lon="6.58649">
        <ele>2271.8</ele>
        <time>2021-01-01T12:30:25Z</time>
      </trkpt>
      <trkpt lat="45.33134" lon="6.58652">
        <ele>2276</ele>
        <time>2021-01-01T12:30:30Z</time>
      </trkpt>
      <trkpt lat="45.33133" lon="6.58656">
        <ele>2276.4</ele>
        <time>2021-01-01T12:30:35Z</time>
      </trkpt>
      <trkpt lat="45.33133" lon="6.5866">
        <ele>2277.8</ele>
        <time>2021-01-01T12:30:40Z</time>
      </trkpt>
      <trkpt lat="45.33133" lon="6.58663">
        <ele>2276.8</ele>
        <time>2021-01-01T12:30:45Z</time>
      </trkpt>
      <trkpt lat="45.33133" lon="6.58664">
        <ele>2277</ele>
        <time>2021-01-01T12:30:50Z</time>
      </trkpt>
      <trkpt lat="45.33133" lon="6.58666">
        <ele>2278.4</ele>
        <time>2021-01-01T12:30:55Z</time>
      </trkpt>
      <trkpt lat="45.33133" lon="6.5867">
        <ele>2280</ele>
        <time>2021-01-01T12:31:00Z</time>
      </trkpt>
      <trkpt lat="45.33133" lon="6.58674">
        <ele>2279.6</ele>
        <time>2021-01-01T12:31:05Z</time>
      </trkpt>
      <trkpt lat="45.33133" lon="6.58678">
        <ele>2281</ele>
        <time>2021-01-01T12:31:10Z</time>
      </trkpt>
      <trkpt lat="45.33133" lon="6.58682">
        <ele>2278.4</ele>
        <time>2021-01-01T12:31:15Z</time>
      </trkpt>
      <trkpt lat="45.33132" lon="6.58685">
        <ele>2279.8</ele>
        <time>2021-01-01T12:31:20Z</time>
      </trkpt>
      <trkpt lat="45.33133" lon="6.58688">
        <ele>2281</ele>
        <time>2021-01-01T12:31:25Z</time>
      </trkpt>
      <trkpt lat="45.33132" lon="6.58691">
        <ele>2280.8</ele>
        <time>2021-01-01T12:31:30Z</time>
      </trkpt>
      <trkpt lat="45.33132" lon="6.58695">
        <ele>2284.8</ele>
        <time>2021-01-01T12:31:35Z</time>
      </trkpt>
      <trkpt lat="45.33132" lon="6.58698">
        <ele>2284.4</ele>
        <time>2021-01-01T12:31:40Z</time>
      </trkpt>
      <trkpt lat="45.33133" lon="6.58699">
        <ele>2284</ele>
        <time>2021-01-01T12:31:45Z</time>
      </trkpt>
      <trkpt lat="45.33133" lon="6.58703">
        <ele>2283.4</ele>
        <time>2021-01-01T12:31:50Z</time>
      </trkpt>
      <trkpt lat="45.33133" lon="6.58707">
        <ele>2284.8</ele>
        <time>2021-01-01T12:31:55Z</time>
      </trkpt>
      <trkpt lat="45.33133" lon="6.58711">
        <ele>2285.2</ele>
        <time>2021-01-01T12:32:00Z</time>
      </trkpt>
      <trkpt lat="45.33132" lon="6.58716">
        <ele>2284.8</ele>
        <time>2021-01-01T12:32:05Z</time>
      </trkpt>
      <trkpt lat="45.33131" lon="6.58721">
        <ele>2286</ele>
        <time>2021-01-01T12:32:10Z</time>
      </trkpt>
      <trkpt lat="45.3313" lon="6.58725">
        <ele>2285.8</ele>
        <time>2021-01-01T12:32:15Z</time>
      </trkpt>
      <trkpt lat="45.3313" lon="6.58728">
        <ele>2289.4</ele>
        <time>2021-01-01T12:32:20Z</time>
      </trkpt>
      <trkpt lat="45.33129" lon="6.58732">
        <ele>2284.8</ele>
        <time>2021-01-01T12:32:25Z</time>
      </trkpt>
      <trkpt lat="45.33127" lon="6.58736">
        <ele>2291.6</ele>
        <time>2021-01-01T12:32:30Z</time>
      </trkpt>
      <trkpt lat="45.33126" lon="6.5874">
        <ele>2290.2</ele>
        <time>2021-01-01T12:32:35Z</time>
      </trkpt>
      <trkpt lat="45.33125" lon="6.58744">
        <ele>2289.4</ele>
        <time>2021-01-01T12:32:40Z</time>
      </trkpt>
      <trkpt lat="45.33124" lon="6.58748">
        <ele>2287.2</ele>
        <time>2021-01-01T12:32:45Z</time>
      </trkpt>
      <trkpt lat="45.33124" lon="6.58752">
        <ele>2289.4</ele>
        <time>2021-01-01T12:32:50Z</time>
      </trkpt>
      <trkpt lat="45.33125" lon="6.58756">
        <ele>2287.6</ele>
        <time>2021-01-01T12:32:55Z</time>
      </trkpt>
      <trkpt lat="45.33124" lon="6.58761">
        <ele>2288.8</ele>
        <time>2021-01-01T12:33:00Z</time>
      </trkpt>
      <trkpt lat="45.33123" lon="6.58766">
        <ele>2290.8</ele>
        <time>2021-01-01T12:33:05Z</time>
      </trkpt>
      <trkpt lat="45.33123" lon="6.58772">
        <ele>2290.4</ele>
        <time>2021-01-01T12:33:10Z</time>
      </trkpt>
      <trkpt lat="45.33123" lon="6.58777">
        <ele>2290.6</ele>
        <time>2021-01-01T12:33:15Z</time>
      </trkpt>
      <trkpt lat="45.33123" lon="6.58782">
        <ele>2291.8</ele>
        <time>2021-01-01T12:33:20Z</time>
      </trkpt>
      <trkpt lat="45.33123" lon="6.58786">
        <ele>2293.4</ele>
        <time>2021-01-01T12:33:25Z</time>
      </trkpt>
      <trkpt lat="45.33123" lon="6.5879">
        <ele>2291.2</ele>
        <time>2021-01-01T12:33:30Z</time>
      </trkpt>
      <trkpt lat="45.33123" lon="6.58794">
        <ele>2292</ele>
        <time>2021-01-01T12:33:35Z</time>
      </trkpt>
      <trkpt lat="45.33123" lon="6.58798">
        <ele>2295.8</ele>
        <time>2021-01-01T12:33:40Z</time>
      </trkpt>
      <trkpt lat="45.33123" lon="6.58802">
        <ele>2295.8</ele>
        <time>2021-01-01T12:33:45Z</time>
      </trkpt>
      <trkpt lat="45.33124" lon="6.58806">
        <ele>2297.4</ele>
        <time>2021-01-01T12:33:50Z</time>
      </trkpt>
      <trkpt lat="45.33124" lon="6.5881">
        <ele>2296.8</ele>
        <time>2021-01-01T12:33:55Z</time>
      </trkpt>
      <trkpt lat="45.33124" lon="6.58813">
        <ele>2296.4</ele>
        <time>2021-01-01T12:34:00Z</time>
      </trkpt>
      <trkpt lat="45.33124" lon="6.58818">
        <ele>2298</ele>
        <time>2021-01-01T12:34:05Z</time>
      </trkpt>
      <trkpt lat="45.33124" lon="6.58822">
        <ele>2301</ele>
        <time>2021-01-01T12:34:10Z</time>
      </trkpt>
      <trkpt lat="45.33124" lon="6.58827">
        <ele>2298.4</ele>
        <time>2021-01-01T12:34:15Z</time>
      </trkpt>
      <trkpt lat="45.33125" lon="6.58832">
        <ele>2294.8</ele>
        <time>2021-01-01T12:34:20Z</time>
      </trkpt>
      <trkpt lat="45.33125" lon="6.58836">
        <ele>2298.4</ele>
        <time>2021-01-01T12:34:25Z</time>
      </trkpt>
      <trkpt lat="45.33126" lon="6.58841">
        <ele>2297.8</ele>
        <time>2021-01-01T12:34:30Z</time>
      </trkpt>
      <trkpt lat="45.33126" lon="6.58845">
        <ele>2298.2</ele>
        <time>2021-01-01T12:34:35Z</time>
      </trkpt>
      <trkpt lat="45.33127" lon="6.58849">
        <ele>2299.6</ele>
        <time>2021-01-01T12:34:40Z</time>
      </trkpt>
      <trkpt lat="45.33127" lon="6.58853">
        <ele>2299.4</ele>
        <time>2021-01-01T12:34:45Z</time>
      </trkpt>
      <trkpt lat="45.33128" lon="6.58857">
        <ele>2300.8</ele>
        <time>2021-01-01T12:34:50Z</time>
      </trkpt>
      <trkpt lat="45.33128" lon="6.58859">
        <ele>2299.8</ele>
        <time>2021-01-01T12:34:55Z</time>
      </trkpt>
      <trkpt lat="45.33128" lon="6.5886">
        <ele>2299</ele>
        <time>2021-01-01T12:35:00Z</time>
      </trkpt>
      <trkpt lat="45.33128" lon="6.58864">
        <ele>2300.2</ele>
        <time>2021-01-01T12:35:05Z</time>
      </trkpt>
      <trkpt lat="45.33129" lon="6.58868">
        <ele>2301.8</ele>
        <time>2021-01-01T12:35:10Z</time>
      </trkpt>
      <trkpt lat="45.33129" lon="6.58871">
        <ele>2302.8</ele>
        <time>2021-01-01T12:35:15Z</time>
      </trkpt>
      <trkpt lat="45.33129" lon="6.58875">
        <ele>2300.8</ele>
        <time>2021-01-01T12:35:20Z</time>
      </trkpt>
      <trkpt lat="45.33129" lon="6.58879">
        <ele>2301.8</ele>
        <time>2021-01-01T12:35:25Z</time>
      </trkpt>
      <trkpt lat="45.33129" lon="6.58882">
        <ele>2302.2</ele>
        <time>2021-01-01T12:35:30Z</time>
      </trkpt>
      <trkpt lat="45.33128" lon="6.58886">
        <ele>2303.6</ele>
        <time>2021-01-01T12:35:35Z</time>
      </trkpt>
      <trkpt lat="45.33127" lon="6.5889">
        <ele>2302.6</ele>
        <time>2021-01-01T12:35:40Z</time>
      </trkpt>
      <trkpt lat="45.33127" lon="6.58892">
        <ele>2301.6</ele>
        <time>2021-01-01T12:35:45Z</time>
      </trkpt>
      <trkpt lat="45.33126" lon="6.58895">
        <ele>2302</ele>
        <time>2021-01-01T12:35:50Z</time>
      </trkpt>
      <trkpt lat="45.33126" lon="6.58899">
        <ele>2303</ele>
        <time>2021-01-01T12:35:55Z</time>
      </trkpt>
      <trkpt lat="45.33126" lon="6.58901">
        <ele>2302.2</ele>
        <time>2021-01-01T12:36:00Z</time>
      </trkpt>
      <trkpt lat="45.33125" lon="6.58905">
        <ele>2305.4</ele>
        <time>2021-01-01T12:36:05Z</time>
      </trkpt>
      <trkpt lat="45.33124" lon="6.58908">
        <ele>2305.6</ele>
        <time>2021-01-01T12:36:10Z</time>
      </trkpt>
      <trkpt lat="45.33124" lon="6.58911">
        <ele>2304.2</ele>
        <time>2021-01-01T12:36:15Z</time>
      </trkpt>
      <trkpt lat="45.33123" lon="6.58912">
        <ele>2305.6</ele>
        <time>2021-01-01T12:36:20Z</time>
      </trkpt>
      <trkpt lat="45.33123" lon="6.58913">
        <ele>2304.8</ele>
        <time>2021-01-01T12:36:25Z</time>
      </trkpt>
      <trkpt lat="45.33122" lon="6.58916">
        <ele>2305.2</ele>
        <time>2021-01-01T12:36:30Z</time>
      </trkpt>
      <trkpt lat="45.33122" lon="6.58919">
        <ele>2308.2</ele>
        <time>2021-01-01T12:36:35Z</time>
      </trkpt>
      <trkpt lat="45.33122" lon="6.58922">
        <ele>2308.4</ele>
        <time>2021-01-01T12:36:40Z</time>
      </trkpt>
      <trkpt lat="45.33121" lon="6.58926">
        <ele>2306.8</ele>
        <time>2021-01-01T12:36:45Z</time>
      </trkpt>
      <trkpt lat="45.33122" lon="6.58928">
        <ele>2310.4</ele>
        <time>2021-01-01T12:36:50Z</time>
      </trkpt>
      <trkpt lat="45.33125" lon="6.5893">
        <ele>2309.2</ele>
        <time>2021-01-01T12:36:55Z</time>
      </trkpt>
      <trkpt lat="45.33127" lon="6.58932">
        <ele>2309.8</ele>
        <time>2021-01-01T12:37:00Z</time>
      </trkpt>
      <trkpt lat="45.3313" lon="6.58934">
        <ele>2312</ele>
        <time>2021-01-01T12:37:05Z</time>
      </trkpt>
      <trkpt lat="45.33132" lon="6.58935">
        <ele>2313.6</ele>
        <time>2021-01-01T12:37:10Z</time>
      </trkpt>
      <trkpt lat="45.33134" lon="6.58937">
        <ele>2311.6</ele>
        <time>2021-01-01T12:37:15Z</time>
      </trkpt>
      <trkpt lat="45.33138" lon="6.5894">
        <ele>2313.2</ele>
        <time>2021-01-01T12:37:20Z</time>
      </trkpt>
      <trkpt lat="45.33141" lon="6.58943">
        <ele>2313.4</ele>
        <time>2021-01-01T12:37:25Z</time>
      </trkpt>
      <trkpt lat="45.33144" lon="6.58945">
        <ele>2314.2</ele>
        <time>2021-01-01T12:37:30Z</time>
      </trkpt>
      <trkpt lat="45.33147" lon="6.58947">
        <ele>2315.6</ele>
        <time>2021-01-01T12:37:35Z</time>
      </trkpt>
      <trkpt lat="45.33151" lon="6.58947">
        <ele>2316.6</ele>
        <time>2021-01-01T12:37:40Z</time>
      </trkpt>
      <trkpt lat="45.33154" lon="6.58948">
        <ele>2315.8</ele>
        <time>2021-01-01T12:37:45Z</time>
      </trkpt>
      <trkpt lat="45.33157" lon="6.58948">
        <ele>2319.8</ele>
        <time>2021-01-01T12:37:50Z</time>
      </trkpt>
      <trkpt lat="45.33158" lon="6.58948">
        <ele>2319.6</ele>
        <time>2021-01-01T12:38:00Z</time>
      </trkpt>
      <trkpt lat="45.33157" lon="6.58948">
        <ele>2316.2</ele>
        <time>2021-01-01T13:00:35Z</time>
      </trkpt>
      <trkpt lat="45.33156" lon="6.58952">
        <ele>2318.8</ele>
        <time>2021-01-01T13:00:40Z</time>
      </trkpt>
      <trkpt lat="45.33153" lon="6.58957">
        <ele>2318.8</ele>
        <time>2021-01-01T13:00:45Z</time>
      </trkpt>
      <trkpt lat="45.33152" lon="6.58961">
        <ele>2319.4</ele>
        <time>2021-01-01T13:00:50Z</time>
      </trkpt>
      <trkpt lat="45.33151" lon="6.58966">
        <ele>2318.6</ele>
        <time>2021-01-01T13:00:55Z</time>
      </trkpt>
      <trkpt lat="45.33149" lon="6.58972">
        <ele>2320.2</ele>
        <time>2021-01-01T13:01:00Z</time>
      </trkpt>
      <trkpt lat="45.33148" lon="6.58977">
        <ele>2320</ele>
        <time>2021-01-01T13:01:05Z</time>
      </trkpt>
      <trkpt lat="45.33147" lon="6.58982">
        <ele>2320</ele>
        <time>2021-01-01T13:01:10Z</time>
      </trkpt>
      <trkpt lat="45.33145" lon="6.58988">
        <ele>2322.2</ele>
        <time>2021-01-01T13:01:15Z</time>
      </trkpt>
      <trkpt lat="45.33144" lon="6.58993">
        <ele>2320.4</ele>
        <time>2021-01-01T13:01:20Z</time>
      </trkpt>
      <trkpt lat="45.33143" lon="6.58998">
        <ele>2319</ele>
        <time>2021-01-01T13:01:25Z</time>
      </trkpt>
      <trkpt lat="45.33141" lon="6.59004">
        <ele>2320.2</ele>
        <time>2021-01-01T13:01:30Z</time>
      </trkpt>
      <trkpt lat="45.3314" lon="6.59008">
        <ele>2322.8</ele>
        <time>2021-01-01T13:01:35Z</time>
      </trkpt>
      <trkpt lat="45.33139" lon="6.5901">
        <ele>2320.4</ele>
        <time>2021-01-01T13:01:45Z</time>
      </trkpt>
      <trkpt lat="45.33139" lon="6.59014">
        <ele>2322.8</ele>
        <time>2021-01-01T13:01:50Z</time>
      </trkpt>
      <trkpt lat="45.33137" lon="6.59019">
        <ele>2322.2</ele>
        <time>2021-01-01T13:01:55Z</time>
      </trkpt>
      <trkpt lat="45.33136" lon="6.59023">
        <ele>2323.4</ele>
        <time>2021-01-01T13:02:00Z</time>
      </trkpt>
      <trkpt lat="45.33135" lon="6.59027">
        <ele>2323</ele>
        <time>2021-01-01T13:02:05Z</time>
      </trkpt>
      <trkpt lat="45.33133" lon="6.59031">
        <ele>2324.4</ele>
        <time>2021-01-01T13:02:10Z</time>
      </trkpt>
      <trkpt lat="45.33132" lon="6.59034">
        <ele>2326</ele>
        <time>2021-01-01T13:02:15Z</time>
      </trkpt>
      <trkpt lat="45.3313" lon="6.59038">
        <ele>2326</ele>
        <time>2021-01-01T13:02:20Z</time>
      </trkpt>
      <trkpt lat="45.33129" lon="6.59041">
        <ele>2327.8</ele>
        <time>2021-01-01T13:02:25Z</time>
      </trkpt>
      <trkpt lat="45.33128" lon="6.59044">
        <ele>2327</ele>
        <time>2021-01-01T13:02:30Z</time>
      </trkpt>
      <trkpt lat="45.33127" lon="6.59047">
        <ele>2327.6</ele>
        <time>2021-01-01T13:02:35Z</time>
      </trkpt>
      <trkpt lat="45.33126" lon="6.5905">
        <ele>2326.8</ele>
        <time>2021-01-01T13:02:40Z</time>
      </trkpt>
      <trkpt lat="45.33126" lon="6.59053">
        <ele>2328.2</ele>
        <time>2021-01-01T13:02:45Z</time>
      </trkpt>
      <trkpt lat="45.33127" lon="6.59054">
        <ele>2325</ele>
        <time>2021-01-01T13:02:50Z</time>
      </trkpt>
      <trkpt lat="45.33129" lon="6.59056">
        <ele>2329.4</ele>
        <time>2021-01-01T13:02:55Z</time>
      </trkpt>
      <trkpt lat="45.33131" lon="6.59057">
        <ele>2328.2</ele>
        <time>2021-01-01T13:03:00Z</time>
      </trkpt>
      <trkpt lat="45.33134" lon="6.59059">
        <ele>2330.2</ele>
        <time>2021-01-01T13:03:05Z</time>
      </trkpt>
      <trkpt lat="45.33136" lon="6.59061">
        <ele>2329.4</ele>
        <time>2021-01-01T13:03:10Z</time>
      </trkpt>
      <trkpt lat="45.33138" lon="6.59063">
        <ele>2329.4</ele>
        <time>2021-01-01T13:03:15Z</time>
      </trkpt>
      <trkpt lat="45.3314" lon="6.59065">
        <ele>2331.2</ele>
        <time>2021-01-01T13:03:20Z</time>
      </trkpt>
      <trkpt lat="45.3314" lon="6.59068">
        <ele>2332.2</ele>
        <time>2021-01-01T13:03:25Z</time>
      </trkpt>
      <trkpt lat="45.33139" lon="6.59071">
        <ele>2334.4</ele>
        <time>2021-01-01T13:03:30Z</time>
      </trkpt>
      <trkpt lat="45.33138" lon="6.59075">
        <ele>2333.8</ele>
        <time>2021-01-01T13:03:35Z</time>
      </trkpt>
      <trkpt lat="45.33138" lon="6.59079">
        <ele>2334.2</ele>
        <time>2021-01-01T13:03:40Z</time>
      </trkpt>
      <trkpt lat="45.33137" lon="6.59083">
        <ele>2336.4</ele>
        <time>2021-01-01T13:03:45Z</time>
      </trkpt>
      <trkpt lat="45.33136" lon="6.59087">
        <ele>2336.4</ele>
        <time>2021-01-01T13:03:50Z</time>
      </trkpt>
      <trkpt lat="45.33136" lon="6.59091">
        <ele>2337.2</ele>
        <time>2021-01-01T13:03:55Z</time>
      </trkpt>
      <trkpt lat="45.33135" lon="6.59095">
        <ele>2337</ele>
        <time>2021-01-01T13:04:00Z</time>
      </trkpt>
      <trkpt lat="45.33135" lon="6.59099">
        <ele>2336.6</ele>
        <time>2021-01-01T13:04:05Z</time>
      </trkpt>
      <trkpt lat="45.33134" lon="6.59103">
        <ele>2335.8</ele>
        <time>2021-01-01T13:04:10Z</time>
      </trkpt>
      <trkpt lat="45.33133" lon="6.59106">
        <ele>2337.8</ele>
        <time>2021-01-01T13:04:15Z</time>
      </trkpt>
      <trkpt lat="45.33132" lon="6.5911">
        <ele>2340.2</ele>
        <time>2021-01-01T13:04:20Z</time>
      </trkpt>
      <trkpt lat="45.33131" lon="6.59113">
        <ele>2340.6</ele>
        <time>2021-01-01T13:04:25Z</time>
      </trkpt>
      <trkpt lat="45.3313" lon="6.59116">
        <ele>2339.2</ele>
        <time>2021-01-01T13:04:30Z</time>
      </trkpt>
      <trkpt lat="45.33129" lon="6.5912">
        <ele>2341</ele>
        <time>2021-01-01T13:04:35Z</time>
      </trkpt>
      <trkpt lat="45.33128" lon="6.59123">
        <ele>2342.8</ele>
        <time>2021-01-01T13:04:40Z</time>
      </trkpt>
      <trkpt lat="45.33128" lon="6.59125">
        <ele>2343.6</ele>
        <time>2021-01-01T13:04:45Z</time>
      </trkpt>
      <trkpt lat="45.3313" lon="6.59127">
        <ele>2343.2</ele>
        <time>2021-01-01T13:07:45Z</time>
      </trkpt>
      <trkpt lat="45.33132" lon="6.59129">
        <ele>2344.2</ele>
        <time>2021-01-01T13:07:50Z</time>
      </trkpt>
      <trkpt lat="45.33135" lon="6.59132">
        <ele>2346.4</ele>
        <time>2021-01-01T13:07:55Z</time>
      </trkpt>
      <trkpt lat="45.33137" lon="6.59134">
        <ele>2344.8</ele>
        <time>2021-01-01T13:08:00Z</time>
      </trkpt>
      <trkpt lat="45.3314" lon="6.59137">
        <ele>2346.6</ele>
        <time>2021-01-01T13:08:05Z</time>
      </trkpt>
      <trkpt lat="45.33143" lon="6.59141">
        <ele>2347.8</ele>
        <time>2021-01-01T13:08:10Z</time>
      </trkpt>
      <trkpt lat="45.33145" lon="6.59144">
        <ele>2347.2</ele>
        <time>2021-01-01T13:08:15Z</time>
      </trkpt>
      <trkpt lat="45.33145" lon="6.59147">
        <ele>2351</ele>
        <time>2021-01-01T13:08:20Z</time>
      </trkpt>
      <trkpt lat="45.33144" lon="6.59152">
        <ele>2351</ele>
        <time>2021-01-01T13:08:25Z</time>
      </trkpt>
      <trkpt lat="45.33145" lon="6.59156">
        <ele>2350</ele>
        <time>2021-01-01T13:08:30Z</time>
      </trkpt>
      <trkpt lat="45.33147" lon="6.59159">
        <ele>2350.2</ele>
        <time>2021-01-01T13:08:35Z</time>
      </trkpt>
      <trkpt lat="45.33149" lon="6.59162">
        <ele>2353</ele>
        <time>2021-01-01T13:08:40Z</time>
      </trkpt>
      <trkpt lat="45.33151" lon="6.59165">
        <ele>2349.2</ele>
        <time>2021-01-01T13:08:45Z</time>
      </trkpt>
      <trkpt lat="45.33153" lon="6.59168">
        <ele>2352</ele>
        <time>2021-01-01T13:08:50Z</time>
      </trkpt>
      <trkpt lat="45.33151" lon="6.59171">
        <ele>2350</ele>
        <time>2021-01-01T13:08:55Z</time>
      </trkpt>
      <trkpt lat="45.3315" lon="6.59174">
        <ele>2354</ele>
        <time>2021-01-01T13:09:00Z</time>
      </trkpt>
      <trkpt lat="45.33148" lon="6.59177">
        <ele>2353.4</ele>
        <time>2021-01-01T13:09:05Z</time>
      </trkpt>
      <trkpt lat="45.33147" lon="6.5918">
        <ele>2352.8</ele>
        <time>2021-01-01T13:09:10Z</time>
      </trkpt>
      <trkpt lat="45.33145" lon="6.59183">
        <ele>2355.8</ele>
        <time>2021-01-01T13:09:15Z</time>
      </trkpt>
      <trkpt lat="45.33146" lon="6.59185">
        <ele>2358.2</ele>
        <time>2021-01-01T13:09:20Z</time>
      </trkpt>
      <trkpt lat="45.33147" lon="6.59188">
        <ele>2357</ele>
        <time>2021-01-01T13:09:25Z</time>
      </trkpt>
      <trkpt lat="45.33149" lon="6.5919">
        <ele>2355.8</ele>
        <time>2021-01-01T13:09:30Z</time>
      </trkpt>
      <trkpt lat="45.33151" lon="6.59191">
        <ele>2360.4</ele>
        <time>2021-01-01T13:09:35Z</time>
      </trkpt>
      <trkpt lat="45.33151" lon="6.59193">
        <ele>2360</ele>
        <time>2021-01-01T13:09:40Z</time>
      </trkpt>
      <trkpt lat="45.33149" lon="6.59196">
        <ele>2361.8</ele>
        <time>2021-01-01T13:09:45Z</time>
      </trkpt>
      <trkpt lat="45.33148" lon="6.59199">
        <ele>2360</ele>
        <time>2021-01-01T13:09:50Z</time>
      </trkpt>
      <trkpt lat="45.33147" lon="6.59202">
        <ele>2363</ele>
        <time>2021-01-01T13:09:55Z</time>
      </trkpt>
      <trkpt lat="45.33145" lon="6.59204">
        <ele>2364</ele>
        <time>2021-01-01T13:10:00Z</time>
      </trkpt>
      <trkpt lat="45.33144" lon="6.59206">
        <ele>2363.4</ele>
        <time>2021-01-01T13:10:05Z</time>
      </trkpt>
      <trkpt lat="45.33143" lon="6.59208">
        <ele>2364.4</ele>
        <time>2021-01-01T13:10:10Z</time>
      </trkpt>
      <trkpt lat="45.33141" lon="6.59211">
        <ele>2366</ele>
        <time>2021-01-01T13:10:15Z</time>
      </trkpt>
      <trkpt lat="45.3314" lon="6.59214">
        <ele>2367</ele>
        <time>2021-01-01T13:10:20Z</time>
      </trkpt>
      <trkpt lat="45.33139" lon="6.59216">
        <ele>2367.4</ele>
        <time>2021-01-01T13:10:25Z</time>
      </trkpt>
      <trkpt lat="45.33137" lon="6.59219">
        <ele>2367.4</ele>
        <time>2021-01-01T13:10:30Z</time>
      </trkpt>
      <trkpt lat="45.33136" lon="6.59222">
        <ele>2369.4</ele>
        <time>2021-01-01T13:10:35Z</time>
      </trkpt>
      <trkpt lat="45.33134" lon="6.59225">
        <ele>2369.6</ele>
        <time>2021-01-01T13:10:40Z</time>
      </trkpt>
      <trkpt lat="45.33133" lon="6.59226">
        <ele>2370.8</ele>
        <time>2021-01-01T13:10:45Z</time>
      </trkpt>
      <trkpt lat="45.33132" lon="6.59228">
        <ele>2371.8</ele>
        <time>2021-01-01T13:10:50Z</time>
      </trkpt>
      <trkpt lat="45.3313" lon="6.5923">
        <ele>2370</ele>
        <time>2021-01-01T13:10:55Z</time>
      </trkpt>
      <trkpt lat="45.33129" lon="6.59232">
        <ele>2368</ele>
        <time>2021-01-01T13:11:00Z</time>
      </trkpt>
      <trkpt lat="45.33127" lon="6.59234">
        <ele>2370.8</ele>
        <time>2021-01-01T13:11:05Z</time>
      </trkpt>
      <trkpt lat="45.33126" lon="6.59237">
        <ele>2372.4</ele>
        <time>2021-01-01T13:11:10Z</time>
      </trkpt>
      <trkpt lat="45.33125" lon="6.59239">
        <ele>2371.8</ele>
        <time>2021-01-01T13:11:15Z</time>
      </trkpt>
      <trkpt lat="45.33124" lon="6.59242">
        <ele>2374.4</ele>
        <time>2021-01-01T13:11:20Z</time>
      </trkpt>
      <trkpt lat="45.33123" lon="6.59244">
        <ele>2372.6</ele>
        <time>2021-01-01T13:11:25Z</time>
      </trkpt>
      <trkpt lat="45.33125" lon="6.59246">
        <ele>2373.2</ele>
        <time>2021-01-01T13:11:30Z</time>
      </trkpt>
      <trkpt lat="45.33127" lon="6.59248">
        <ele>2376</ele>
        <time>2021-01-01T13:11:35Z</time>
      </trkpt>
      <trkpt lat="45.33129" lon="6.5925">
        <ele>2375.2</ele>
        <time>2021-01-01T13:11:40Z</time>
      </trkpt>
      <trkpt lat="45.33131" lon="6.59251">
        <ele>2377.4</ele>
        <time>2021-01-01T13:11:45Z</time>
      </trkpt>
      <trkpt lat="45.33133" lon="6.59253">
        <ele>2377.2</ele>
        <time>2021-01-01T13:11:50Z</time>
      </trkpt>
      <trkpt lat="45.33135" lon="6.59255">
        <ele>2378.2</ele>
        <time>2021-01-01T13:11:55Z</time>
      </trkpt>
      <trkpt lat="45.33136" lon="6.59256">
        <ele>2378.8</ele>
        <time>2021-01-01T13:12:00Z</time>
      </trkpt>
      <trkpt lat="45.33138" lon="6.59257">
        <ele>2380.6</ele>
        <time>2021-01-01T13:12:05Z</time>
      </trkpt>
      <trkpt lat="45.3314" lon="6.59259">
        <ele>2379.4</ele>
        <time>2021-01-01T13:12:11Z</time>
      </trkpt>
      <trkpt lat="45.33142" lon="6.5926">
        <ele>2378.4</ele>
        <time>2021-01-01T13:12:16Z</time>
      </trkpt>
      <trkpt lat="45.33143" lon="6.5926">
        <ele>2378.4</ele>
        <time>2021-01-01T13:12:21Z</time>
      </trkpt>
      <trkpt lat="45.33144" lon="6.59261">
        <ele>2377.4</ele>
        <time>2021-01-01T13:12:26Z</time>
      </trkpt>
      <trkpt lat="45.33146" lon="6.59263">
        <ele>2377.6</ele>
        <time>2021-01-01T13:12:31Z</time>
      </trkpt>
      <trkpt lat="45.33148" lon="6.59264">
        <ele>2380.4</ele>
        <time>2021-01-01T13:12:36Z</time>
      </trkpt>
      <trkpt lat="45.3315" lon="6.59265">
        <ele>2383</ele>
        <time>2021-01-01T13:12:41Z</time>
      </trkpt>
      <trkpt lat="45.33151" lon="6.59266">
        <ele>2381.4</ele>
        <time>2021-01-01T13:12:46Z</time>
      </trkpt>
      <trkpt lat="45.33151" lon="6.59267">
        <ele>2380.8</ele>
        <time>2021-01-01T13:12:51Z</time>
      </trkpt>
      <trkpt lat="45.3315" lon="6.59268">
        <ele>2380.8</ele>
        <time>2021-01-01T13:12:56Z</time>
      </trkpt>
      <trkpt lat="45.33149" lon="6.5927">
        <ele>2379.8</ele>
        <time>2021-01-01T13:13:01Z</time>
      </trkpt>
      <trkpt lat="45.33148" lon="6.59272">
        <ele>2379.2</ele>
        <time>2021-01-01T13:13:06Z</time>
      </trkpt>
      <trkpt lat="45.33147" lon="6.59274">
        <ele>2381</ele>
        <time>2021-01-01T13:13:11Z</time>
      </trkpt>
      <trkpt lat="45.33146" lon="6.59277">
        <ele>2382.2</ele>
        <time>2021-01-01T13:13:16Z</time>
      </trkpt>
      <trkpt lat="45.33145" lon="6.59278">
        <ele>2383.4</ele>
        <time>2021-01-01T13:13:21Z</time>
      </trkpt>
      <trkpt lat="45.33145" lon="6.59278">
        <ele>2387.2</ele>
        <time>2021-01-01T13:17:17Z</time>
      </trkpt>
      <trkpt lat="45.33144" lon="6.59281">
        <ele>2389.8</ele>
        <time>2021-01-01T13:17:22Z</time>
      </trkpt>
      <trkpt lat="45.33143" lon="6.59284">
        <ele>2387</ele>
        <time>2021-01-01T13:17:27Z</time>
      </trkpt>
      <trkpt lat="45.33141" lon="6.59287">
        <ele>2386.6</ele>
        <time>2021-01-01T13:17:32Z</time>
      </trkpt>
      <trkpt lat="45.33139" lon="6.5929">
        <ele>2388.4</ele>
        <time>2021-01-01T13:17:37Z</time>
      </trkpt>
      <trkpt lat="45.33138" lon="6.59293">
        <ele>2392.8</ele>
        <time>2021-01-01T13:17:42Z</time>
      </trkpt>
      <trkpt lat="45.33136" lon="6.59296">
        <ele>2393.8</ele>
        <time>2021-01-01T13:17:47Z</time>
      </trkpt>
      <trkpt lat="45.33135" lon="6.59299">
        <ele>2391.8</ele>
        <time>2021-01-01T13:17:52Z</time>
      </trkpt>
      <trkpt lat="45.33134" lon="6.59302">
        <ele>2393.2</ele>
        <time>2021-01-01T13:17:57Z</time>
      </trkpt>
      <trkpt lat="45.33134" lon="6.59305">
        <ele>2392.2</ele>
        <time>2021-01-01T13:18:02Z</time>
      </trkpt>
      <trkpt lat="45.33137" lon="6.59307">
        <ele>2393.6</ele>
        <time>2021-01-01T13:18:07Z</time>
      </trkpt>
      <trkpt lat="45.3314" lon="6.59309">
        <ele>2393.8</ele>
        <time>2021-01-01T13:18:12Z</time>
      </trkpt>
      <trkpt lat="45.33142" lon="6.5931">
        <ele>2395</ele>
        <time>2021-01-01T13:18:17Z</time>
      </trkpt>
      <trkpt lat="45.33144" lon="6.59311">
        <ele>2394.4</ele>
        <time>2021-01-01T13:18:22Z</time>
      </trkpt>
      <trkpt lat="45.33146" lon="6.59311">
        <ele>2393.8</ele>
        <time>2021-01-01T13:18:27Z</time>
      </trkpt>
      <trkpt lat="45.33149" lon="6.59312">
        <ele>2393.2</ele>
        <time>2021-01-01T13:18:32Z</time>
      </trkpt>
      <trkpt lat="45.33151" lon="6.59313">
        <ele>2395.4</ele>
        <time>2021-01-01T13:18:37Z</time>
      </trkpt>
      <trkpt lat="45.33152" lon="6.59313">
        <ele>2394</ele>
        <time>2021-01-01T13:18:42Z</time>
      </trkpt>
      <trkpt lat="45.33154" lon="6.59314">
        <ele>2397.2</ele>
        <time>2021-01-01T13:18:47Z</time>
      </trkpt>
      <trkpt lat="45.33156" lon="6.59316">
        <ele>2397.6</ele>
        <time>2021-01-01T13:18:52Z</time>
      </trkpt>
      <trkpt lat="45.33158" lon="6.59317">
        <ele>2394.8</ele>
        <time>2021-01-01T13:18:57Z</time>
      </trkpt>
      <trkpt lat="45.3316" lon="6.59318">
        <ele>2399.6</ele>
        <time>2021-01-01T13:19:02Z</time>
      </trkpt>
      <trkpt lat="45.33161" lon="6.5932">
        <ele>2398.6</ele>
        <time>2021-01-01T13:19:07Z</time>
      </trkpt>
      <trkpt lat="45.33163" lon="6.59321">
        <ele>2396.8</ele>
        <time>2021-01-01T13:19:12Z</time>
      </trkpt>
      <trkpt lat="45.33165" lon="6.59323">
        <ele>2399</ele>
        <time>2021-01-01T13:19:17Z</time>
      </trkpt>
      <trkpt lat="45.33167" lon="6.59324">
        <ele>2400.2</ele>
        <time>2021-01-01T13:19:22Z</time>
      </trkpt>
      <trkpt lat="45.33168" lon="6.59325">
        <ele>2400.8</ele>
        <time>2021-01-01T13:19:27Z</time>
      </trkpt>
      <trkpt lat="45.33169" lon="6.59327">
        <ele>2401.6</ele>
        <time>2021-01-01T13:19:32Z</time>
      </trkpt>
      <trkpt lat="45.33168" lon="6.59328">
        <ele>2402</ele>
        <time>2021-01-01T13:19:37Z</time>
      </trkpt>
      <trkpt lat="45.33167" lon="6.5933">
        <ele>2402.6</ele>
        <time>2021-01-01T13:19:42Z</time>
      </trkpt>
      <trkpt lat="45.33165" lon="6.59332">
        <ele>2405</ele>
        <time>2021-01-01T13:19:47Z</time>
      </trkpt>
      <trkpt lat="45.33163" lon="6.59334">
        <ele>2405.8</ele>
        <time>2021-01-01T13:19:52Z</time>
      </trkpt>
      <trkpt lat="45.33162" lon="6.59336">
        <ele>2408</ele>
        <time>2021-01-01T13:19:57Z</time>
      </trkpt>
      <trkpt lat="45.33161" lon="6.59337">
        <ele>2407.6</ele>
        <time>2021-01-01T13:20:02Z</time>
      </trkpt>
      <trkpt lat="45.3316" lon="6.59338">
        <ele>2407.6</ele>
        <time>2021-01-01T13:20:07Z</time>
      </trkpt>
      <trkpt lat="45.33158" lon="6.5934">
        <ele>2411.6</ele>
        <time>2021-01-01T13:20:12Z</time>
      </trkpt>
      <trkpt lat="45.33156" lon="6.59342">
        <ele>2409.2</ele>
        <time>2021-01-01T13:20:17Z</time>
      </trkpt>
      <trkpt lat="45.33154" lon="6.59344">
        <ele>2409.4</ele>
        <time>2021-01-01T13:20:22Z</time>
      </trkpt>
      <trkpt lat="45.33154" lon="6.59347">
        <ele>2410.6</ele>
        <time>2021-01-01T13:20:27Z</time>
      </trkpt>
      <trkpt lat="45.33155" lon="6.59349">
        <ele>2412.6</ele>
        <time>2021-01-01T13:20:32Z</time>
      </trkpt>
      <trkpt lat="45.33156" lon="6.5935">
        <ele>2412.4</ele>
        <time>2021-01-01T13:20:37Z</time>
      </trkpt>
      <trkpt lat="45.33158" lon="6.59351">
        <ele>2410.4</ele>
        <time>2021-01-01T13:20:42Z</time>
      </trkpt>
      <trkpt lat="45.33161" lon="6.59352">
        <ele>2410</ele>
        <time>2021-01-01T13:20:47Z</time>
      </trkpt>
      <trkpt lat="45.33163" lon="6.59354">
        <ele>2411</ele>
        <time>2021-01-01T13:20:52Z</time>
      </trkpt>
      <trkpt lat="45.33165" lon="6.59355">
        <ele>2415</ele>
        <time>2021-01-01T13:20:57Z</time>
      </trkpt>
      <trkpt lat="45.33168" lon="6.59357">
        <ele>2414</ele>
        <time>2021-01-01T13:21:02Z</time>
      </trkpt>
      <trkpt lat="45.3317" lon="6.59358">
        <ele>2414.8</ele>
        <time>2021-01-01T13:21:07Z</time>
      </trkpt>
      <trkpt lat="45.33172" lon="6.5936">
        <ele>2412.4</ele>
        <time>2021-01-01T13:21:12Z</time>
      </trkpt>
      <trkpt lat="45.33174" lon="6.59362">
        <ele>2416.4</ele>
        <time>2021-01-01T13:21:17Z</time>
      </trkpt>
      <trkpt lat="45.33175" lon="6.59363">
        <ele>2417.2</ele>
        <time>2021-01-01T13:21:22Z</time>
      </trkpt>
      <trkpt lat="45.33175" lon="6.59363">
        <ele>2416.4</ele>
        <time>2021-01-01T13:21:27Z</time>
      </trkpt>
      <trkpt lat="45.33176" lon="6.59364">
        <ele>2416.4</ele>
        <time>2021-01-01T13:21:32Z</time>
      </trkpt>
      <trkpt lat="45.33178" lon="6.59366">
        <ele>2415.2</ele>
        <time>2021-01-01T13:21:37Z</time>
      </trkpt>
      <trkpt lat="45.33179" lon="6.59368">
        <ele>2414.2</ele>
        <time>2021-01-01T13:21:42Z</time>
      </trkpt>
      <trkpt lat="45.33181" lon="6.5937">
        <ele>2414.4</ele>
        <time>2021-01-01T13:21:47Z</time>
      </trkpt>
      <trkpt lat="45.33182" lon="6.59373">
        <ele>2417.2</ele>
        <time>2021-01-01T13:21:52Z</time>
      </trkpt>
      <trkpt lat="45.33184" lon="6.59375">
        <ele>2417.4</ele>
        <time>2021-01-01T13:21:57Z</time>
      </trkpt>
      <trkpt lat="45.33185" lon="6.59378">
        <ele>2416.4</ele>
        <time>2021-01-01T13:22:02Z</time>
      </trkpt>
      <trkpt lat="45.33187" lon="6.5938">
        <ele>2421</ele>
        <time>2021-01-01T13:22:07Z</time>
      </trkpt>
      <trkpt lat="45.33189" lon="6.59383">
        <ele>2417.8</ele>
        <time>2021-01-01T13:22:12Z</time>
      </trkpt>
      <trkpt lat="45.3319" lon="6.59385">
        <ele>2421.8</ele>
        <time>2021-01-01T13:22:17Z</time>
      </trkpt>
      <trkpt lat="45.33191" lon="6.59386">
        <ele>2419.8</ele>
        <time>2021-01-01T13:22:22Z</time>
      </trkpt>
      <trkpt lat="45.33192" lon="6.59388">
        <ele>2419.6</ele>
        <time>2021-01-01T13:22:27Z</time>
      </trkpt>
      <trkpt lat="45.33192" lon="6.59388">
        <ele>2420.2</ele>
        <time>2021-01-01T13:22:32Z</time>
      </trkpt>
      <trkpt lat="45.33193" lon="6.59389">
        <ele>2418.2</ele>
        <time>2021-01-01T13:22:37Z</time>
      </trkpt>
      <trkpt lat="45.33194" lon="6.5939">
        <ele>2421</ele>
        <time>2021-01-01T13:22:42Z</time>
      </trkpt>
      <trkpt lat="45.33196" lon="6.59392">
        <ele>2418</ele>
        <time>2021-01-01T13:22:47Z</time>
      </trkpt>
      <trkpt lat="45.33197" lon="6.59394">
        <ele>2420.2</ele>
        <time>2021-01-01T13:22:52Z</time>
      </trkpt>
      <trkpt lat="45.33198" lon="6.59396">
        <ele>2420.8</ele>
        <time>2021-01-01T13:22:57Z</time>
      </trkpt>
      <trkpt lat="45.332" lon="6.59398">
        <ele>2426.2</ele>
        <time>2021-01-01T13:23:02Z</time>
      </trkpt>
      <trkpt lat="45.33202" lon="6.59399">
        <ele>2426.4</ele>
        <time>2021-01-01T13:23:07Z</time>
      </trkpt>
      <trkpt lat="45.33203" lon="6.59401">
        <ele>2425.4</ele>
        <time>2021-01-01T13:23:12Z</time>
      </trkpt>
      <trkpt lat="45.33204" lon="6.59402">
        <ele>2430.2</ele>
        <time>2021-01-01T13:23:17Z</time>
      </trkpt>
      <trkpt lat="45.33206" lon="6.59404">
        <ele>2427.6</ele>
        <time>2021-01-01T13:23:22Z</time>
      </trkpt>
      <trkpt lat="45.33206" lon="6.59406">
        <ele>2423.6</ele>
        <time>2021-01-01T13:23:27Z</time>
      </trkpt>
      <trkpt lat="45.33205" lon="6.59409">
        <ele>2429.8</ele>
        <time>2021-01-01T13:23:32Z</time>
      </trkpt>
      <trkpt lat="45.33203" lon="6.5941">
        <ele>2428.8</ele>
        <time>2021-01-01T13:23:37Z</time>
      </trkpt>
      <trkpt lat="45.33201" lon="6.59412">
        <ele>2430.2</ele>
        <time>2021-01-01T13:23:42Z</time>
      </trkpt>
      <trkpt lat="45.332" lon="6.59414">
        <ele>2428.8</ele>
        <time>2021-01-01T13:23:47Z</time>
      </trkpt>
      <trkpt lat="45.33198" lon="6.59416">
        <ele>2430.8</ele>
        <time>2021-01-01T13:23:52Z</time>
      </trkpt>
      <trkpt lat="45.33196" lon="6.59418">
        <ele>2425.6</ele>
        <time>2021-01-01T13:23:57Z</time>
      </trkpt>
      <trkpt lat="45.33196" lon="6.59418">
        <ele>2429</ele>
        <time>2021-01-01T13:24:37Z</time>
      </trkpt>
      <trkpt lat="45.33194" lon="6.59416">
        <ele>2433.2</ele>
        <time>2021-01-01T13:24:42Z</time>
      </trkpt>
      <trkpt lat="45.33193" lon="6.59415">
        <ele>2433.4</ele>
        <time>2021-01-01T13:24:47Z</time>
      </trkpt>
      <trkpt lat="45.33192" lon="6.59415">
        <ele>2433</ele>
        <time>2021-01-01T13:24:57Z</time>
      </trkpt>
      <trkpt lat="45.33189" lon="6.59416">
        <ele>2434.2</ele>
        <time>2021-01-01T13:25:02Z</time>
      </trkpt>
      <trkpt lat="45.33187" lon="6.59417">
        <ele>2434</ele>
        <time>2021-01-01T13:25:07Z</time>
      </trkpt>
      <trkpt lat="45.33184" lon="6.59417">
        <ele>2434.2</ele>
        <time>2021-01-01T13:25:12Z</time>
      </trkpt>
      <trkpt lat="45.33182" lon="6.59416">
        <ele>2433.4</ele>
        <time>2021-01-01T13:25:17Z</time>
      </trkpt>
      <trkpt lat="45.33179" lon="6.59415">
        <ele>2433.2</ele>
        <time>2021-01-01T13:25:22Z</time>
      </trkpt>
      <trkpt lat="45.33176" lon="6.59413">
        <ele>2431.6</ele>
        <time>2021-01-01T13:25:27Z</time>
      </trkpt>
      <trkpt lat="45.33174" lon="6.59412">
        <ele>2432.2</ele>
        <time>2021-01-01T13:25:32Z</time>
      </trkpt>
      <trkpt lat="45.33171" lon="6.5941">
        <ele>2437</ele>
        <time>2021-01-01T13:25:37Z</time>
      </trkpt>
      <trkpt lat="45.33169" lon="6.59409">
        <ele>2438.6</ele>
        <time>2021-01-01T13:25:42Z</time>
      </trkpt>
      <trkpt lat="45.33167" lon="6.59408">
        <ele>2441.2</ele>
        <time>2021-01-01T13:25:47Z</time>
      </trkpt>
      <trkpt lat="45.33165" lon="6.59407">
        <ele>2441</ele>
        <time>2021-01-01T13:25:52Z</time>
      </trkpt>
      <trkpt lat="45.33163" lon="6.59406">
        <ele>2440.2</ele>
        <time>2021-01-01T13:25:57Z</time>
      </trkpt>
      <trkpt lat="45.33161" lon="6.59405">
        <ele>2435.8</ele>
        <time>2021-01-01T13:26:02Z</time>
      </trkpt>
      <trkpt lat="45.33159" lon="6.59404">
        <ele>2437.4</ele>
        <time>2021-01-01T13:26:07Z</time>
      </trkpt>
      <trkpt lat="45.33157" lon="6.59404">
        <ele>2434.8</ele>
        <time>2021-01-01T13:26:12Z</time>
      </trkpt>
      <trkpt lat="45.33155" lon="6.59403">
        <ele>2434.4</ele>
        <time>2021-01-01T13:26:17Z</time>
      </trkpt>
      <trkpt lat="45.33153" lon="6.59403">
        <ele>2437.8</ele>
        <time>2021-01-01T13:26:22Z</time>
      </trkpt>
      <trkpt lat="45.3315" lon="6.59403">
        <ele>2437.4</ele>
        <time>2021-01-01T13:26:27Z</time>
      </trkpt>
      <trkpt lat="45.33148" lon="6.59404">
        <ele>2439.8</ele>
        <time>2021-01-01T13:26:32Z</time>
      </trkpt>
      <trkpt lat="45.33145" lon="6.59404">
        <ele>2438.6</ele>
        <time>2021-01-01T13:26:37Z</time>
      </trkpt>
      <trkpt lat="45.33143" lon="6.59406">
        <ele>2439.2</ele>
        <time>2021-01-01T13:26:42Z</time>
      </trkpt>
      <trkpt lat="45.33143" lon="6.5941">
        <ele>2440</ele>
        <time>2021-01-01T13:26:47Z</time>
      </trkpt>
      <trkpt lat="45.33144" lon="6.59413">
        <ele>2437.2</ele>
        <time>2021-01-01T13:26:52Z</time>
      </trkpt>
      <trkpt lat="45.33146" lon="6.59415">
        <ele>2441.2</ele>
        <time>2021-01-01T13:26:57Z</time>
      </trkpt>
      <trkpt lat="45.33147" lon="6.59416">
        <ele>2442.2</ele>
        <time>2021-01-01T13:27:02Z</time>
      </trkpt>
      <trkpt lat="45.3315" lon="6.59418">
        <ele>2442.4</ele>
        <time>2021-01-01T13:27:07Z</time>
      </trkpt>
      <trkpt lat="45.33153" lon="6.59419">
        <ele>2445.6</ele>
        <time>2021-01-01T13:27:12Z</time>
      </trkpt>
      <trkpt lat="45.33155" lon="6.5942">
        <ele>2445.6</ele>
        <time>2021-01-01T13:27:17Z</time>
      </trkpt>
      <trkpt lat="45.33158" lon="6.59422">
        <ele>2443.4</ele>
        <time>2021-01-01T13:27:22Z</time>
      </trkpt>
      <trkpt lat="45.3316" lon="6.59425">
        <ele>2445.2</ele>
        <time>2021-01-01T13:27:27Z</time>
      </trkpt>
      <trkpt lat="45.33162" lon="6.59428">
        <ele>2445.4</ele>
        <time>2021-01-01T13:27:32Z</time>
      </trkpt>
      <trkpt lat="45.33164" lon="6.5943">
        <ele>2443.8</ele>
        <time>2021-01-01T13:27:37Z</time>
      </trkpt>
      <trkpt lat="45.33165" lon="6.59433">
        <ele>2446.6</ele>
        <time>2021-01-01T13:27:42Z</time>
      </trkpt>
      <trkpt lat="45.33167" lon="6.59436">
        <ele>2445.4</ele>
        <time>2021-01-01T13:27:47Z</time>
      </trkpt>
      <trkpt lat="45.33168" lon="6.59439">
        <ele>2446</ele>
        <time>2021-01-01T13:27:52Z</time>
      </trkpt>
      <trkpt lat="45.33169" lon="6.59442">
        <ele>2444.4</ele>
        <time>2021-01-01T13:27:57Z</time>
      </trkpt>
      <trkpt lat="45.3317" lon="6.59445">
        <ele>2448.2</ele>
        <time>2021-01-01T13:28:02Z</time>
      </trkpt>
      <trkpt lat="45.33172" lon="6.59448">
        <ele>2447</ele>
        <time>2021-01-01T13:28:07Z</time>
      </trkpt>
      <trkpt lat="45.33173" lon="6.5945">
        <ele>2449.2</ele>
        <time>2021-01-01T13:28:12Z</time>
      </trkpt>
      <trkpt lat="45.33174" lon="6.59453">
        <ele>2449.4</ele>
        <time>2021-01-01T13:28:17Z</time>
      </trkpt>
      <trkpt lat="45.33175" lon="6.59456">
        <ele>2451.2</ele>
        <time>2021-01-01T13:28:22Z</time>
      </trkpt>
      <trkpt lat="45.33176" lon="6.59458">
        <ele>2451</ele>
        <time>2021-01-01T13:28:27Z</time>
      </trkpt>
      <trkpt lat="45.33176" lon="6.5946">
        <ele>2451.2</ele>
        <time>2021-01-01T13:28:32Z</time>
      </trkpt>
      <trkpt lat="45.33177" lon="6.59463">
        <ele>2453.8</ele>
        <time>2021-01-01T13:28:37Z</time>
      </trkpt>
      <trkpt lat="45.33178" lon="6.59465">
        <ele>2455.4</ele>
        <time>2021-01-01T13:28:42Z</time>
      </trkpt>
      <trkpt lat="45.33179" lon="6.59468">
        <ele>2456</ele>
        <time>2021-01-01T13:28:47Z</time>
      </trkpt>
      <trkpt lat="45.3318" lon="6.59471">
        <ele>2454.2</ele>
        <time>2021-01-01T13:28:52Z</time>
      </trkpt>
      <trkpt lat="45.33181" lon="6.59474">
        <ele>2456.8</ele>
        <time>2021-01-01T13:28:57Z</time>
      </trkpt>
      <trkpt lat="45.33182" lon="6.59478">
        <ele>2453.2</ele>
        <time>2021-01-01T13:29:02Z</time>
      </trkpt>
      <trkpt lat="45.33183" lon="6.59481">
        <ele>2455</ele>
        <time>2021-01-01T13:29:07Z</time>
      </trkpt>
      <trkpt lat="45.33183" lon="6.59484">
        <ele>2455</ele>
        <time>2021-01-01T13:29:12Z</time>
      </trkpt>
      <trkpt lat="45.33183" lon="6.59484">
        <ele>2455.6</ele>
        <time>2021-01-01T13:29:27Z</time>
      </trkpt>
      <trkpt lat="45.33183" lon="6.59487">
        <ele>2457.4</ele>
        <time>2021-01-01T13:29:32Z</time>
      </trkpt>
      <trkpt lat="45.33184" lon="6.59489">
        <ele>2455.4</ele>
        <time>2021-01-01T13:29:37Z</time>
      </trkpt>
      <trkpt lat="45.33186" lon="6.59493">
        <ele>2456.8</ele>
        <time>2021-01-01T13:29:42Z</time>
      </trkpt>
      <trkpt lat="45.33187" lon="6.59496">
        <ele>2457.4</ele>
        <time>2021-01-01T13:29:47Z</time>
      </trkpt>
      <trkpt lat="45.33188" lon="6.59501">
        <ele>2456.4</ele>
        <time>2021-01-01T13:29:52Z</time>
      </trkpt>
      <trkpt lat="45.3319" lon="6.59504">
        <ele>2456.6</ele>
        <time>2021-01-01T13:29:57Z</time>
      </trkpt>
      <trkpt lat="45.33191" lon="6.59507">
        <ele>2455.8</ele>
        <time>2021-01-01T13:30:02Z</time>
      </trkpt>
      <trkpt lat="45.33192" lon="6.5951">
        <ele>2456.8</ele>
        <time>2021-01-01T13:30:07Z</time>
      </trkpt>
      <trkpt lat="45.33194" lon="6.59512">
        <ele>2459</ele>
        <time>2021-01-01T13:30:12Z</time>
      </trkpt>
      <trkpt lat="45.33197" lon="6.59515">
        <ele>2458.4</ele>
        <time>2021-01-01T13:30:17Z</time>
      </trkpt>
      <trkpt lat="45.33199" lon="6.59517">
        <ele>2457.2</ele>
        <time>2021-01-01T13:30:22Z</time>
      </trkpt>
      <trkpt lat="45.33201" lon="6.59519">
        <ele>2458.4</ele>
        <time>2021-01-01T13:30:27Z</time>
      </trkpt>
      <trkpt lat="45.33201" lon="6.59522">
        <ele>2458.4</ele>
        <time>2021-01-01T13:30:32Z</time>
      </trkpt>
      <trkpt lat="45.33202" lon="6.59525">
        <ele>2459.4</ele>
        <time>2021-01-01T13:30:37Z</time>
      </trkpt>
      <trkpt lat="45.33202" lon="6.59527">
        <ele>2458.6</ele>
        <time>2021-01-01T13:30:42Z</time>
      </trkpt>
      <trkpt lat="45.33202" lon="6.5953">
        <ele>2460.8</ele>
        <time>2021-01-01T13:30:47Z</time>
      </trkpt>
      <trkpt lat="45.33203" lon="6.59533">
        <ele>2460.4</ele>
        <time>2021-01-01T13:30:52Z</time>
      </trkpt>
      <trkpt lat="45.33203" lon="6.59535">
        <ele>2462.4</ele>
        <time>2021-01-01T13:30:57Z</time>
      </trkpt>
      <trkpt lat="45.33204" lon="6.59538">
        <ele>2460.2</ele>
        <time>2021-01-01T13:31:02Z</time>
      </trkpt>
      <trkpt lat="45.33204" lon="6.59541">
        <ele>2463.6</ele>
        <time>2021-01-01T13:31:07Z</time>
      </trkpt>
      <trkpt lat="45.33204" lon="6.59544">
        <ele>2464.2</ele>
        <time>2021-01-01T13:31:12Z</time>
      </trkpt>
      <trkpt lat="45.33204" lon="6.59547">
        <ele>2466</ele>
        <time>2021-01-01T13:31:17Z</time>
      </trkpt>
      <trkpt lat="45.33205" lon="6.5955">
        <ele>2467</ele>
        <time>2021-01-01T13:31:22Z</time>
      </trkpt>
      <trkpt lat="45.33205" lon="6.59553">
        <ele>2463.2</ele>
        <time>2021-01-01T13:31:27Z</time>
      </trkpt>
      <trkpt lat="45.33205" lon="6.59557">
        <ele>2462</ele>
        <time>2021-01-01T13:31:32Z</time>
      </trkpt>
      <trkpt lat="45.33206" lon="6.5956">
        <ele>2464</ele>
        <time>2021-01-01T13:31:37Z</time>
      </trkpt>
      <trkpt lat="45.33207" lon="6.59564">
        <ele>2464.8</ele>
        <time>2021-01-01T13:31:42Z</time>
      </trkpt>
      <trkpt lat="45.33207" lon="6.59567">
        <ele>2464.8</ele>
        <time>2021-01-01T13:31:47Z</time>
      </trkpt>
      <trkpt lat="45.33208" lon="6.59571">
        <ele>2465.4</ele>
        <time>2021-01-01T13:31:52Z</time>
      </trkpt>
      <trkpt lat="45.33208" lon="6.59574">
        <ele>2466</ele>
        <time>2021-01-01T13:31:57Z</time>
      </trkpt>
      <trkpt lat="45.33208" lon="6.59574">
        <ele>2466.4</ele>
        <time>2021-01-01T13:32:07Z</time>
      </trkpt>
      <trkpt lat="45.33207" lon="6.59578">
        <ele>2471.4</ele>
        <time>2021-01-01T13:32:12Z</time>
      </trkpt>
      <trkpt lat="45.33206" lon="6.59581">
        <ele>2466.4</ele>
        <time>2021-01-01T13:32:17Z</time>
      </trkpt>
      <trkpt lat="45.33206" lon="6.59585">
        <ele>2467.8</ele>
        <time>2021-01-01T13:32:22Z</time>
      </trkpt>
      <trkpt lat="45.33207" lon="6.59589">
        <ele>2470.6</ele>
        <time>2021-01-01T13:32:27Z</time>
      </trkpt>
      <trkpt lat="45.33208" lon="6.59592">
        <ele>2469.8</ele>
        <time>2021-01-01T13:32:32Z</time>
      </trkpt>
      <trkpt lat="45.33209" lon="6.59596">
        <ele>2469.8</ele>
        <time>2021-01-01T13:32:37Z</time>
      </trkpt>
      <trkpt lat="45.33209" lon="6.59599">
        <ele>2470.2</ele>
        <time>2021-01-01T13:32:42Z</time>
      </trkpt>
      <trkpt lat="45.33209" lon="6.59603">
        <ele>2470</ele>
        <time>2021-01-01T13:32:47Z</time>
      </trkpt>
      <trkpt lat="45.33209" lon="6.59606">
        <ele>2473.2</ele>
        <time>2021-01-01T13:32:52Z</time>
      </trkpt>
      <trkpt lat="45.33209" lon="6.5961">
        <ele>2471.6</ele>
        <time>2021-01-01T13:32:57Z</time>
      </trkpt>
      <trkpt lat="45.33209" lon="6.59613">
        <ele>2473</ele>
        <time>2021-01-01T13:33:02Z</time>
      </trkpt>
      <trkpt lat="45.33209" lon="6.59617">
        <ele>2473.2</ele>
        <time>2021-01-01T13:33:07Z</time>
      </trkpt>
      <trkpt lat="45.3321" lon="6.5962">
        <ele>2470.8</ele>
        <time>2021-01-01T13:33:12Z</time>
      </trkpt>
      <trkpt lat="45.3321" lon="6.59623">
        <ele>2475.8</ele>
        <time>2021-01-01T13:33:17Z</time>
      </trkpt>
      <trkpt lat="45.3321" lon="6.59627">
        <ele>2475</ele>
        <time>2021-01-01T13:33:22Z</time>
      </trkpt>
      <trkpt lat="45.3321" lon="6.5963">
        <ele>2472.6</ele>
        <time>2021-01-01T13:33:27Z</time>
      </trkpt>
      <trkpt lat="45.33211" lon="6.59633">
        <ele>2473.4</ele>
        <time>2021-01-01T13:33:32Z</time>
      </trkpt>
      <trkpt lat="45.3321" lon="6.59635">
        <ele>2472.8</ele>
        <time>2021-01-01T13:33:37Z</time>
      </trkpt>
      <trkpt lat="45.3321" lon="6.59638">
        <ele>2471.2</ele>
        <time>2021-01-01T13:33:42Z</time>
      </trkpt>
      <trkpt lat="45.33211" lon="6.5964">
        <ele>2473.4</ele>
        <time>2021-01-01T13:33:47Z</time>
      </trkpt>
      <trkpt lat="45.33211" lon="6.59643">
        <ele>2475.8</ele>
        <time>2021-01-01T13:33:52Z</time>
      </trkpt>
      <trkpt lat="45.33211" lon="6.59646">
        <ele>2474</ele>
        <time>2021-01-01T13:33:57Z</time>
      </trkpt>
      <trkpt lat="45.33212" lon="6.59649">
        <ele>2476.2</ele>
        <time>2021-01-01T13:34:02Z</time>
      </trkpt>
      <trkpt lat="45.33212" lon="6.59652">
        <ele>2478</ele>
        <time>2021-01-01T13:34:07Z</time>
      </trkpt>
      <trkpt lat="45.33213" lon="6.59655">
        <ele>2480.2</ele>
        <time>2021-01-01T13:34:12Z</time>
      </trkpt>
      <trkpt lat="45.33213" lon="6.59658">
        <ele>2476.8</ele>
        <time>2021-01-01T13:34:17Z</time>
      </trkpt>
      <trkpt lat="45.33214" lon="6.59661">
        <ele>2478.8</ele>
        <time>2021-01-01T13:34:22Z</time>
      </trkpt>
      <trkpt lat="45.33214" lon="6.59664">
        <ele>2479</ele>
        <time>2021-01-01T13:34:27Z</time>
      </trkpt>
      <trkpt lat="45.33215" lon="6.59667">
        <ele>2479.8</ele>
        <time>2021-01-01T13:34:32Z</time>
      </trkpt>
      <trkpt lat="45.33215" lon="6.5967">
        <ele>2479.6</ele>
        <time>2021-01-01T13:34:37Z</time>
      </trkpt>
      <trkpt lat="45.33216" lon="6.59672">
        <ele>2478</ele>
        <time>2021-01-01T13:34:42Z</time>
      </trkpt>
      <trkpt lat="45.33216" lon="6.59675">
        <ele>2479.8</ele>
        <time>2021-01-01T13:34:47Z</time>
      </trkpt>
      <trkpt lat="45.33216" lon="6.59678">
        <ele>2482.2</ele>
        <time>2021-01-01T13:34:52Z</time>
      </trkpt>
      <trkpt lat="45.33215" lon="6.59681">
        <ele>2483.8</ele>
        <time>2021-01-01T13:34:57Z</time>
      </trkpt>
      <trkpt lat="45.33215" lon="6.59684">
        <ele>2482.2</ele>
        <time>2021-01-01T13:35:02Z</time>
      </trkpt>
      <trkpt lat="45.33213" lon="6.59687">
        <ele>2481.6</ele>
        <time>2021-01-01T13:35:07Z</time>
      </trkpt>
      <trkpt lat="45.33211" lon="6.59688">
        <ele>2483</ele>
        <time>2021-01-01T13:35:12Z</time>
      </trkpt>
      <trkpt lat="45.3321" lon="6.59688">
        <ele>2483.6</ele>
        <time>2021-01-01T13:35:17Z</time>
      </trkpt>
      <trkpt lat="45.33208" lon="6.59688">
        <ele>2485.6</ele>
        <time>2021-01-01T13:35:22Z</time>
      </trkpt>
      <trkpt lat="45.33206" lon="6.59688">
        <ele>2484</ele>
        <time>2021-01-01T13:35:27Z</time>
      </trkpt>
      <trkpt lat="45.33204" lon="6.59688">
        <ele>2482.4</ele>
        <time>2021-01-01T13:35:32Z</time>
      </trkpt>
      <trkpt lat="45.33202" lon="6.59688">
        <ele>2484.4</ele>
        <time>2021-01-01T13:35:37Z</time>
      </trkpt>
      <trkpt lat="45.33201" lon="6.59688">
        <ele>2483.6</ele>
        <time>2021-01-01T13:35:42Z</time>
      </trkpt>
      <trkpt lat="45.33199" lon="6.59687">
        <ele>2483.6</ele>
        <time>2021-01-01T13:35:47Z</time>
      </trkpt>
      <trkpt lat="45.33197" lon="6.59687">
        <ele>2485.4</ele>
        <time>2021-01-01T13:35:52Z</time>
      </trkpt>
      <trkpt lat="45.33197" lon="6.59688">
        <ele>2490.4</ele>
        <time>2021-01-01T13:36:27Z</time>
      </trkpt>
      <trkpt lat="45.33198" lon="6.5969">
        <ele>2491.4</ele>
        <time>2021-01-01T13:36:32Z</time>
      </trkpt>
      <trkpt lat="45.33197" lon="6.59693">
        <ele>2492.8</ele>
        <time>2021-01-01T13:36:37Z</time>
      </trkpt>
      <trkpt lat="45.33197" lon="6.59696">
        <ele>2491.8</ele>
        <time>2021-01-01T13:36:42Z</time>
      </trkpt>
      <trkpt lat="45.33197" lon="6.59699">
        <ele>2490.6</ele>
        <time>2021-01-01T13:36:47Z</time>
      </trkpt>
      <trkpt lat="45.33197" lon="6.59702">
        <ele>2492.4</ele>
        <time>2021-01-01T13:36:52Z</time>
      </trkpt>
      <trkpt lat="45.33196" lon="6.59705">
        <ele>2494.8</ele>
        <time>2021-01-01T13:36:57Z</time>
      </trkpt>
      <trkpt lat="45.33196" lon="6.59708">
        <ele>2495.6</ele>
        <time>2021-01-01T13:37:02Z</time>
      </trkpt>
      <trkpt lat="45.33195" lon="6.59711">
        <ele>2498</ele>
        <time>2021-01-01T13:37:07Z</time>
      </trkpt>
      <trkpt lat="45.33194" lon="6.59714">
        <ele>2498</ele>
        <time>2021-01-01T13:37:12Z</time>
      </trkpt>
      <trkpt lat="45.33194" lon="6.59715">
        <ele>2497</ele>
        <time>2021-01-01T13:39:07Z</time>
      </trkpt>
      <trkpt lat="45.33192" lon="6.59716">
        <ele>2497.8</ele>
        <time>2021-01-01T13:39:12Z</time>
      </trkpt>
      <trkpt lat="45.3319" lon="6.59719">
        <ele>2499.4</ele>
        <time>2021-01-01T13:39:17Z</time>
      </trkpt>
      <trkpt lat="45.33187" lon="6.59719">
        <ele>2499.8</ele>
        <time>2021-01-01T13:39:22Z</time>
      </trkpt>
      <trkpt lat="45.33185" lon="6.59719">
        <ele>2500.2</ele>
        <time>2021-01-01T13:39:27Z</time>
      </trkpt>
      <trkpt lat="45.33183" lon="6.59721">
        <ele>2499</ele>
        <time>2021-01-01T13:39:32Z</time>
      </trkpt>
      <trkpt lat="45.33181" lon="6.59723">
        <ele>2499.8</ele>
        <time>2021-01-01T13:39:37Z</time>
      </trkpt>
      <trkpt lat="45.3318" lon="6.59725">
        <ele>2500.2</ele>
        <time>2021-01-01T13:39:42Z</time>
      </trkpt>
      <trkpt lat="45.33178" lon="6.59727">
        <ele>2499.2</ele>
        <time>2021-01-01T13:39:47Z</time>
      </trkpt>
      <trkpt lat="45.33177" lon="6.59729">
        <ele>2501.2</ele>
        <time>2021-01-01T13:39:52Z</time>
      </trkpt>
      <trkpt lat="45.33175" lon="6.59731">
        <ele>2504</ele>
        <time>2021-01-01T13:39:57Z</time>
      </trkpt>
      <trkpt lat="45.33175" lon="6.59734">
        <ele>2505.8</ele>
        <time>2021-01-01T13:40:02Z</time>
      </trkpt>
      <trkpt lat="45.33174" lon="6.59737">
        <ele>2506.4</ele>
        <time>2021-01-01T13:40:07Z</time>
      </trkpt>
      <trkpt lat="45.33174" lon="6.59739">
        <ele>2505</ele>
        <time>2021-01-01T13:40:12Z</time>
      </trkpt>
      <trkpt lat="45.33173" lon="6.59742">
        <ele>2507.8</ele>
        <time>2021-01-01T13:40:17Z</time>
      </trkpt>
      <trkpt lat="45.33173" lon="6.59745">
        <ele>2508.6</ele>
        <time>2021-01-01T13:40:22Z</time>
      </trkpt>
      <trkpt lat="45.33172" lon="6.59747">
        <ele>2508</ele>
        <time>2021-01-01T13:40:27Z</time>
      </trkpt>
      <trkpt lat="45.33172" lon="6.5975">
        <ele>2505</ele>
        <time>2021-01-01T13:40:32Z</time>
      </trkpt>
      <trkpt lat="45.33172" lon="6.59753">
        <ele>2505.2</ele>
        <time>2021-01-01T13:40:37Z</time>
      </trkpt>
      <trkpt lat="45.33171" lon="6.59755">
        <ele>2506.6</ele>
        <time>2021-01-01T13:40:42Z</time>
      </trkpt>
      <trkpt lat="45.33171" lon="6.59758">
        <ele>2507.2</ele>
        <time>2021-01-01T13:40:47Z</time>
      </trkpt>
      <trkpt lat="45.33171" lon="6.5976">
        <ele>2508.2</ele>
        <time>2021-01-01T13:40:52Z</time>
      </trkpt>
      <trkpt lat="45.33171" lon="6.5976">
        <ele>2507</ele>
        <time>2021-01-01T13:40:57Z</time>
      </trkpt>
      <trkpt lat="45.3317" lon="6.59763">
        <ele>2509.4</ele>
        <time>2021-01-01T13:41:02Z</time>
      </trkpt>
      <trkpt lat="45.3317" lon="6.59766">
        <ele>2509.6</ele>
        <time>2021-01-01T13:41:07Z</time>
      </trkpt>
      <trkpt lat="45.3317" lon="6.59768">
        <ele>2508.4</ele>
        <time>2021-01-01T13:41:12Z</time>
      </trkpt>
      <trkpt lat="45.33169" lon="6.59771">
        <ele>2514.2</ele>
        <time>2021-01-01T13:41:17Z</time>
      </trkpt>
      <trkpt lat="45.33169" lon="6.59774">
        <ele>2512.4</ele>
        <time>2021-01-01T13:41:22Z</time>
      </trkpt>
      <trkpt lat="45.33168" lon="6.59773">
        <ele>2512.8</ele>
        <time>2021-01-01T13:41:27Z</time>
      </trkpt>
      <trkpt lat="45.33166" lon="6.59772">
        <ele>2511.8</ele>
        <time>2021-01-01T13:41:32Z</time>
      </trkpt>
      <trkpt lat="45.33165" lon="6.59771">
        <ele>2511</ele>
        <time>2021-01-01T13:41:37Z</time>
      </trkpt>
      <trkpt lat="45.33164" lon="6.59771">
        <ele>2509.6</ele>
        <time>2021-01-01T13:41:42Z</time>
      </trkpt>
      <trkpt lat="45.33162" lon="6.59769">
        <ele>2509.6</ele>
        <time>2021-01-01T13:41:47Z</time>
      </trkpt>
      <trkpt lat="45.3316" lon="6.59768">
        <ele>2510.6</ele>
        <time>2021-01-01T13:41:52Z</time>
      </trkpt>
      <trkpt lat="45.33158" lon="6.59767">
        <ele>2510.4</ele>
        <time>2021-01-01T13:41:57Z</time>
      </trkpt>
      <trkpt lat="45.33157" lon="6.59765">
        <ele>2516.2</ele>
        <time>2021-01-01T13:42:02Z</time>
      </trkpt>
      <trkpt lat="45.33156" lon="6.59764">
        <ele>2513.6</ele>
        <time>2021-01-01T13:42:07Z</time>
      </trkpt>
      <trkpt lat="45.33155" lon="6.59762">
        <ele>2515.8</ele>
        <time>2021-01-01T13:42:12Z</time>
      </trkpt>
      <trkpt lat="45.33154" lon="6.5976">
        <ele>2516.2</ele>
        <time>2021-01-01T13:42:17Z</time>
      </trkpt>
      <trkpt lat="45.33153" lon="6.59759">
        <ele>2516.6</ele>
        <time>2021-01-01T13:42:22Z</time>
      </trkpt>
      <trkpt lat="45.33152" lon="6.59757">
        <ele>2518.8</ele>
        <time>2021-01-01T13:42:27Z</time>
      </trkpt>
      <trkpt lat="45.3315" lon="6.59756">
        <ele>2518.2</ele>
        <time>2021-01-01T13:42:32Z</time>
      </trkpt>
      <trkpt lat="45.33149" lon="6.59754">
        <ele>2518.2</ele>
        <time>2021-01-01T13:42:37Z</time>
      </trkpt>
      <trkpt lat="45.33148" lon="6.59752">
        <ele>2516.4</ele>
        <time>2021-01-01T13:42:42Z</time>
      </trkpt>
      <trkpt lat="45.33147" lon="6.5975">
        <ele>2519.8</ele>
        <time>2021-01-01T13:42:47Z</time>
      </trkpt>
      <trkpt lat="45.33145" lon="6.59748">
        <ele>2520.6</ele>
        <time>2021-01-01T13:42:52Z</time>
      </trkpt>
      <trkpt lat="45.33144" lon="6.59746">
        <ele>2519.6</ele>
        <time>2021-01-01T13:42:57Z</time>
      </trkpt>
      <trkpt lat="45.33142" lon="6.59744">
        <ele>2517.2</ele>
        <time>2021-01-01T13:43:02Z</time>
      </trkpt>
      <trkpt lat="45.33141" lon="6.59743">
        <ele>2520.2</ele>
        <time>2021-01-01T13:43:07Z</time>
      </trkpt>
      <trkpt lat="45.33139" lon="6.59741">
        <ele>2522.8</ele>
        <time>2021-01-01T13:43:12Z</time>
      </trkpt>
      <trkpt lat="45.33138" lon="6.59739">
        <ele>2521.4</ele>
        <time>2021-01-01T13:43:17Z</time>
      </trkpt>
      <trkpt lat="45.33136" lon="6.59738">
        <ele>2521.2</ele>
        <time>2021-01-01T13:43:22Z</time>
      </trkpt>
      <trkpt lat="45.33134" lon="6.59736">
        <ele>2525</ele>
        <time>2021-01-01T13:43:27Z</time>
      </trkpt>
      <trkpt lat="45.33133" lon="6.59735">
        <ele>2525</ele>
        <time>2021-01-01T13:43:32Z</time>
      </trkpt>
      <trkpt lat="45.33131" lon="6.59733">
        <ele>2525.4</ele>
        <time>2021-01-01T13:43:37Z</time>
      </trkpt>
      <trkpt lat="45.3313" lon="6.59731">
        <ele>2522.8</ele>
        <time>2021-01-01T13:43:42Z</time>
      </trkpt>
      <trkpt lat="45.33129" lon="6.59731">
        <ele>2523.6</ele>
        <time>2021-01-01T13:44:37Z</time>
      </trkpt>
      <trkpt lat="45.33128" lon="6.59731">
        <ele>2521</ele>
        <time>2021-01-01T13:44:42Z</time>
      </trkpt>
      <trkpt lat="45.33128" lon="6.59733">
        <ele>2522.2</ele>
        <time>2021-01-01T13:44:47Z</time>
      </trkpt>
      <trkpt lat="45.33128" lon="6.59735">
        <ele>2524</ele>
        <time>2021-01-01T13:44:52Z</time>
      </trkpt>
      <trkpt lat="45.33128" lon="6.59738">
        <ele>2524.6</ele>
        <time>2021-01-01T13:44:57Z</time>
      </trkpt>
      <trkpt lat="45.33128" lon="6.59739">
        <ele>2526.8</ele>
        <time>2021-01-01T13:45:02Z</time>
      </trkpt>
      <trkpt lat="45.33128" lon="6.59739">
        <ele>2526.6</ele>
        <time>2021-01-01T13:45:07Z</time>
      </trkpt>
      <trkpt lat="45.33128" lon="6.59742">
        <ele>2526.6</ele>
        <time>2021-01-01T13:45:12Z</time>
      </trkpt>
      <trkpt lat="45.33128" lon="6.59745">
        <ele>2528.4</ele>
        <time>2021-01-01T13:45:17Z</time>
      </trkpt>
      <trkpt lat="45.33128" lon="6.59748">
        <ele>2525.4</ele>
        <time>2021-01-01T13:45:22Z</time>
      </trkpt>
      <trkpt lat="45.33127" lon="6.59751">
        <ele>2530.8</ele>
        <time>2021-01-01T13:45:27Z</time>
      </trkpt>
      <trkpt lat="45.33127" lon="6.59753">
        <ele>2530.6</ele>
        <time>2021-01-01T13:45:32Z</time>
      </trkpt>
      <trkpt lat="45.33126" lon="6.59757">
        <ele>2531.6</ele>
        <time>2021-01-01T13:45:37Z</time>
      </trkpt>
      <trkpt lat="45.33126" lon="6.5976">
        <ele>2533.2</ele>
        <time>2021-01-01T13:45:42Z</time>
      </trkpt>
      <trkpt lat="45.33126" lon="6.59764">
        <ele>2532</ele>
        <time>2021-01-01T13:45:47Z</time>
      </trkpt>
      <trkpt lat="45.33125" lon="6.59767">
        <ele>2531</ele>
        <time>2021-01-01T13:45:52Z</time>
      </trkpt>
      <trkpt lat="45.33125" lon="6.5977">
        <ele>2535.4</ele>
        <time>2021-01-01T13:45:57Z</time>
      </trkpt>
      <trkpt lat="45.33125" lon="6.59774">
        <ele>2533.2</ele>
        <time>2021-01-01T13:46:02Z</time>
      </trkpt>
      <trkpt lat="45.33124" lon="6.59778">
        <ele>2533.6</ele>
        <time>2021-01-01T13:46:07Z</time>
      </trkpt>
      <trkpt lat="45.33124" lon="6.59781">
        <ele>2537.2</ele>
        <time>2021-01-01T13:46:12Z</time>
      </trkpt>
      <trkpt lat="45.33123" lon="6.59784">
        <ele>2534.6</ele>
        <time>2021-01-01T13:46:17Z</time>
      </trkpt>
      <trkpt lat="45.33122" lon="6.59784">
        <ele>2535</ele>
        <time>2021-01-01T13:46:57Z</time>
      </trkpt>
      <trkpt lat="45.33122" lon="6.59783">
        <ele>2535</ele>
        <time>2021-01-01T13:47:02Z</time>
      </trkpt>
      <trkpt lat="45.33119" lon="6.59782">
        <ele>2535.2</ele>
        <time>2021-01-01T13:47:07Z</time>
      </trkpt>
      <trkpt lat="45.33117" lon="6.5978">
        <ele>2535.4</ele>
        <time>2021-01-01T13:47:12Z</time>
      </trkpt>
      <trkpt lat="45.33115" lon="6.59778">
        <ele>2535.6</ele>
        <time>2021-01-01T13:47:17Z</time>
      </trkpt>
      <trkpt lat="45.33113" lon="6.59776">
        <ele>2536.8</ele>
        <time>2021-01-01T13:47:22Z</time>
      </trkpt>
      <trkpt lat="45.33112" lon="6.59775">
        <ele>2537.2</ele>
        <time>2021-01-01T13:47:27Z</time>
      </trkpt>
      <trkpt lat="45.3311" lon="6.59773">
        <ele>2537.8</ele>
        <time>2021-01-01T13:47:32Z</time>
      </trkpt>
      <trkpt lat="45.33108" lon="6.59772">
        <ele>2540.6</ele>
        <time>2021-01-01T13:47:37Z</time>
      </trkpt>
      <trkpt lat="45.33106" lon="6.59771">
        <ele>2542.8</ele>
        <time>2021-01-01T13:47:42Z</time>
      </trkpt>
      <trkpt lat="45.33105" lon="6.59772">
        <ele>2540.8</ele>
        <time>2021-01-01T13:47:47Z</time>
      </trkpt>
      <trkpt lat="45.33104" lon="6.59772">
        <ele>2541</ele>
        <time>2021-01-01T13:48:17Z</time>
      </trkpt>
      <trkpt lat="45.33103" lon="6.59776">
        <ele>2541.4</ele>
        <time>2021-01-01T13:48:22Z</time>
      </trkpt>
      <trkpt lat="45.33102" lon="6.59779">
        <ele>2542.8</ele>
        <time>2021-01-01T13:48:27Z</time>
      </trkpt>
      <trkpt lat="45.33101" lon="6.59783">
        <ele>2542.6</ele>
        <time>2021-01-01T13:48:32Z</time>
      </trkpt>
      <trkpt lat="45.331" lon="6.59786">
        <ele>2540.6</ele>
        <time>2021-01-01T13:48:37Z</time>
      </trkpt>
      <trkpt lat="45.33099" lon="6.5979">
        <ele>2545.4</ele>
        <time>2021-01-01T13:48:42Z</time>
      </trkpt>
      <trkpt lat="45.33098" lon="6.59792">
        <ele>2545.4</ele>
        <time>2021-01-01T13:48:47Z</time>
      </trkpt>
      <trkpt lat="45.33098" lon="6.59792">
        <ele>2545</ele>
        <time>2021-01-01T13:48:57Z</time>
      </trkpt>
      <trkpt lat="45.33098" lon="6.59794">
        <ele>2544.8</ele>
        <time>2021-01-01T13:49:02Z</time>
      </trkpt>
      <trkpt lat="45.33096" lon="6.59797">
        <ele>2545.6</ele>
        <time>2021-01-01T13:49:07Z</time>
      </trkpt>
      <trkpt lat="45.33097" lon="6.59802">
        <ele>2546.6</ele>
        <time>2021-01-01T13:49:12Z</time>
      </trkpt>
      <trkpt lat="45.33099" lon="6.59805">
        <ele>2549.4</ele>
        <time>2021-01-01T13:49:17Z</time>
      </trkpt>
      <trkpt lat="45.33101" lon="6.59808">
        <ele>2547.4</ele>
        <time>2021-01-01T13:49:22Z</time>
      </trkpt>
      <trkpt lat="45.33102" lon="6.59809">
        <ele>2550.2</ele>
        <time>2021-01-01T13:49:27Z</time>
      </trkpt>
      <trkpt lat="45.33103" lon="6.5981">
        <ele>2548.2</ele>
        <time>2021-01-01T13:49:32Z</time>
      </trkpt>
      <trkpt lat="45.33104" lon="6.59811">
        <ele>2547.8</ele>
        <time>2021-01-01T13:49:42Z</time>
      </trkpt>
      <trkpt lat="45.33106" lon="6.59812">
        <ele>2545</ele>
        <time>2021-01-01T13:49:47Z</time>
      </trkpt>
      <trkpt lat="45.3311" lon="6.59813">
        <ele>2547.6</ele>
        <time>2021-01-01T13:49:52Z</time>
      </trkpt>
      <trkpt lat="45.33114" lon="6.59815">
        <ele>2548.2</ele>
        <time>2021-01-01T13:49:57Z</time>
      </trkpt>
      <trkpt lat="45.33118" lon="6.59816">
        <ele>2549</ele>
        <time>2021-01-01T13:50:02Z</time>
      </trkpt>
      <trkpt lat="45.33123" lon="6.59818">
        <ele>2549.6</ele>
        <time>2021-01-01T13:50:07Z</time>
      </trkpt>
      <trkpt lat="45.33128" lon="6.59818">
        <ele>2550</ele>
        <time>2021-01-01T13:50:12Z</time>
      </trkpt>
      <trkpt lat="45.33129" lon="6.59818">
        <ele>2549.4</ele>
        <time>2021-01-01T13:50:22Z</time>
      </trkpt>
      <trkpt lat="45.33131" lon="6.59819">
        <ele>2549</ele>
        <time>2021-01-01T13:50:27Z</time>
      </trkpt>
      <trkpt lat="45.33134" lon="6.5982">
        <ele>2544.4</ele>
        <time>2021-01-01T13:50:32Z</time>
      </trkpt>
      <trkpt lat="45.33137" lon="6.59819">
        <ele>2547.8</ele>
        <time>2021-01-01T13:54:52Z</time>
      </trkpt>
      <trkpt lat="45.33137" lon="6.59819">
        <ele>2547.6</ele>
        <time>2021-01-01T13:54:57Z</time>
      </trkpt>
      <trkpt lat="45.33141" lon="6.59821">
        <ele>2548.8</ele>
        <time>2021-01-01T13:55:02Z</time>
      </trkpt>
      <trkpt lat="45.33143" lon="6.59823">
        <ele>2546.8</ele>
        <time>2021-01-01T13:55:07Z</time>
      </trkpt>
      <trkpt lat="45.33147" lon="6.59828">
        <ele>2547.2</ele>
        <time>2021-01-01T13:55:12Z</time>
      </trkpt>
      <trkpt lat="45.33149" lon="6.59831">
        <ele>2547.4</ele>
        <time>2021-01-01T13:55:17Z</time>
      </trkpt>
      <trkpt lat="45.33152" lon="6.59834">
        <ele>2549.6</ele>
        <time>2021-01-01T13:55:22Z</time>
      </trkpt>
      <trkpt lat="45.33156" lon="6.59837">
        <ele>2550.6</ele>
        <time>2021-01-01T13:55:27Z</time>
      </trkpt>
      <trkpt lat="45.3316" lon="6.59841">
        <ele>2549.4</ele>
        <time>2021-01-01T13:55:32Z</time>
      </trkpt>
      <trkpt lat="45.33163" lon="6.59843">
        <ele>2552.8</ele>
        <time>2021-01-01T13:55:37Z</time>
      </trkpt>
      <trkpt lat="45.33166" lon="6.59845">
        <ele>2549.8</ele>
        <time>2021-01-01T13:55:52Z</time>
      </trkpt>
      <trkpt lat="45.33166" lon="6.59845">
        <ele>2550</ele>
        <time>2021-01-01T13:55:57Z</time>
      </trkpt>
      <trkpt lat="45.33169" lon="6.59847">
        <ele>2549.4</ele>
        <time>2021-01-01T13:56:02Z</time>
      </trkpt>
      <trkpt lat="45.33172" lon="6.5985">
        <ele>2551.4</ele>
        <time>2021-01-01T13:56:07Z</time>
      </trkpt>
      <trkpt lat="45.33173" lon="6.59851">
        <ele>2551.2</ele>
        <time>2021-01-01T13:56:12Z</time>
      </trkpt>
      <trkpt lat="45.33173" lon="6.59851">
        <ele>2551.6</ele>
        <time>2021-01-01T13:57:27Z</time>
      </trkpt>
      <trkpt lat="45.33174" lon="6.59852">
        <ele>2549.2</ele>
        <time>2021-01-01T13:57:32Z</time>
      </trkpt>
      <trkpt lat="45.33178" lon="6.59854">
        <ele>2550.8</ele>
        <time>2021-01-01T13:57:37Z</time>
      </trkpt>
      <trkpt lat="45.33183" lon="6.59857">
        <ele>2551.6</ele>
        <time>2021-01-01T13:57:42Z</time>
      </trkpt>
      <trkpt lat="45.33188" lon="6.5986">
        <ele>2551</ele>
        <time>2021-01-01T13:57:47Z</time>
      </trkpt>
      <trkpt lat="45.33189" lon="6.59861">
        <ele>2551</ele>
        <time>2021-01-01T13:57:52Z</time>
      </trkpt>
      <trkpt lat="45.3319" lon="6.59861">
        <ele>2552</ele>
        <time>2021-01-01T13:58:07Z</time>
      </trkpt>
      <trkpt lat="45.33197" lon="6.59863">
        <ele>2547.4</ele>
        <time>2021-01-01T13:58:12Z</time>
      </trkpt>
      <trkpt lat="45.33201" lon="6.59866">
        <ele>2547</ele>
        <time>2021-01-01T13:58:17Z</time>
      </trkpt>
      <trkpt lat="45.33201" lon="6.59866">
        <ele>2547.6</ele>
        <time>2021-01-01T13:59:42Z</time>
      </trkpt>
      <trkpt lat="45.33203" lon="6.59868">
        <ele>2546.8</ele>
        <time>2021-01-01T13:59:47Z</time>
      </trkpt>
      <trkpt lat="45.33211" lon="6.59872">
        <ele>2544.8</ele>
        <time>2021-01-01T13:59:52Z</time>
      </trkpt>
      <trkpt lat="45.3322" lon="6.59871">
        <ele>2543.4</ele>
        <time>2021-01-01T13:59:57Z</time>
      </trkpt>
      <trkpt lat="45.33219" lon="6.59869">
        <ele>2543.2</ele>
        <time>2021-01-01T14:00:02Z</time>
      </trkpt>
      <trkpt lat="45.33219" lon="6.59866">
        <ele>2542</ele>
        <time>2021-01-01T14:00:32Z</time>
      </trkpt>
      <trkpt lat="45.33223" lon="6.59865">
        <ele>2543.6</ele>
        <time>2021-01-01T14:00:37Z</time>
      </trkpt>
      <trkpt lat="45.33224" lon="6.59865">
        <ele>2540.4</ele>
        <time>2021-01-01T14:00:48Z</time>
      </trkpt>
      <trkpt lat="45.33224" lon="6.59864">
        <ele>2540</ele>
        <time>2021-01-01T14:00:53Z</time>
      </trkpt>
      <trkpt lat="45.33228" lon="6.59864">
        <ele>2537</ele>
        <time>2021-01-01T14:00:58Z</time>
      </trkpt>
      <trkpt lat="45.33228" lon="6.59863">
        <ele>2536.4</ele>
        <time>2021-01-01T14:01:19Z</time>
      </trkpt>
      <trkpt lat="45.33228" lon="6.59863">
        <ele>2536.4</ele>
        <time>2021-01-01T14:01:24Z</time>
      </trkpt>
      <trkpt lat="45.3323" lon="6.59862">
        <ele>2537.4</ele>
        <time>2021-01-01T14:01:29Z</time>
      </trkpt>
      <trkpt lat="45.33244" lon="6.59864">
        <ele>2532.6</ele>
        <time>2021-01-01T14:01:34Z</time>
      </trkpt>
      <trkpt lat="45.33247" lon="6.59867">
        <ele>2531.4</ele>
        <time>2021-01-01T14:01:39Z</time>
      </trkpt>
      <trkpt lat="45.33247" lon="6.59867">
        <ele>2529.2</ele>
        <time>2021-01-01T14:02:20Z</time>
      </trkpt>
      <trkpt lat="45.33248" lon="6.59868">
        <ele>2529.6</ele>
        <time>2021-01-01T14:02:25Z</time>
      </trkpt>
      <trkpt lat="45.3325" lon="6.59871">
        <ele>2526.8</ele>
        <time>2021-01-01T14:02:30Z</time>
      </trkpt>
      <trkpt lat="45.33252" lon="6.59874">
        <ele>2530</ele>
        <time>2021-01-01T14:02:35Z</time>
      </trkpt>
      <trkpt lat="45.33253" lon="6.59875">
        <ele>2529.8</ele>
        <time>2021-01-01T14:02:40Z</time>
      </trkpt>
      <trkpt lat="45.33254" lon="6.59876">
        <ele>2528.4</ele>
        <time>2021-01-01T14:03:25Z</time>
      </trkpt>
      <trkpt lat="45.33254" lon="6.59877">
        <ele>2527.8</ele>
        <time>2021-01-01T14:03:50Z</time>
      </trkpt>
      <trkpt lat="45.33254" lon="6.59877">
        <ele>2526.4</ele>
        <time>2021-01-01T14:03:55Z</time>
      </trkpt>
      <trkpt lat="45.33258" lon="6.59882">
        <ele>2528.4</ele>
        <time>2021-01-01T14:04:00Z</time>
      </trkpt>
      <trkpt lat="45.33263" lon="6.59887">
        <ele>2524</ele>
        <time>2021-01-01T14:04:05Z</time>
      </trkpt>
      <trkpt lat="45.33265" lon="6.59889">
        <ele>2527.8</ele>
        <time>2021-01-01T14:04:10Z</time>
      </trkpt>
      <trkpt lat="45.33265" lon="6.5989">
        <ele>2527.6</ele>
        <time>2021-01-01T14:04:15Z</time>
      </trkpt>
      <trkpt lat="45.33268" lon="6.59894">
        <ele>2526.8</ele>
        <time>2021-01-01T14:04:20Z</time>
      </trkpt>
      <trkpt lat="45.3327" lon="6.59898">
        <ele>2526.8</ele>
        <time>2021-01-01T14:04:25Z</time>
      </trkpt>
      <trkpt lat="45.33274" lon="6.59905">
        <ele>2526.2</ele>
        <time>2021-01-01T14:04:30Z</time>
      </trkpt>
      <trkpt lat="45.33277" lon="6.5991">
        <ele>2528.6</ele>
        <time>2021-01-01T14:04:35Z</time>
      </trkpt>
      <trkpt lat="45.33278" lon="6.59912">
        <ele>2525.6</ele>
        <time>2021-01-01T14:04:40Z</time>
      </trkpt>
      <trkpt lat="45.33279" lon="6.59911">
        <ele>2528.2</ele>
        <time>2021-01-01T14:04:45Z</time>
      </trkpt>
      <trkpt lat="45.33281" lon="6.5991">
        <ele>2526.8</ele>
        <time>2021-01-01T14:04:50Z</time>
      </trkpt>
      <trkpt lat="45.33282" lon="6.59909">
        <ele>2526</ele>
        <time>2021-01-01T14:04:55Z</time>
      </trkpt>
      <trkpt lat="45.33284" lon="6.59909">
        <ele>2525</ele>
        <time>2021-01-01T14:05:00Z</time>
      </trkpt>
      <trkpt lat="45.33288" lon="6.59912">
        <ele>2527</ele>
        <time>2021-01-01T14:05:05Z</time>
      </trkpt>
      <trkpt lat="45.33292" lon="6.59915">
        <ele>2522.4</ele>
        <time>2021-01-01T14:05:10Z</time>
      </trkpt>
      <trkpt lat="45.33298" lon="6.59917">
        <ele>2515.6</ele>
        <time>2021-01-01T14:06:55Z</time>
      </trkpt>
      <trkpt lat="45.33302" lon="6.59921">
        <ele>2516.8</ele>
        <time>2021-01-01T14:07:00Z</time>
      </trkpt>
      <trkpt lat="45.33304" lon="6.59923">
        <ele>2516.2</ele>
        <time>2021-01-01T14:07:05Z</time>
      </trkpt>
      <trkpt lat="45.33304" lon="6.59923">
        <ele>2513.8</ele>
        <time>2021-01-01T14:08:00Z</time>
      </trkpt>
      <trkpt lat="45.33306" lon="6.59924">
        <ele>2514</ele>
        <time>2021-01-01T14:09:30Z</time>
      </trkpt>
      <trkpt lat="45.33306" lon="6.59925">
        <ele>2511.8</ele>
        <time>2021-01-01T14:09:35Z</time>
      </trkpt>
      <trkpt lat="45.33308" lon="6.59927">
        <ele>2512.4</ele>
        <time>2021-01-01T14:09:40Z</time>
      </trkpt>
      <trkpt lat="45.33309" lon="6.59929">
        <ele>2512.4</ele>
        <time>2021-01-01T14:09:45Z</time>
      </trkpt>
      <trkpt lat="45.3331" lon="6.59931">
        <ele>2515</ele>
        <time>2021-01-01T14:09:50Z</time>
      </trkpt>
      <trkpt lat="45.33311" lon="6.59932">
        <ele>2515.4</ele>
        <time>2021-01-01T14:09:55Z</time>
      </trkpt>
      <trkpt lat="45.33312" lon="6.59933">
        <ele>2512.4</ele>
        <time>2021-01-01T14:10:00Z</time>
      </trkpt>
      <trkpt lat="45.33313" lon="6.59934">
        <ele>2514.8</ele>
        <time>2021-01-01T14:10:05Z</time>
      </trkpt>
      <trkpt lat="45.33314" lon="6.59935">
        <ele>2514.4</ele>
        <time>2021-01-01T14:10:10Z</time>
      </trkpt>
      <trkpt lat="45.33315" lon="6.59935">
        <ele>2513.6</ele>
        <time>2021-01-01T14:10:15Z</time>
      </trkpt>
      <trkpt lat="45.33315" lon="6.59935">
        <ele>2513.6</ele>
        <time>2021-01-01T14:10:20Z</time>
      </trkpt>
      <trkpt lat="45.33316" lon="6.59936">
        <ele>2515.4</ele>
        <time>2021-01-01T14:10:25Z</time>
      </trkpt>
      <trkpt lat="45.33317" lon="6.59936">
        <ele>2513.8</ele>
        <time>2021-01-01T14:10:50Z</time>
      </trkpt>
      <trkpt lat="45.33317" lon="6.59936">
        <ele>2513.8</ele>
        <time>2021-01-01T14:10:55Z</time>
      </trkpt>
      <trkpt lat="45.33318" lon="6.59937">
        <ele>2515.4</ele>
        <time>2021-01-01T14:11:00Z</time>
      </trkpt>
      <trkpt lat="45.33319" lon="6.59938">
        <ele>2513.6</ele>
        <time>2021-01-01T14:11:05Z</time>
      </trkpt>
      <trkpt lat="45.3332" lon="6.59939">
        <ele>2512.6</ele>
        <time>2021-01-01T14:11:10Z</time>
      </trkpt>
      <trkpt lat="45.33322" lon="6.5994">
        <ele>2509</ele>
        <time>2021-01-01T14:11:15Z</time>
      </trkpt>
      <trkpt lat="45.33323" lon="6.59941">
        <ele>2511</ele>
        <time>2021-01-01T14:11:20Z</time>
      </trkpt>
      <trkpt lat="45.33324" lon="6.59941">
        <ele>2511.8</ele>
        <time>2021-01-01T14:11:25Z</time>
      </trkpt>
      <trkpt lat="45.33324" lon="6.59941">
        <ele>2515.8</ele>
        <time>2021-01-01T14:11:30Z</time>
      </trkpt>
      <trkpt lat="45.33326" lon="6.59943">
        <ele>2517</ele>
        <time>2021-01-01T14:11:35Z</time>
      </trkpt>
      <trkpt lat="45.33326" lon="6.59943">
        <ele>2515.8</ele>
        <time>2021-01-01T14:11:40Z</time>
      </trkpt>
      <trkpt lat="45.33327" lon="6.59944">
        <ele>2514.8</ele>
        <time>2021-01-01T14:11:45Z</time>
      </trkpt>
      <trkpt lat="45.33327" lon="6.59944">
        <ele>2514.2</ele>
        <time>2021-01-01T14:11:50Z</time>
      </trkpt>
      <trkpt lat="45.33328" lon="6.59944">
        <ele>2513.8</ele>
        <time>2021-01-01T14:11:55Z</time>
      </trkpt>
      <trkpt lat="45.33329" lon="6.59944">
        <ele>2514.2</ele>
        <time>2021-01-01T14:12:10Z</time>
      </trkpt>
      <trkpt lat="45.3333" lon="6.59945">
        <ele>2514.6</ele>
        <time>2021-01-01T14:12:15Z</time>
      </trkpt>
      <trkpt lat="45.33332" lon="6.59946">
        <ele>2515</ele>
        <time>2021-01-01T14:12:20Z</time>
      </trkpt>
      <trkpt lat="45.33335" lon="6.59946">
        <ele>2510.6</ele>
        <time>2021-01-01T14:12:25Z</time>
      </trkpt>
      <trkpt lat="45.33339" lon="6.59947">
        <ele>2512</ele>
        <time>2021-01-01T14:12:30Z</time>
      </trkpt>
      <trkpt lat="45.33339" lon="6.59947">
        <ele>2513.6</ele>
        <time>2021-01-01T14:13:20Z</time>
      </trkpt>
      <trkpt lat="45.33341" lon="6.59948">
        <ele>2516</ele>
        <time>2021-01-01T14:13:25Z</time>
      </trkpt>
      <trkpt lat="45.33342" lon="6.59949">
        <ele>2513.8</ele>
        <time>2021-01-01T14:13:30Z</time>
      </trkpt>
      <trkpt lat="45.33344" lon="6.59951">
        <ele>2513</ele>
        <time>2021-01-01T14:13:35Z</time>
      </trkpt>
      <trkpt lat="45.33349" lon="6.59954">
        <ele>2515.2</ele>
        <time>2021-01-01T14:13:40Z</time>
      </trkpt>
      <trkpt lat="45.33353" lon="6.59957">
        <ele>2513.4</ele>
        <time>2021-01-01T14:13:45Z</time>
      </trkpt>
      <trkpt lat="45.33356" lon="6.59959">
        <ele>2517.8</ele>
        <time>2021-01-01T14:13:50Z</time>
      </trkpt>
      <trkpt lat="45.33358" lon="6.59961">
        <ele>2515.2</ele>
        <time>2021-01-01T14:13:55Z</time>
      </trkpt>
      <trkpt lat="45.33358" lon="6.59961">
        <ele>2514.6</ele>
        <time>2021-01-01T14:15:05Z</time>
      </trkpt>
      <trkpt lat="45.33358" lon="6.59963">
        <ele>2514.6</ele>
        <time>2021-01-01T14:15:10Z</time>
      </trkpt>
      <trkpt lat="45.33359" lon="6.59966">
        <ele>2516</ele>
        <time>2021-01-01T14:15:15Z</time>
      </trkpt>
      <trkpt lat="45.33361" lon="6.5997">
        <ele>2515.8</ele>
        <time>2021-01-01T14:15:20Z</time>
      </trkpt>
      <trkpt lat="45.33362" lon="6.59973">
        <ele>2517.8</ele>
        <time>2021-01-01T14:15:25Z</time>
      </trkpt>
      <trkpt lat="45.33364" lon="6.59975">
        <ele>2518</ele>
        <time>2021-01-01T14:15:30Z</time>
      </trkpt>
      <trkpt lat="45.33365" lon="6.59978">
        <ele>2517.6</ele>
        <time>2021-01-01T14:15:35Z</time>
      </trkpt>
      <trkpt lat="45.33367" lon="6.59981">
        <ele>2515.4</ele>
        <time>2021-01-01T14:15:40Z</time>
      </trkpt>
      <trkpt lat="45.33369" lon="6.59984">
        <ele>2516.8</ele>
        <time>2021-01-01T14:15:45Z</time>
      </trkpt>
      <trkpt lat="45.3337" lon="6.59988">
        <ele>2518.6</ele>
        <time>2021-01-01T14:15:50Z</time>
      </trkpt>
      <trkpt lat="45.33373" lon="6.59991">
        <ele>2519.4</ele>
        <time>2021-01-01T14:15:55Z</time>
      </trkpt>
      <trkpt lat="45.33375" lon="6.59994">
        <ele>2517</ele>
        <time>2021-01-01T14:16:00Z</time>
      </trkpt>
      <trkpt lat="45.33378" lon="6.59997">
        <ele>2519</ele>
        <time>2021-01-01T14:16:05Z</time>
      </trkpt>
      <trkpt lat="45.33378" lon="6.59998">
        <ele>2519.2</ele>
        <time>2021-01-01T14:16:10Z</time>
      </trkpt>
      <trkpt lat="45.3338" lon="6.6">
        <ele>2522.6</ele>
        <time>2021-01-01T14:16:15Z</time>
      </trkpt>
      <trkpt lat="45.33382" lon="6.60002">
        <ele>2520</ele>
        <time>2021-01-01T14:16:20Z</time>
      </trkpt>
      <trkpt lat="45.33384" lon="6.60005">
        <ele>2521.2</ele>
        <time>2021-01-01T14:16:25Z</time>
      </trkpt>
      <trkpt lat="45.33386" lon="6.60007">
        <ele>2523.6</ele>
        <time>2021-01-01T14:16:30Z</time>
      </trkpt>
      <trkpt lat="45.33388" lon="6.60009">
        <ele>2522.6</ele>
        <time>2021-01-01T14:16:35Z</time>
      </trkpt>
      <trkpt lat="45.3339" lon="6.60012">
        <ele>2523.2</ele>
        <time>2021-01-01T14:16:40Z</time>
      </trkpt>
      <trkpt lat="45.33392" lon="6.60014">
        <ele>2525</ele>
        <time>2021-01-01T14:16:45Z</time>
      </trkpt>
      <trkpt lat="45.33394" lon="6.60016">
        <ele>2525.2</ele>
        <time>2021-01-01T14:16:50Z</time>
      </trkpt>
      <trkpt lat="45.33396" lon="6.60019">
        <ele>2527.4</ele>
        <time>2021-01-01T14:16:55Z</time>
      </trkpt>
      <trkpt lat="45.33398" lon="6.60022">
        <ele>2526.4</ele>
        <time>2021-01-01T14:17:00Z</time>
      </trkpt>
      <trkpt lat="45.33399" lon="6.60025">
        <ele>2527</ele>
        <time>2021-01-01T14:17:05Z</time>
      </trkpt>
      <trkpt lat="45.334" lon="6.60026">
        <ele>2528.2</ele>
        <time>2021-01-01T14:17:10Z</time>
      </trkpt>
      <trkpt lat="45.334" lon="6.60026">
        <ele>2524.6</ele>
        <time>2021-01-01T14:17:35Z</time>
      </trkpt>
      <trkpt lat="45.33401" lon="6.60027">
        <ele>2525</ele>
        <time>2021-01-01T14:17:40Z</time>
      </trkpt>
      <trkpt lat="45.33401" lon="6.60028">
        <ele>2524.4</ele>
        <time>2021-01-01T14:17:50Z</time>
      </trkpt>
      <trkpt lat="45.33403" lon="6.6003">
        <ele>2524.8</ele>
        <time>2021-01-01T14:17:55Z</time>
      </trkpt>
      <trkpt lat="45.33405" lon="6.60032">
        <ele>2526.4</ele>
        <time>2021-01-01T14:18:00Z</time>
      </trkpt>
      <trkpt lat="45.33407" lon="6.60035">
        <ele>2524</ele>
        <time>2021-01-01T14:18:05Z</time>
      </trkpt>
      <trkpt lat="45.3341" lon="6.60039">
        <ele>2524.8</ele>
        <time>2021-01-01T14:18:50Z</time>
      </trkpt>
      <trkpt lat="45.33412" lon="6.60042">
        <ele>2524.4</ele>
        <time>2021-01-01T14:18:55Z</time>
      </trkpt>
      <trkpt lat="45.33414" lon="6.60045">
        <ele>2525.8</ele>
        <time>2021-01-01T14:19:00Z</time>
      </trkpt>
      <trkpt lat="45.33417" lon="6.60049">
        <ele>2526.2</ele>
        <time>2021-01-01T14:19:05Z</time>
      </trkpt>
      <trkpt lat="45.33421" lon="6.60052">
        <ele>2529.6</ele>
        <time>2021-01-01T14:19:10Z</time>
      </trkpt>
      <trkpt lat="45.33425" lon="6.60056">
        <ele>2526.2</ele>
        <time>2021-01-01T14:19:15Z</time>
      </trkpt>
      <trkpt lat="45.33428" lon="6.60059">
        <ele>2529.8</ele>
        <time>2021-01-01T14:19:20Z</time>
      </trkpt>
      <trkpt lat="45.33431" lon="6.6006">
        <ele>2528.2</ele>
        <time>2021-01-01T14:19:25Z</time>
      </trkpt>
      <trkpt lat="45.33432" lon="6.60062">
        <ele>2530.2</ele>
        <time>2021-01-01T14:19:30Z</time>
      </trkpt>
      <trkpt lat="45.33432" lon="6.60064">
        <ele>2529.2</ele>
        <time>2021-01-01T14:19:35Z</time>
      </trkpt>
      <trkpt lat="45.33432" lon="6.60066">
        <ele>2529.8</ele>
        <time>2021-01-01T14:20:05Z</time>
      </trkpt>
      <trkpt lat="45.33433" lon="6.60067">
        <ele>2528.6</ele>
        <time>2021-01-01T14:20:10Z</time>
      </trkpt>
      <trkpt lat="45.33434" lon="6.6007">
        <ele>2528</ele>
        <time>2021-01-01T14:20:15Z</time>
      </trkpt>
      <trkpt lat="45.33435" lon="6.60074">
        <ele>2531.8</ele>
        <time>2021-01-01T14:20:20Z</time>
      </trkpt>
      <trkpt lat="45.33436" lon="6.60077">
        <ele>2526.4</ele>
        <time>2021-01-01T14:20:25Z</time>
      </trkpt>
      <trkpt lat="45.33437" lon="6.6008">
        <ele>2529.2</ele>
        <time>2021-01-01T14:20:30Z</time>
      </trkpt>
      <trkpt lat="45.33438" lon="6.60084">
        <ele>2530.2</ele>
        <time>2021-01-01T14:20:35Z</time>
      </trkpt>
      <trkpt lat="45.3344" lon="6.60088">
        <ele>2528.6</ele>
        <time>2021-01-01T14:20:40Z</time>
      </trkpt>
      <trkpt lat="45.33441" lon="6.60092">
        <ele>2532.4</ele>
        <time>2021-01-01T14:20:45Z</time>
      </trkpt>
      <trkpt lat="45.33443" lon="6.60097">
        <ele>2531</ele>
        <time>2021-01-01T14:20:50Z</time>
      </trkpt>
      <trkpt lat="45.33445" lon="6.601">
        <ele>2531.4</ele>
        <time>2021-01-01T14:20:55Z</time>
      </trkpt>
      <trkpt lat="45.33447" lon="6.60104">
        <ele>2532.8</ele>
        <time>2021-01-01T14:21:00Z</time>
      </trkpt>
      <trkpt lat="45.33449" lon="6.60107">
        <ele>2533.8</ele>
        <time>2021-01-01T14:21:05Z</time>
      </trkpt>
      <trkpt lat="45.33451" lon="6.6011">
        <ele>2536.4</ele>
        <time>2021-01-01T14:21:10Z</time>
      </trkpt>
      <trkpt lat="45.33452" lon="6.60115">
        <ele>2536.6</ele>
        <time>2021-01-01T14:21:15Z</time>
      </trkpt>
      <trkpt lat="45.33453" lon="6.60119">
        <ele>2537.2</ele>
        <time>2021-01-01T14:21:20Z</time>
      </trkpt>
      <trkpt lat="45.33454" lon="6.60122">
        <ele>2534</ele>
        <time>2021-01-01T14:21:25Z</time>
      </trkpt>
      <trkpt lat="45.33455" lon="6.60126">
        <ele>2536.8</ele>
        <time>2021-01-01T14:21:30Z</time>
      </trkpt>
      <trkpt lat="45.33456" lon="6.60128">
        <ele>2535</ele>
        <time>2021-01-01T14:21:35Z</time>
      </trkpt>
      <trkpt lat="45.33456" lon="6.60128">
        <ele>2536.2</ele>
        <time>2021-01-01T14:22:10Z</time>
      </trkpt>
      <trkpt lat="45.33457" lon="6.6013">
        <ele>2538.8</ele>
        <time>2021-01-01T14:22:15Z</time>
      </trkpt>
      <trkpt lat="45.33457" lon="6.60135">
        <ele>2537.2</ele>
        <time>2021-01-01T14:22:20Z</time>
      </trkpt>
      <trkpt lat="45.33458" lon="6.60139">
        <ele>2539.6</ele>
        <time>2021-01-01T14:22:25Z</time>
      </trkpt>
      <trkpt lat="45.33459" lon="6.60143">
        <ele>2539.4</ele>
        <time>2021-01-01T14:22:30Z</time>
      </trkpt>
      <trkpt lat="45.3346" lon="6.60146">
        <ele>2539.2</ele>
        <time>2021-01-01T14:22:35Z</time>
      </trkpt>
      <trkpt lat="45.33461" lon="6.60149">
        <ele>2540.4</ele>
        <time>2021-01-01T14:22:40Z</time>
      </trkpt>
      <trkpt lat="45.33461" lon="6.60149">
        <ele>2539.8</ele>
        <time>2021-01-01T14:22:50Z</time>
      </trkpt>
      <trkpt lat="45.33462" lon="6.6015">
        <ele>2540.2</ele>
        <time>2021-01-01T14:22:55Z</time>
      </trkpt>
      <trkpt lat="45.33463" lon="6.60154">
        <ele>2539.4</ele>
        <time>2021-01-01T14:23:00Z</time>
      </trkpt>
      <trkpt lat="45.33465" lon="6.60158">
        <ele>2541</ele>
        <time>2021-01-01T14:23:05Z</time>
      </trkpt>
      <trkpt lat="45.33468" lon="6.60162">
        <ele>2538.2</ele>
        <time>2021-01-01T14:23:11Z</time>
      </trkpt>
      <trkpt lat="45.3347" lon="6.60166">
        <ele>2541.4</ele>
        <time>2021-01-01T14:23:16Z</time>
      </trkpt>
      <trkpt lat="45.33471" lon="6.60168">
        <ele>2539.8</ele>
        <time>2021-01-01T14:23:21Z</time>
      </trkpt>
      <trkpt lat="45.33471" lon="6.60169">
        <ele>2540.4</ele>
        <time>2021-01-01T14:23:26Z</time>
      </trkpt>
      <trkpt lat="45.33472" lon="6.60173">
        <ele>2541.2</ele>
        <time>2021-01-01T14:23:31Z</time>
      </trkpt>
      <trkpt lat="45.33473" lon="6.60177">
        <ele>2543.2</ele>
        <time>2021-01-01T14:23:36Z</time>
      </trkpt>
      <trkpt lat="45.33474" lon="6.60182">
        <ele>2540</ele>
        <time>2021-01-01T14:23:41Z</time>
      </trkpt>
      <trkpt lat="45.33476" lon="6.60187">
        <ele>2542.6</ele>
        <time>2021-01-01T14:23:46Z</time>
      </trkpt>
      <trkpt lat="45.33477" lon="6.60193">
        <ele>2541.8</ele>
        <time>2021-01-01T14:23:51Z</time>
      </trkpt>
      <trkpt lat="45.33478" lon="6.60198">
        <ele>2543.4</ele>
        <time>2021-01-01T14:23:56Z</time>
      </trkpt>
      <trkpt lat="45.33479" lon="6.60203">
        <ele>2545.8</ele>
        <time>2021-01-01T14:24:01Z</time>
      </trkpt>
      <trkpt lat="45.3348" lon="6.60208">
        <ele>2542.6</ele>
        <time>2021-01-01T14:24:06Z</time>
      </trkpt>
      <trkpt lat="45.3348" lon="6.60212">
        <ele>2543.8</ele>
        <time>2021-01-01T14:24:11Z</time>
      </trkpt>
      <trkpt lat="45.33481" lon="6.60216">
        <ele>2545.2</ele>
        <time>2021-01-01T14:24:16Z</time>
      </trkpt>
      <trkpt lat="45.33481" lon="6.60221">
        <ele>2544.4</ele>
        <time>2021-01-01T14:24:21Z</time>
      </trkpt>
      <trkpt lat="45.33482" lon="6.60226">
        <ele>2543.8</ele>
        <time>2021-01-01T14:24:26Z</time>
      </trkpt>
      <trkpt lat="45.33483" lon="6.60231">
        <ele>2545.2</ele>
        <time>2021-01-01T14:24:31Z</time>
      </trkpt>
      <trkpt lat="45.33484" lon="6.60235">
        <ele>2546</ele>
        <time>2021-01-01T14:24:36Z</time>
      </trkpt>
      <trkpt lat="45.33485" lon="6.60239">
        <ele>2549</ele>
        <time>2021-01-01T14:24:41Z</time>
      </trkpt>
      <trkpt lat="45.33486" lon="6.60242">
        <ele>2551.4</ele>
        <time>2021-01-01T14:24:46Z</time>
      </trkpt>
      <trkpt lat="45.33486" lon="6.60244">
        <ele>2549.6</ele>
        <time>2021-01-01T14:24:51Z</time>
      </trkpt>
      <trkpt lat="45.33486" lon="6.60244">
        <ele>2549.4</ele>
        <time>2021-01-01T14:24:56Z</time>
      </trkpt>
      <trkpt lat="45.33486" lon="6.60246">
        <ele>2554</ele>
        <time>2021-01-01T14:25:01Z</time>
      </trkpt>
      <trkpt lat="45.33486" lon="6.60251">
        <ele>2546.6</ele>
        <time>2021-01-01T14:25:06Z</time>
      </trkpt>
      <trkpt lat="45.33486" lon="6.60255">
        <ele>2550</ele>
        <time>2021-01-01T14:25:11Z</time>
      </trkpt>
      <trkpt lat="45.33487" lon="6.60262">
        <ele>2549</ele>
        <time>2021-01-01T14:25:16Z</time>
      </trkpt>
      <trkpt lat="45.33487" lon="6.60265">
        <ele>2549.6</ele>
        <time>2021-01-01T14:25:21Z</time>
      </trkpt>
      <trkpt lat="45.33487" lon="6.60266">
        <ele>2549.4</ele>
        <time>2021-01-01T14:25:26Z</time>
      </trkpt>
      <trkpt lat="45.33488" lon="6.60271">
        <ele>2546.6</ele>
        <time>2021-01-01T14:25:31Z</time>
      </trkpt>
      <trkpt lat="45.33489" lon="6.60273">
        <ele>2550.2</ele>
        <time>2021-01-01T14:25:36Z</time>
      </trkpt>
      <trkpt lat="45.3349" lon="6.60275">
        <ele>2551.2</ele>
        <time>2021-01-01T14:25:41Z</time>
      </trkpt>
      <trkpt lat="45.33492" lon="6.60282">
        <ele>2547.2</ele>
        <time>2021-01-01T14:25:46Z</time>
      </trkpt>
      <trkpt lat="45.33495" lon="6.6029">
        <ele>2550.4</ele>
        <time>2021-01-01T14:25:51Z</time>
      </trkpt>
      <trkpt lat="45.33497" lon="6.60294">
        <ele>2549.2</ele>
        <time>2021-01-01T14:25:56Z</time>
      </trkpt>
      <trkpt lat="45.33498" lon="6.60295">
        <ele>2548.6</ele>
        <time>2021-01-01T14:26:01Z</time>
      </trkpt>
      <trkpt lat="45.335" lon="6.60298">
        <ele>2545.8</ele>
        <time>2021-01-01T14:26:06Z</time>
      </trkpt>
      <trkpt lat="45.33502" lon="6.60303">
        <ele>2546.4</ele>
        <time>2021-01-01T14:26:11Z</time>
      </trkpt>
      <trkpt lat="45.33503" lon="6.60306">
        <ele>2547.8</ele>
        <time>2021-01-01T14:26:16Z</time>
      </trkpt>
      <trkpt lat="45.33504" lon="6.6031">
        <ele>2547.8</ele>
        <time>2021-01-01T14:26:21Z</time>
      </trkpt>
      <trkpt lat="45.33504" lon="6.60312">
        <ele>2549.2</ele>
        <time>2021-01-01T14:26:26Z</time>
      </trkpt>
      <trkpt lat="45.33504" lon="6.60313">
        <ele>2550.2</ele>
        <time>2021-01-01T14:26:31Z</time>
      </trkpt>
      <trkpt lat="45.33504" lon="6.60316">
        <ele>2551.2</ele>
        <time>2021-01-01T14:26:36Z</time>
      </trkpt>
      <trkpt lat="45.33504" lon="6.60318">
        <ele>2548</ele>
        <time>2021-01-01T14:26:41Z</time>
      </trkpt>
      <trkpt lat="45.33505" lon="6.60321">
        <ele>2549.4</ele>
        <time>2021-01-01T14:26:46Z</time>
      </trkpt>
      <trkpt lat="45.33506" lon="6.60322">
        <ele>2550.6</ele>
        <time>2021-01-01T14:26:51Z</time>
      </trkpt>
      <trkpt lat="45.33507" lon="6.60326">
        <ele>2547.2</ele>
        <time>2021-01-01T14:34:11Z</time>
      </trkpt>
      <trkpt lat="45.33507" lon="6.60327">
        <ele>2547.2</ele>
        <time>2021-01-01T14:34:16Z</time>
      </trkpt>
      <trkpt lat="45.33507" lon="6.60327">
        <ele>2547.4</ele>
        <time>2021-01-01T14:34:22Z</time>
      </trkpt>
      <trkpt lat="45.33507" lon="6.60331">
        <ele>2548.8</ele>
        <time>2021-01-01T14:34:27Z</time>
      </trkpt>
      <trkpt lat="45.33508" lon="6.60333">
        <ele>2549.2</ele>
        <time>2021-01-01T14:34:32Z</time>
      </trkpt>
      <trkpt lat="45.33508" lon="6.60335">
        <ele>2549.6</ele>
        <time>2021-01-01T14:34:37Z</time>
      </trkpt>
      <trkpt lat="45.33508" lon="6.60342">
        <ele>2546.4</ele>
        <time>2021-01-01T14:34:42Z</time>
      </trkpt>
      <trkpt lat="45.33509" lon="6.60351">
        <ele>2548.2</ele>
        <time>2021-01-01T14:34:47Z</time>
      </trkpt>
      <trkpt lat="45.3351" lon="6.60361">
        <ele>2545.6</ele>
        <time>2021-01-01T14:34:52Z</time>
      </trkpt>
      <trkpt lat="45.33511" lon="6.60369">
        <ele>2551.2</ele>
        <time>2021-01-01T14:34:57Z</time>
      </trkpt>
      <trkpt lat="45.33512" lon="6.60373">
        <ele>2550</ele>
        <time>2021-01-01T14:35:02Z</time>
      </trkpt>
      <trkpt lat="45.33512" lon="6.60376">
        <ele>2549.6</ele>
        <time>2021-01-01T14:35:07Z</time>
      </trkpt>
      <trkpt lat="45.33514" lon="6.60379">
        <ele>2551.8</ele>
        <time>2021-01-01T14:35:12Z</time>
      </trkpt>
      <trkpt lat="45.33515" lon="6.60383">
        <ele>2550.6</ele>
        <time>2021-01-01T14:35:17Z</time>
      </trkpt>
      <trkpt lat="45.33514" lon="6.60388">
        <ele>2545.8</ele>
        <time>2021-01-01T14:35:22Z</time>
      </trkpt>
      <trkpt lat="45.33514" lon="6.60389">
        <ele>2543.2</ele>
        <time>2021-01-01T14:35:27Z</time>
      </trkpt>
      <trkpt lat="45.33514" lon="6.60394">
        <ele>2543</ele>
        <time>2021-01-01T14:35:32Z</time>
      </trkpt>
      <trkpt lat="45.33514" lon="6.60398">
        <ele>2547.6</ele>
        <time>2021-01-01T14:35:37Z</time>
      </trkpt>
      <trkpt lat="45.33513" lon="6.60402">
        <ele>2546.6</ele>
        <time>2021-01-01T14:35:42Z</time>
      </trkpt>
      <trkpt lat="45.33513" lon="6.60402">
        <ele>2541.8</ele>
        <time>2021-01-01T15:08:18Z</time>
      </trkpt>
      <trkpt lat="45.33513" lon="6.60404">
        <ele>2542</ele>
        <time>2021-01-01T15:10:18Z</time>
      </trkpt>
      <trkpt lat="45.33513" lon="6.60404">
        <ele>2541.6</ele>
        <time>2021-01-01T15:10:54Z</time>
      </trkpt>
      <trkpt lat="45.33514" lon="6.60407">
        <ele>2542</ele>
        <time>2021-01-01T15:11:19Z</time>
      </trkpt>
      <trkpt lat="45.33515" lon="6.60409">
        <ele>2541</ele>
        <time>2021-01-01T15:11:24Z</time>
      </trkpt>
      <trkpt lat="45.3352" lon="6.60416">
        <ele>2538.2</ele>
        <time>2021-01-01T15:11:29Z</time>
      </trkpt>
      <trkpt lat="45.33522" lon="6.60423">
        <ele>2537.6</ele>
        <time>2021-01-01T15:11:34Z</time>
      </trkpt>
      <trkpt lat="45.33523" lon="6.60424">
        <ele>2535</ele>
        <time>2021-01-01T15:11:39Z</time>
      </trkpt>
      <trkpt lat="45.33523" lon="6.60425">
        <ele>2535.6</ele>
        <time>2021-01-01T15:11:44Z</time>
      </trkpt>
      <trkpt lat="45.33529" lon="6.60433">
        <ele>2529.6</ele>
        <time>2021-01-01T15:12:29Z</time>
      </trkpt>
      <trkpt lat="45.3353" lon="6.60434">
        <ele>2529.8</ele>
        <time>2021-01-01T15:12:34Z</time>
      </trkpt>
      <trkpt lat="45.33531" lon="6.60436">
        <ele>2528.4</ele>
        <time>2021-01-01T15:12:39Z</time>
      </trkpt>
      <trkpt lat="45.33531" lon="6.60436">
        <ele>2529</ele>
        <time>2021-01-01T15:12:44Z</time>
      </trkpt>
      <trkpt lat="45.33533" lon="6.60438">
        <ele>2529.8</ele>
        <time>2021-01-01T15:12:49Z</time>
      </trkpt>
      <trkpt lat="45.33535" lon="6.6044">
        <ele>2530.4</ele>
        <time>2021-01-01T15:12:54Z</time>
      </trkpt>
      <trkpt lat="45.3354" lon="6.60444">
        <ele>2526.8</ele>
        <time>2021-01-01T15:13:24Z</time>
      </trkpt>
      <trkpt lat="45.33541" lon="6.60445">
        <ele>2525.6</ele>
        <time>2021-01-01T15:13:29Z</time>
      </trkpt>
      <trkpt lat="45.33542" lon="6.60444">
        <ele>2526.2</ele>
        <time>2021-01-01T15:13:59Z</time>
      </trkpt>
      <trkpt lat="45.33543" lon="6.60444">
        <ele>2526</ele>
        <time>2021-01-01T15:14:04Z</time>
      </trkpt>
      <trkpt lat="45.33545" lon="6.60446">
        <ele>2525.8</ele>
        <time>2021-01-01T15:14:09Z</time>
      </trkpt>
      <trkpt lat="45.3355" lon="6.60449">
        <ele>2526.8</ele>
        <time>2021-01-01T15:14:14Z</time>
      </trkpt>
      <trkpt lat="45.33554" lon="6.6045">
        <ele>2524.8</ele>
        <time>2021-01-01T15:14:19Z</time>
      </trkpt>
      <trkpt lat="45.33557" lon="6.60456">
        <ele>2521.8</ele>
        <time>2021-01-01T15:14:24Z</time>
      </trkpt>
      <trkpt lat="45.33561" lon="6.60462">
        <ele>2521.2</ele>
        <time>2021-01-01T15:14:29Z</time>
      </trkpt>
      <trkpt lat="45.33565" lon="6.60469">
        <ele>2521</ele>
        <time>2021-01-01T15:14:34Z</time>
      </trkpt>
      <trkpt lat="45.3357" lon="6.60466">
        <ele>2517.4</ele>
        <time>2021-01-01T15:14:39Z</time>
      </trkpt>
      <trkpt lat="45.33576" lon="6.60467">
        <ele>2512.8</ele>
        <time>2021-01-01T15:14:44Z</time>
      </trkpt>
      <trkpt lat="45.33579" lon="6.60461">
        <ele>2511.8</ele>
        <time>2021-01-01T15:14:49Z</time>
      </trkpt>
      <trkpt lat="45.33579" lon="6.60461">
        <ele>2512</ele>
        <time>2021-01-01T15:14:54Z</time>
      </trkpt>
      <trkpt lat="45.33581" lon="6.60464">
        <ele>2513.4</ele>
        <time>2021-01-01T15:14:59Z</time>
      </trkpt>
      <trkpt lat="45.33586" lon="6.60473">
        <ele>2513</ele>
        <time>2021-01-01T15:15:04Z</time>
      </trkpt>
      <trkpt lat="45.33593" lon="6.6047">
        <ele>2505.4</ele>
        <time>2021-01-01T15:15:09Z</time>
      </trkpt>
      <trkpt lat="45.33596" lon="6.6048">
        <ele>2505.4</ele>
        <time>2021-01-01T15:15:14Z</time>
      </trkpt>
      <trkpt lat="45.33601" lon="6.60494">
        <ele>2502.6</ele>
        <time>2021-01-01T15:15:19Z</time>
      </trkpt>
      <trkpt lat="45.33602" lon="6.60507">
        <ele>2501</ele>
        <time>2021-01-01T15:15:24Z</time>
      </trkpt>
      <trkpt lat="45.33602" lon="6.60508">
        <ele>2500.4</ele>
        <time>2021-01-01T15:15:29Z</time>
      </trkpt>
      <trkpt lat="45.33602" lon="6.60521">
        <ele>2499.4</ele>
        <time>2021-01-01T15:15:34Z</time>
      </trkpt>
      <trkpt lat="45.33605" lon="6.60533">
        <ele>2491.6</ele>
        <time>2021-01-01T15:16:19Z</time>
      </trkpt>
      <trkpt lat="45.33607" lon="6.60533">
        <ele>2488.8</ele>
        <time>2021-01-01T15:16:24Z</time>
      </trkpt>
      <trkpt lat="45.33622" lon="6.60536">
        <ele>2485</ele>
        <time>2021-01-01T15:16:29Z</time>
      </trkpt>
      <trkpt lat="45.33643" lon="6.60516">
        <ele>2477.8</ele>
        <time>2021-01-01T15:16:34Z</time>
      </trkpt>
      <trkpt lat="45.33663" lon="6.60499">
        <ele>2469.8</ele>
        <time>2021-01-01T15:16:39Z</time>
      </trkpt>
      <trkpt lat="45.33688" lon="6.60497">
        <ele>2470.8</ele>
        <time>2021-01-01T15:16:44Z</time>
      </trkpt>
      <trkpt lat="45.33706" lon="6.60481">
        <ele>2467</ele>
        <time>2021-01-01T15:16:49Z</time>
      </trkpt>
      <trkpt lat="45.33721" lon="6.60474">
        <ele>2460.6</ele>
        <time>2021-01-01T15:16:54Z</time>
      </trkpt>
      <trkpt lat="45.33729" lon="6.60451">
        <ele>2455.2</ele>
        <time>2021-01-01T15:16:59Z</time>
      </trkpt>
      <trkpt lat="45.33734" lon="6.60427">
        <ele>2446.8</ele>
        <time>2021-01-01T15:17:04Z</time>
      </trkpt>
      <trkpt lat="45.33751" lon="6.6041">
        <ele>2435.2</ele>
        <time>2021-01-01T15:17:09Z</time>
      </trkpt>
      <trkpt lat="45.3375" lon="6.60404">
        <ele>2434</ele>
        <time>2021-01-01T15:17:14Z</time>
      </trkpt>
      <trkpt lat="45.33749" lon="6.60392">
        <ele>2434.2</ele>
        <time>2021-01-01T15:17:19Z</time>
      </trkpt>
      <trkpt lat="45.33745" lon="6.60378">
        <ele>2433.6</ele>
        <time>2021-01-01T15:17:24Z</time>
      </trkpt>
      <trkpt lat="45.33743" lon="6.60368">
        <ele>2431.8</ele>
        <time>2021-01-01T15:17:29Z</time>
      </trkpt>
      <trkpt lat="45.33742" lon="6.60365">
        <ele>2430.8</ele>
        <time>2021-01-01T15:17:34Z</time>
      </trkpt>
      <trkpt lat="45.33742" lon="6.60364">
        <ele>2429.2</ele>
        <time>2021-01-01T15:17:44Z</time>
      </trkpt>
      <trkpt lat="45.33744" lon="6.60357">
        <ele>2427.8</ele>
        <time>2021-01-01T15:17:49Z</time>
      </trkpt>
      <trkpt lat="45.33748" lon="6.60339">
        <ele>2424.8</ele>
        <time>2021-01-01T15:17:54Z</time>
      </trkpt>
      <trkpt lat="45.33765" lon="6.60331">
        <ele>2416.4</ele>
        <time>2021-01-01T15:17:59Z</time>
      </trkpt>
      <trkpt lat="45.33785" lon="6.60318">
        <ele>2413.2</ele>
        <time>2021-01-01T15:18:04Z</time>
      </trkpt>
      <trkpt lat="45.33803" lon="6.60335">
        <ele>2407.8</ele>
        <time>2021-01-01T15:18:09Z</time>
      </trkpt>
      <trkpt lat="45.33824" lon="6.60338">
        <ele>2396.8</ele>
        <time>2021-01-01T15:18:14Z</time>
      </trkpt>
      <trkpt lat="45.33838" lon="6.60337">
        <ele>2391.2</ele>
        <time>2021-01-01T15:18:19Z</time>
      </trkpt>
      <trkpt lat="45.33837" lon="6.60337">
        <ele>2398</ele>
        <time>2021-01-01T15:18:34Z</time>
      </trkpt>
      <trkpt lat="45.33838" lon="6.60338">
        <ele>2398</ele>
        <time>2021-01-01T15:18:39Z</time>
      </trkpt>
      <trkpt lat="45.33839" lon="6.60343">
        <ele>2395.6</ele>
        <time>2021-01-01T15:18:44Z</time>
      </trkpt>
      <trkpt lat="45.33839" lon="6.60343">
        <ele>2395.2</ele>
        <time>2021-01-01T15:18:49Z</time>
      </trkpt>
      <trkpt lat="45.33838" lon="6.60345">
        <ele>2398</ele>
        <time>2021-01-01T15:18:54Z</time>
      </trkpt>
      <trkpt lat="45.33838" lon="6.60346">
        <ele>2395.4</ele>
        <time>2021-01-01T15:19:04Z</time>
      </trkpt>
      <trkpt lat="45.33837" lon="6.60346">
        <ele>2393.6</ele>
        <time>2021-01-01T15:19:09Z</time>
      </trkpt>
      <trkpt lat="45.33836" lon="6.60346">
        <ele>2393</ele>
        <time>2021-01-01T15:19:14Z</time>
      </trkpt>
      <trkpt lat="45.33836" lon="6.60346">
        <ele>2390.6</ele>
        <time>2021-01-01T15:20:31Z</time>
      </trkpt>
      <trkpt lat="45.33835" lon="6.60345">
        <ele>2390.2</ele>
        <time>2021-01-01T15:20:36Z</time>
      </trkpt>
      <trkpt lat="45.33835" lon="6.60345">
        <ele>2388.4</ele>
        <time>2021-01-01T15:21:16Z</time>
      </trkpt>
      <trkpt lat="45.33838" lon="6.60349">
        <ele>2388.2</ele>
        <time>2021-01-01T15:21:21Z</time>
      </trkpt>
      <trkpt lat="45.33853" lon="6.60353">
        <ele>2379.2</ele>
        <time>2021-01-01T15:21:26Z</time>
      </trkpt>
      <trkpt lat="45.33875" lon="6.60353">
        <ele>2369</ele>
        <time>2021-01-01T15:21:31Z</time>
      </trkpt>
      <trkpt lat="45.33893" lon="6.60336">
        <ele>2364.8</ele>
        <time>2021-01-01T15:21:36Z</time>
      </trkpt>
      <trkpt lat="45.33913" lon="6.60321">
        <ele>2358.4</ele>
        <time>2021-01-01T15:21:41Z</time>
      </trkpt>
      <trkpt lat="45.33933" lon="6.60306">
        <ele>2351</ele>
        <time>2021-01-01T15:21:46Z</time>
      </trkpt>
      <trkpt lat="45.33951" lon="6.60291">
        <ele>2339.6</ele>
        <time>2021-01-01T15:21:51Z</time>
      </trkpt>
      <trkpt lat="45.3397" lon="6.6029">
        <ele>2334</ele>
        <time>2021-01-01T15:21:56Z</time>
      </trkpt>
      <trkpt lat="45.33989" lon="6.60274">
        <ele>2317.2</ele>
        <time>2021-01-01T15:22:01Z</time>
      </trkpt>
      <trkpt lat="45.34007" lon="6.60261">
        <ele>2309</ele>
        <time>2021-01-01T15:22:06Z</time>
      </trkpt>
      <trkpt lat="45.34019" lon="6.60234">
        <ele>2303.8</ele>
        <time>2021-01-01T15:22:11Z</time>
      </trkpt>
      <trkpt lat="45.34038" lon="6.60217">
        <ele>2299.6</ele>
        <time>2021-01-01T15:22:16Z</time>
      </trkpt>
      <trkpt lat="45.34063" lon="6.60211">
        <ele>2293.2</ele>
        <time>2021-01-01T15:22:21Z</time>
      </trkpt>
      <trkpt lat="45.34075" lon="6.602">
        <ele>2290.8</ele>
        <time>2021-01-01T15:22:26Z</time>
      </trkpt>
      <trkpt lat="45.34076" lon="6.602">
        <ele>2289.8</ele>
        <time>2021-01-01T15:22:31Z</time>
      </trkpt>
      <trkpt lat="45.34077" lon="6.602">
        <ele>2289.6</ele>
        <time>2021-01-01T15:22:36Z</time>
      </trkpt>
      <trkpt lat="45.34077" lon="6.602">
        <ele>2289.2</ele>
        <time>2021-01-01T15:22:41Z</time>
      </trkpt>
      <trkpt lat="45.34081" lon="6.60198">
        <ele>2289</ele>
        <time>2021-01-01T15:22:46Z</time>
      </trkpt>
      <trkpt lat="45.34089" lon="6.60193">
        <ele>2282.8</ele>
        <time>2021-01-01T15:22:51Z</time>
      </trkpt>
      <trkpt lat="45.34098" lon="6.60191">
        <ele>2279.4</ele>
        <time>2021-01-01T15:22:56Z</time>
      </trkpt>
      <trkpt lat="45.34108" lon="6.60196">
        <ele>2276.4</ele>
        <time>2021-01-01T15:23:01Z</time>
      </trkpt>
      <trkpt lat="45.34133" lon="6.60188">
        <ele>2268.8</ele>
        <time>2021-01-01T15:23:06Z</time>
      </trkpt>
      <trkpt lat="45.34168" lon="6.60159">
        <ele>2261.6</ele>
        <time>2021-01-01T15:23:11Z</time>
      </trkpt>
      <trkpt lat="45.34196" lon="6.60127">
        <ele>2254.4</ele>
        <time>2021-01-01T15:23:16Z</time>
      </trkpt>
      <trkpt lat="45.34226" lon="6.60097">
        <ele>2247</ele>
        <time>2021-01-01T15:23:21Z</time>
      </trkpt>
      <trkpt lat="45.34256" lon="6.60059">
        <ele>2237.8</ele>
        <time>2021-01-01T15:23:26Z</time>
      </trkpt>
      <trkpt lat="45.3427" lon="6.60036">
        <ele>2232.4</ele>
        <time>2021-01-01T15:23:31Z</time>
      </trkpt>
      <trkpt lat="45.34272" lon="6.60028">
        <ele>2230.4</ele>
        <time>2021-01-01T15:23:36Z</time>
      </trkpt>
      <trkpt lat="45.34272" lon="6.60028">
        <ele>2228.8</ele>
        <time>2021-01-01T15:23:46Z</time>
      </trkpt>
      <trkpt lat="45.34271" lon="6.60029">
        <ele>2228.2</ele>
        <time>2021-01-01T15:23:51Z</time>
      </trkpt>
      <trkpt lat="45.34272" lon="6.60028">
        <ele>2232.4</ele>
        <time>2021-01-01T15:23:56Z</time>
      </trkpt>
      <trkpt lat="45.34288" lon="6.60012">
        <ele>2223.6</ele>
        <time>2021-01-01T15:24:01Z</time>
      </trkpt>
      <trkpt lat="45.34308" lon="6.59995">
        <ele>2215</ele>
        <time>2021-01-01T15:24:06Z</time>
      </trkpt>
      <trkpt lat="45.34314" lon="6.59992">
        <ele>2212.8</ele>
        <time>2021-01-01T15:24:11Z</time>
      </trkpt>
      <trkpt lat="45.34314" lon="6.59992">
        <ele>2211.8</ele>
        <time>2021-01-01T15:25:36Z</time>
      </trkpt>
      <trkpt lat="45.34313" lon="6.59985">
        <ele>2209.8</ele>
        <time>2021-01-01T15:25:41Z</time>
      </trkpt>
      <trkpt lat="45.34326" lon="6.59967">
        <ele>2201.8</ele>
        <time>2021-01-01T15:25:46Z</time>
      </trkpt>
      <trkpt lat="45.34337" lon="6.59939">
        <ele>2194.6</ele>
        <time>2021-01-01T15:25:51Z</time>
      </trkpt>
      <trkpt lat="45.3436" lon="6.59912">
        <ele>2184</ele>
        <time>2021-01-01T15:25:56Z</time>
      </trkpt>
      <trkpt lat="45.34383" lon="6.59894">
        <ele>2179.8</ele>
        <time>2021-01-01T15:26:01Z</time>
      </trkpt>
      <trkpt lat="45.34393" lon="6.59862">
        <ele>2163.8</ele>
        <time>2021-01-01T15:26:06Z</time>
      </trkpt>
      <trkpt lat="45.34409" lon="6.59827">
        <ele>2147.4</ele>
        <time>2021-01-01T15:26:11Z</time>
      </trkpt>
      <trkpt lat="45.34425" lon="6.59801">
        <ele>2142</ele>
        <time>2021-01-01T15:26:16Z</time>
      </trkpt>
      <trkpt lat="45.3444" lon="6.59776">
        <ele>2133.8</ele>
        <time>2021-01-01T15:26:21Z</time>
      </trkpt>
      <trkpt lat="45.34452" lon="6.59747">
        <ele>2124.2</ele>
        <time>2021-01-01T15:26:26Z</time>
      </trkpt>
      <trkpt lat="45.3447" lon="6.59714">
        <ele>2114.6</ele>
        <time>2021-01-01T15:26:31Z</time>
      </trkpt>
      <trkpt lat="45.34483" lon="6.59689">
        <ele>2109.8</ele>
        <time>2021-01-01T15:26:36Z</time>
      </trkpt>
      <trkpt lat="45.34492" lon="6.59666">
        <ele>2104.6</ele>
        <time>2021-01-01T15:26:41Z</time>
      </trkpt>
      <trkpt lat="45.34512" lon="6.59649">
        <ele>2095.4</ele>
        <time>2021-01-01T15:26:46Z</time>
      </trkpt>
      <trkpt lat="45.34525" lon="6.59629">
        <ele>2085.4</ele>
        <time>2021-01-01T15:26:51Z</time>
      </trkpt>
      <trkpt lat="45.34534" lon="6.59609">
        <ele>2074.2</ele>
        <time>2021-01-01T15:26:56Z</time>
      </trkpt>
      <trkpt lat="45.34555" lon="6.59599">
        <ele>2071.8</ele>
        <time>2021-01-01T15:27:01Z</time>
      </trkpt>
      <trkpt lat="45.34563" lon="6.59594">
        <ele>2066.8</ele>
        <time>2021-01-01T15:27:06Z</time>
      </trkpt>
      <trkpt lat="45.34561" lon="6.59593">
        <ele>2068</ele>
        <time>2021-01-01T15:27:11Z</time>
      </trkpt>
      <trkpt lat="45.34561" lon="6.59593">
        <ele>2068.6</ele>
        <time>2021-01-01T15:27:16Z</time>
      </trkpt>
      <trkpt lat="45.34555" lon="6.5958">
        <ele>2068</ele>
        <time>2021-01-01T15:27:21Z</time>
      </trkpt>
      <trkpt lat="45.34557" lon="6.59546">
        <ele>2055.4</ele>
        <time>2021-01-01T15:27:26Z</time>
      </trkpt>
      <trkpt lat="45.34566" lon="6.59512">
        <ele>2049</ele>
        <time>2021-01-01T15:27:31Z</time>
      </trkpt>
      <trkpt lat="45.34569" lon="6.59473">
        <ele>2043</ele>
        <time>2021-01-01T15:27:36Z</time>
      </trkpt>
      <trkpt lat="45.34571" lon="6.59442">
        <ele>2041.2</ele>
        <time>2021-01-01T15:27:41Z</time>
      </trkpt>
      <trkpt lat="45.34583" lon="6.59414">
        <ele>2033.6</ele>
        <time>2021-01-01T15:27:46Z</time>
      </trkpt>
      <trkpt lat="45.34587" lon="6.59374">
        <ele>2026</ele>
        <time>2021-01-01T15:27:51Z</time>
      </trkpt>
      <trkpt lat="45.34593" lon="6.59332">
        <ele>2018.2</ele>
        <time>2021-01-01T15:27:56Z</time>
      </trkpt>
      <trkpt lat="45.34611" lon="6.59303">
        <ele>2016.6</ele>
        <time>2021-01-01T15:28:01Z</time>
      </trkpt>
      <trkpt lat="45.34637" lon="6.59292">
        <ele>2010.6</ele>
        <time>2021-01-01T15:28:06Z</time>
      </trkpt>
      <trkpt lat="45.34654" lon="6.59292">
        <ele>2013</ele>
        <time>2021-01-01T15:28:11Z</time>
      </trkpt>
      <trkpt lat="45.34668" lon="6.59292">
        <ele>2009.2</ele>
        <time>2021-01-01T15:28:16Z</time>
      </trkpt>
      <trkpt lat="45.34695" lon="6.59291">
        <ele>2005.8</ele>
        <time>2021-01-01T15:28:21Z</time>
      </trkpt>
      <trkpt lat="45.3473" lon="6.59294">
        <ele>2002.8</ele>
        <time>2021-01-01T15:28:26Z</time>
      </trkpt>
      <trkpt lat="45.34755" lon="6.59294">
        <ele>2000.4</ele>
        <time>2021-01-01T15:28:31Z</time>
      </trkpt>
      <trkpt lat="45.34776" lon="6.59303">
        <ele>1996.4</ele>
        <time>2021-01-01T15:28:36Z</time>
      </trkpt>
      <trkpt lat="45.34781" lon="6.59304">
        <ele>1994.2</ele>
        <time>2021-01-01T15:28:41Z</time>
      </trkpt>
      <trkpt lat="45.34795" lon="6.59297">
        <ele>1987</ele>
        <time>2021-01-01T15:28:46Z</time>
      </trkpt>
      <trkpt lat="45.34825" lon="6.59281">
        <ele>1987.2</ele>
        <time>2021-01-01T15:28:51Z</time>
      </trkpt>
      <trkpt lat="45.34847" lon="6.59254">
        <ele>1978.4</ele>
        <time>2021-01-01T15:28:56Z</time>
      </trkpt>
      <trkpt lat="45.34869" lon="6.59236">
        <ele>1969.4</ele>
        <time>2021-01-01T15:29:01Z</time>
      </trkpt>
      <trkpt lat="45.34894" lon="6.59206">
        <ele>1952.8</ele>
        <time>2021-01-01T15:29:06Z</time>
      </trkpt>
      <trkpt lat="45.34943" lon="6.59156">
        <ele>1948.4</ele>
        <time>2021-01-01T15:29:11Z</time>
      </trkpt>
      <trkpt lat="45.34991" lon="6.59151">
        <ele>1946</ele>
        <time>2021-01-01T15:29:16Z</time>
      </trkpt>
      <trkpt lat="45.35028" lon="6.5915">
        <ele>1941.8</ele>
        <time>2021-01-01T15:29:21Z</time>
      </trkpt>
      <trkpt lat="45.35057" lon="6.59143">
        <ele>1942.6</ele>
        <time>2021-01-01T15:29:26Z</time>
      </trkpt>
      <trkpt lat="45.35075" lon="6.5914">
        <ele>1939.6</ele>
        <time>2021-01-01T15:29:31Z</time>
      </trkpt>
      <trkpt lat="45.35082" lon="6.5914">
        <ele>1937.2</ele>
        <time>2021-01-01T15:29:36Z</time>
      </trkpt>
      <trkpt lat="45.35085" lon="6.59143">
        <ele>1934.6</ele>
        <time>2021-01-01T15:29:41Z</time>
      </trkpt>
      <trkpt lat="45.35094" lon="6.59145">
        <ele>1933</ele>
        <time>2021-01-01T15:29:46Z</time>
      </trkpt>
      <trkpt lat="45.35101" lon="6.59145">
        <ele>1929.2</ele>
        <time>2021-01-01T15:29:51Z</time>
      </trkpt>
      <trkpt lat="45.35111" lon="6.59142">
        <ele>1927.4</ele>
        <time>2021-01-01T15:29:56Z</time>
      </trkpt>
      <trkpt lat="45.35125" lon="6.59135">
        <ele>1925.8</ele>
        <time>2021-01-01T15:30:01Z</time>
      </trkpt>
      <trkpt lat="45.35144" lon="6.5913">
        <ele>1920.2</ele>
        <time>2021-01-01T15:30:06Z</time>
      </trkpt>
      <trkpt lat="45.35171" lon="6.59123">
        <ele>1916.2</ele>
        <time>2021-01-01T15:30:11Z</time>
      </trkpt>
      <trkpt lat="45.35209" lon="6.59104">
        <ele>1908.2</ele>
        <time>2021-01-01T15:30:16Z</time>
      </trkpt>
      <trkpt lat="45.35245" lon="6.59076">
        <ele>1905.2</ele>
        <time>2021-01-01T15:30:21Z</time>
      </trkpt>
      <trkpt lat="45.35276" lon="6.59051">
        <ele>1903.6</ele>
        <time>2021-01-01T15:30:26Z</time>
      </trkpt>
      <trkpt lat="45.3531" lon="6.59029">
        <ele>1899.6</ele>
        <time>2021-01-01T15:30:31Z</time>
      </trkpt>
      <trkpt lat="45.35345" lon="6.59008">
        <ele>1899.4</ele>
        <time>2021-01-01T15:30:36Z</time>
      </trkpt>
      <trkpt lat="45.35369" lon="6.5898">
        <ele>1895</ele>
        <time>2021-01-01T15:30:41Z</time>
      </trkpt>
      <trkpt lat="45.35394" lon="6.58951">
        <ele>1888.6</ele>
        <time>2021-01-01T15:30:46Z</time>
      </trkpt>
      <trkpt lat="45.35418" lon="6.58914">
        <ele>1888.4</ele>
        <time>2021-01-01T15:30:51Z</time>
      </trkpt>
      <trkpt lat="45.3545" lon="6.58875">
        <ele>1882.4</ele>
        <time>2021-01-01T15:30:56Z</time>
      </trkpt>
      <trkpt lat="45.35486" lon="6.58853">
        <ele>1878</ele>
        <time>2021-01-01T15:31:01Z</time>
      </trkpt>
      <trkpt lat="45.35521" lon="6.58835">
        <ele>1868.4</ele>
        <time>2021-01-01T15:31:06Z</time>
      </trkpt>
      <trkpt lat="45.35554" lon="6.58802">
        <ele>1862.8</ele>
        <time>2021-01-01T15:31:11Z</time>
      </trkpt>
      <trkpt lat="45.35589" lon="6.58769">
        <ele>1858.8</ele>
        <time>2021-01-01T15:31:16Z</time>
      </trkpt>
      <trkpt lat="45.35625" lon="6.58736">
        <ele>1851.4</ele>
        <time>2021-01-01T15:31:21Z</time>
      </trkpt>
      <trkpt lat="45.35665" lon="6.58716">
        <ele>1847.8</ele>
        <time>2021-01-01T15:31:26Z</time>
      </trkpt>
      <trkpt lat="45.35693" lon="6.58694">
        <ele>1845</ele>
        <time>2021-01-01T15:31:31Z</time>
      </trkpt>
      <trkpt lat="45.3573" lon="6.58672">
        <ele>1838.2</ele>
        <time>2021-01-01T15:31:36Z</time>
      </trkpt>
      <trkpt lat="45.35761" lon="6.58642">
        <ele>1834.8</ele>
        <time>2021-01-01T15:31:41Z</time>
      </trkpt>
      <trkpt lat="45.35794" lon="6.58619">
        <ele>1832.6</ele>
        <time>2021-01-01T15:31:46Z</time>
      </trkpt>
      <trkpt lat="45.3582" lon="6.58601">
        <ele>1832.8</ele>
        <time>2021-01-01T15:31:51Z</time>
      </trkpt>
      <trkpt lat="45.35845" lon="6.58584">
        <ele>1827.8</ele>
        <time>2021-01-01T15:31:56Z</time>
      </trkpt>
      <trkpt lat="45.35869" lon="6.58566">
        <ele>1825.8</ele>
        <time>2021-01-01T15:32:01Z</time>
      </trkpt>
      <trkpt lat="45.35891" lon="6.5855">
        <ele>1824.2</ele>
        <time>2021-01-01T15:32:06Z</time>
      </trkpt>
      <trkpt lat="45.35914" lon="6.58533">
        <ele>1819.4</ele>
        <time>2021-01-01T15:32:11Z</time>
      </trkpt>
      <trkpt lat="45.35941" lon="6.58521">
        <ele>1818.6</ele>
        <time>2021-01-01T15:32:16Z</time>
      </trkpt>
      <trkpt lat="45.35971" lon="6.58511">
        <ele>1814.8</ele>
        <time>2021-01-01T15:32:21Z</time>
      </trkpt>
      <trkpt lat="45.35995" lon="6.58504">
        <ele>1814.2</ele>
        <time>2021-01-01T15:32:26Z</time>
      </trkpt>
      <trkpt lat="45.36018" lon="6.58497">
        <ele>1814.8</ele>
        <time>2021-01-01T15:32:31Z</time>
      </trkpt>
      <trkpt lat="45.36036" lon="6.58487">
        <ele>1812</ele>
        <time>2021-01-01T15:32:36Z</time>
      </trkpt>
      <trkpt lat="45.36047" lon="6.58473">
        <ele>1812.2</ele>
        <time>2021-01-01T15:32:41Z</time>
      </trkpt>
      <trkpt lat="45.3606" lon="6.58454">
        <ele>1811.8</ele>
        <time>2021-01-01T15:32:46Z</time>
      </trkpt>
      <trkpt lat="45.36075" lon="6.58429">
        <ele>1811</ele>
        <time>2021-01-01T15:32:51Z</time>
      </trkpt>
      <trkpt lat="45.36088" lon="6.58398">
        <ele>1810.6</ele>
        <time>2021-01-01T15:32:56Z</time>
      </trkpt>
      <trkpt lat="45.36105" lon="6.58375">
        <ele>1808</ele>
        <time>2021-01-01T15:33:01Z</time>
      </trkpt>
      <trkpt lat="45.36122" lon="6.58364">
        <ele>1804</ele>
        <time>2021-01-01T15:33:06Z</time>
      </trkpt>
      <trkpt lat="45.36137" lon="6.58354">
        <ele>1805.6</ele>
        <time>2021-01-01T15:33:11Z</time>
      </trkpt>
      <trkpt lat="45.36158" lon="6.58341">
        <ele>1803.2</ele>
        <time>2021-01-01T15:33:16Z</time>
      </trkpt>
      <trkpt lat="45.36179" lon="6.58326">
        <ele>1806</ele>
        <time>2021-01-01T15:33:21Z</time>
      </trkpt>
      <trkpt lat="45.36198" lon="6.58309">
        <ele>1803.4</ele>
        <time>2021-01-01T15:33:26Z</time>
      </trkpt>
      <trkpt lat="45.36214" lon="6.58299">
        <ele>1798.8</ele>
        <time>2021-01-01T15:33:31Z</time>
      </trkpt>
      <trkpt lat="45.36224" lon="6.58291">
        <ele>1799.2</ele>
        <time>2021-01-01T15:33:36Z</time>
      </trkpt>
      <trkpt lat="45.36244" lon="6.58281">
        <ele>1801.6</ele>
        <time>2021-01-01T15:33:41Z</time>
      </trkpt>
      <trkpt lat="45.36271" lon="6.58276">
        <ele>1801</ele>
        <time>2021-01-01T15:33:46Z</time>
      </trkpt>
      <trkpt lat="45.36295" lon="6.58271">
        <ele>1796.4</ele>
        <time>2021-01-01T15:33:51Z</time>
      </trkpt>
      <trkpt lat="45.36317" lon="6.58264">
        <ele>1795</ele>
        <time>2021-01-01T15:33:56Z</time>
      </trkpt>
      <trkpt lat="45.36338" lon="6.58269">
        <ele>1793.8</ele>
        <time>2021-01-01T15:34:01Z</time>
      </trkpt>
      <trkpt lat="45.36359" lon="6.58284">
        <ele>1794</ele>
        <time>2021-01-01T15:34:06Z</time>
      </trkpt>
      <trkpt lat="45.36379" lon="6.58296">
        <ele>1791</ele>
        <time>2021-01-01T15:34:11Z</time>
      </trkpt>
      <trkpt lat="45.36396" lon="6.58305">
        <ele>1791.2</ele>
        <time>2021-01-01T15:34:16Z</time>
      </trkpt>
      <trkpt lat="45.3641" lon="6.58307">
        <ele>1790.6</ele>
        <time>2021-01-01T15:34:21Z</time>
      </trkpt>
      <trkpt lat="45.36427" lon="6.58302">
        <ele>1790</ele>
        <time>2021-01-01T15:34:26Z</time>
      </trkpt>
      <trkpt lat="45.36442" lon="6.58298">
        <ele>1787.8</ele>
        <time>2021-01-01T15:34:31Z</time>
      </trkpt>
      <trkpt lat="45.36461" lon="6.58296">
        <ele>1785.2</ele>
        <time>2021-01-01T15:34:36Z</time>
      </trkpt>
      <trkpt lat="45.36482" lon="6.58295">
        <ele>1783.4</ele>
        <time>2021-01-01T15:34:41Z</time>
      </trkpt>
      <trkpt lat="45.36503" lon="6.58293">
        <ele>1784.6</ele>
        <time>2021-01-01T15:34:46Z</time>
      </trkpt>
      <trkpt lat="45.3652" lon="6.58287">
        <ele>1783.2</ele>
        <time>2021-01-01T15:34:51Z</time>
      </trkpt>
      <trkpt lat="45.36532" lon="6.5828">
        <ele>1780.2</ele>
        <time>2021-01-01T15:34:56Z</time>
      </trkpt>
      <trkpt lat="45.3654" lon="6.5827">
        <ele>1782</ele>
        <time>2021-01-01T15:35:01Z</time>
      </trkpt>
      <trkpt lat="45.36553" lon="6.58256">
        <ele>1780.2</ele>
        <time>2021-01-01T15:35:06Z</time>
      </trkpt>
      <trkpt lat="45.36566" lon="6.58244">
        <ele>1776</ele>
        <time>2021-01-01T15:35:11Z</time>
      </trkpt>
      <trkpt lat="45.36585" lon="6.58225">
        <ele>1777</ele>
        <time>2021-01-01T15:35:16Z</time>
      </trkpt>
      <trkpt lat="45.36609" lon="6.58201">
        <ele>1776.6</ele>
        <time>2021-01-01T15:35:21Z</time>
      </trkpt>
      <trkpt lat="45.36629" lon="6.58181">
        <ele>1775.8</ele>
        <time>2021-01-01T15:35:26Z</time>
      </trkpt>
      <trkpt lat="45.36652" lon="6.5816">
        <ele>1774</ele>
        <time>2021-01-01T15:35:31Z</time>
      </trkpt>
      <trkpt lat="45.36661" lon="6.58161">
        <ele>1773.8</ele>
        <time>2021-01-01T15:35:36Z</time>
      </trkpt>
      <trkpt lat="45.36664" lon="6.58161">
        <ele>1773.6</ele>
        <time>2021-01-01T15:35:41Z</time>
      </trkpt>
      <trkpt lat="45.36669" lon="6.58161">
        <ele>1773</ele>
        <time>2021-01-01T15:35:46Z</time>
      </trkpt>
      <trkpt lat="45.36675" lon="6.58158">
        <ele>1774.8</ele>
        <time>2021-01-01T15:35:51Z</time>
      </trkpt>
      <trkpt lat="45.36684" lon="6.58155">
        <ele>1773</ele>
        <time>2021-01-01T15:35:56Z</time>
      </trkpt>
      <trkpt lat="45.36692" lon="6.58153">
        <ele>1770.6</ele>
        <time>2021-01-01T15:36:01Z</time>
      </trkpt>
      <trkpt lat="45.36699" lon="6.58151">
        <ele>1769.4</ele>
        <time>2021-01-01T15:36:06Z</time>
      </trkpt>
      <trkpt lat="45.36708" lon="6.58148">
        <ele>1769.2</ele>
        <time>2021-01-01T15:36:11Z</time>
      </trkpt>
      <trkpt lat="45.36716" lon="6.58145">
        <ele>1767.2</ele>
        <time>2021-01-01T15:36:16Z</time>
      </trkpt>
      <trkpt lat="45.36727" lon="6.58139">
        <ele>1769.4</ele>
        <time>2021-01-01T15:36:21Z</time>
      </trkpt>
      <trkpt lat="45.36747" lon="6.58144">
        <ele>1763.8</ele>
        <time>2021-01-01T15:36:26Z</time>
      </trkpt>
      <trkpt lat="45.36782" lon="6.58143">
        <ele>1761.2</ele>
        <time>2021-01-01T15:36:31Z</time>
      </trkpt>
      <trkpt lat="45.36823" lon="6.58134">
        <ele>1755.6</ele>
        <time>2021-01-01T15:36:36Z</time>
      </trkpt>
      <trkpt lat="45.36868" lon="6.58121">
        <ele>1751</ele>
        <time>2021-01-01T15:36:41Z</time>
      </trkpt>
      <trkpt lat="45.36908" lon="6.58114">
        <ele>1750.6</ele>
        <time>2021-01-01T15:36:46Z</time>
      </trkpt>
      <trkpt lat="45.36941" lon="6.58099">
        <ele>1746.4</ele>
        <time>2021-01-01T15:36:51Z</time>
      </trkpt>
      <trkpt lat="45.36971" lon="6.58081">
        <ele>1747.2</ele>
        <time>2021-01-01T15:36:56Z</time>
      </trkpt>
      <trkpt lat="45.37" lon="6.58064">
        <ele>1746.6</ele>
        <time>2021-01-01T15:37:01Z</time>
      </trkpt>
      <trkpt lat="45.37029" lon="6.58041">
        <ele>1739</ele>
        <time>2021-01-01T15:37:06Z</time>
      </trkpt>
      <trkpt lat="45.37058" lon="6.58022">
        <ele>1736.6</ele>
        <time>2021-01-01T15:37:11Z</time>
      </trkpt>
      <trkpt lat="45.37088" lon="6.58008">
        <ele>1732.8</ele>
        <time>2021-01-01T15:37:16Z</time>
      </trkpt>
      <trkpt lat="45.37115" lon="6.57986">
        <ele>1730.4</ele>
        <time>2021-01-01T15:37:21Z</time>
      </trkpt>
      <trkpt lat="45.37138" lon="6.57961">
        <ele>1728.6</ele>
        <time>2021-01-01T15:37:26Z</time>
      </trkpt>
      <trkpt lat="45.3716" lon="6.57952">
        <ele>1730.2</ele>
        <time>2021-01-01T15:37:31Z</time>
      </trkpt>
      <trkpt lat="45.3718" lon="6.57959">
        <ele>1725.6</ele>
        <time>2021-01-01T15:37:36Z</time>
      </trkpt>
      <trkpt lat="45.37191" lon="6.57959">
        <ele>1724.6</ele>
        <time>2021-01-01T15:37:41Z</time>
      </trkpt>
      <trkpt lat="45.37189" lon="6.5796">
        <ele>1720.8</ele>
        <time>2021-01-01T15:37:46Z</time>
      </trkpt>
      <trkpt lat="45.3717" lon="6.5798">
        <ele>1715.2</ele>
        <time>2021-01-01T15:37:51Z</time>
      </trkpt>
      <trkpt lat="45.37174" lon="6.58018">
        <ele>1710</ele>
        <time>2021-01-01T15:37:56Z</time>
      </trkpt>
      <trkpt lat="45.37202" lon="6.58037">
        <ele>1705.4</ele>
        <time>2021-01-01T15:38:01Z</time>
      </trkpt>
      <trkpt lat="45.37224" lon="6.58042">
        <ele>1702</ele>
        <time>2021-01-01T15:38:06Z</time>
      </trkpt>
      <trkpt lat="45.37244" lon="6.5804">
        <ele>1700.8</ele>
        <time>2021-01-01T15:38:11Z</time>
      </trkpt>
      <trkpt lat="45.37252" lon="6.58039">
        <ele>1700.8</ele>
        <time>2021-01-01T15:38:16Z</time>
      </trkpt>
      <trkpt lat="45.37254" lon="6.5804">
        <ele>1699.4</ele>
        <time>2021-01-01T15:38:21Z</time>
      </trkpt>
      <trkpt lat="45.37253" lon="6.5804">
        <ele>1699.2</ele>
        <time>2021-01-01T15:38:46Z</time>
      </trkpt>
      <trkpt lat="45.37253" lon="6.58041">
        <ele>1698.4</ele>
        <time>2021-01-01T15:38:56Z</time>
      </trkpt>
      <trkpt lat="45.37252" lon="6.58041">
        <ele>1696</ele>
        <time>2021-01-01T15:39:11Z</time>
      </trkpt>
      <trkpt lat="45.37256" lon="6.58042">
        <ele>1696.2</ele>
        <time>2021-01-01T15:39:31Z</time>
      </trkpt>
      <trkpt lat="45.3726" lon="6.58038">
        <ele>1697.2</ele>
        <time>2021-01-01T15:39:36Z</time>
      </trkpt>
      <trkpt lat="45.37262" lon="6.58036">
        <ele>1695.8</ele>
        <time>2021-01-01T15:39:41Z</time>
      </trkpt>
      <trkpt lat="45.37262" lon="6.58035">
        <ele>1695.8</ele>
        <time>2021-01-01T15:39:46Z</time>
      </trkpt>
      <trkpt lat="45.37264" lon="6.58031">
        <ele>1694.4</ele>
        <time>2021-01-01T15:39:51Z</time>
      </trkpt>
      <trkpt lat="45.37268" lon="6.58027">
        <ele>1695.2</ele>
        <time>2021-01-01T15:39:56Z</time>
      </trkpt>
      <trkpt lat="45.37271" lon="6.58023">
        <ele>1696.6</ele>
        <time>2021-01-01T15:40:01Z</time>
      </trkpt>
      <trkpt lat="45.37275" lon="6.58018">
        <ele>1695.4</ele>
        <time>2021-01-01T15:40:06Z</time>
      </trkpt>
      <trkpt lat="45.37277" lon="6.58013">
        <ele>1699</ele>
        <time>2021-01-01T15:40:11Z</time>
      </trkpt>
      <trkpt lat="45.37281" lon="6.58007">
        <ele>1698.4</ele>
        <time>2021-01-01T15:40:16Z</time>
      </trkpt>
      <trkpt lat="45.37283" lon="6.58002">
        <ele>1695.6</ele>
        <time>2021-01-01T15:40:21Z</time>
      </trkpt>
      <trkpt lat="45.37285" lon="6.57996">
        <ele>1699.4</ele>
        <time>2021-01-01T15:40:26Z</time>
      </trkpt>
      <trkpt lat="45.37289" lon="6.5799">
        <ele>1698.8</ele>
        <time>2021-01-01T15:40:31Z</time>
      </trkpt>
      <trkpt lat="45.37292" lon="6.57983">
        <ele>1698.6</ele>
        <time>2021-01-01T15:40:36Z</time>
      </trkpt>
      <trkpt lat="45.37294" lon="6.57977">
        <ele>1697</ele>
        <time>2021-01-01T15:40:41Z</time>
      </trkpt>
      <trkpt lat="45.37297" lon="6.5797">
        <ele>1699.2</ele>
        <time>2021-01-01T15:40:46Z</time>
      </trkpt>
      <trkpt lat="45.37299" lon="6.57964">
        <ele>1698.8</ele>
        <time>2021-01-01T15:40:51Z</time>
      </trkpt>
      <trkpt lat="45.373" lon="6.57959">
        <ele>1703</ele>
        <time>2021-01-01T15:40:56Z</time>
      </trkpt>
      <trkpt lat="45.37301" lon="6.57952">
        <ele>1702.6</ele>
        <time>2021-01-01T15:41:01Z</time>
      </trkpt>
      <trkpt lat="45.37302" lon="6.57945">
        <ele>1700.4</ele>
        <time>2021-01-01T15:41:06Z</time>
      </trkpt>
      <trkpt lat="45.37302" lon="6.57936">
        <ele>1707</ele>
        <time>2021-01-01T15:41:12Z</time>
      </trkpt>
      <trkpt lat="45.37303" lon="6.5793">
        <ele>1703.6</ele>
        <time>2021-01-01T15:41:17Z</time>
      </trkpt>
      <trkpt lat="45.37304" lon="6.57924">
        <ele>1705.8</ele>
        <time>2021-01-01T15:41:22Z</time>
      </trkpt>
      <trkpt lat="45.37303" lon="6.57919">
        <ele>1704.4</ele>
        <time>2021-01-01T15:41:27Z</time>
      </trkpt>
      <trkpt lat="45.37302" lon="6.57915">
        <ele>1708.8</ele>
        <time>2021-01-01T15:41:32Z</time>
      </trkpt>
      <trkpt lat="45.37303" lon="6.5791">
        <ele>1707.2</ele>
        <time>2021-01-01T15:41:37Z</time>
      </trkpt>
      <trkpt lat="45.37305" lon="6.57905">
        <ele>1707.8</ele>
        <time>2021-01-01T15:41:43Z</time>
      </trkpt>
      <trkpt lat="45.37307" lon="6.57902">
        <ele>1708</ele>
        <time>2021-01-01T15:41:48Z</time>
      </trkpt>
      <trkpt lat="45.37308" lon="6.57899">
        <ele>1707</ele>
        <time>2021-01-01T15:41:53Z</time>
      </trkpt>
      <trkpt lat="45.37311" lon="6.57894">
        <ele>1706.6</ele>
        <time>2021-01-01T15:41:58Z</time>
      </trkpt>
      <trkpt lat="45.37313" lon="6.5789">
        <ele>1708</ele>
        <time>2021-01-01T15:42:03Z</time>
      </trkpt>
      <trkpt lat="45.37318" lon="6.57888">
        <ele>1708.2</ele>
        <time>2021-01-01T15:42:08Z</time>
      </trkpt>
      <trkpt lat="45.37321" lon="6.57886">
        <ele>1710</ele>
        <time>2021-01-01T15:42:13Z</time>
      </trkpt>
      <trkpt lat="45.37325" lon="6.57879">
        <ele>1712.6</ele>
        <time>2021-01-01T15:42:18Z</time>
      </trkpt>
      <trkpt lat="45.37327" lon="6.57875">
        <ele>1711.4</ele>
        <time>2021-01-01T15:42:23Z</time>
      </trkpt>
      <trkpt lat="45.37333" lon="6.57871">
        <ele>1712.8</ele>
        <time>2021-01-01T15:42:28Z</time>
      </trkpt>
      <trkpt lat="45.37336" lon="6.57869">
        <ele>1714.4</ele>
        <time>2021-01-01T15:42:33Z</time>
      </trkpt>
    </trkseg>
  </trk>
</gpx>